<?xml version="1.0" encoding="UTF-8" standalone="no" ?>
<gpx xmlns="http://www.topografix.com/GPX/1/1" xmlns:xsi="http://www.w3.org/2001/XMLSchema-instance" xsi:schemaLocation="http://www.topografix.com/GPX/1/1 http://www.topografix.com/GPX/1/1/gpx.xsd" version="1.1" creator="VisuGPX - https://www.visugpx.com">
  <metadata>
    <name>chirens-monfays-le souillet</name>
    <desc><![CDATA[sortie du 4 aout 2011 pour relier chirens à saint nicolas de macherin en passant par es marais puis montfays.
varaiantes possibles]]></desc>
  </metadata>
  <trk>
    <name><![CDATA[2011-08-04 11:05]]></name>
    <desc><![CDATA[]]></desc>
    <trkseg>
      <trkpt lat="45.41697" lon="5.55099">
        <ele>513</ele>
        <time>2011-08-04T09:07:05Z</time>
      </trkpt>
      <trkpt lat="45.417" lon="5.55105">
        <ele>516</ele>
        <time>2011-08-04T09:07:22Z</time>
      </trkpt>
      <trkpt lat="45.417" lon="5.55105">
        <ele>516</ele>
        <time>2011-08-04T09:07:22Z</time>
      </trkpt>
      <trkpt lat="45.417" lon="5.55105">
        <ele>515</ele>
        <time>2011-08-04T09:07:24Z</time>
      </trkpt>
      <trkpt lat="45.41696" lon="5.55111">
        <ele>515</ele>
        <time>2011-08-04T09:08:04Z</time>
      </trkpt>
      <trkpt lat="45.41695" lon="5.55117">
        <ele>515</ele>
        <time>2011-08-04T09:08:08Z</time>
      </trkpt>
      <trkpt lat="45.41691" lon="5.55123">
        <ele>515</ele>
        <time>2011-08-04T09:08:12Z</time>
      </trkpt>
      <trkpt lat="45.41688" lon="5.55129">
        <ele>515</ele>
        <time>2011-08-04T09:08:16Z</time>
      </trkpt>
      <trkpt lat="45.41685" lon="5.55134">
        <ele>514</ele>
        <time>2011-08-04T09:08:20Z</time>
      </trkpt>
      <trkpt lat="45.4168" lon="5.55138">
        <ele>515</ele>
        <time>2011-08-04T09:08:24Z</time>
      </trkpt>
      <trkpt lat="45.41676" lon="5.55143">
        <ele>516</ele>
        <time>2011-08-04T09:08:29Z</time>
      </trkpt>
      <trkpt lat="45.41679" lon="5.5515">
        <ele>518</ele>
        <time>2011-08-04T09:08:33Z</time>
      </trkpt>
      <trkpt lat="45.41683" lon="5.55154">
        <ele>521</ele>
        <time>2011-08-04T09:08:37Z</time>
      </trkpt>
      <trkpt lat="45.41686" lon="5.5516">
        <ele>519</ele>
        <time>2011-08-04T09:08:39Z</time>
      </trkpt>
      <trkpt lat="45.41687" lon="5.55168">
        <ele>518</ele>
        <time>2011-08-04T09:08:41Z</time>
      </trkpt>
      <trkpt lat="45.41688" lon="5.55175">
        <ele>518</ele>
        <time>2011-08-04T09:08:44Z</time>
      </trkpt>
      <trkpt lat="45.41683" lon="5.55181">
        <ele>519</ele>
        <time>2011-08-04T09:08:49Z</time>
      </trkpt>
      <trkpt lat="45.41677" lon="5.55184">
        <ele>520</ele>
        <time>2011-08-04T09:08:52Z</time>
      </trkpt>
      <trkpt lat="45.41675" lon="5.55192">
        <ele>520</ele>
        <time>2011-08-04T09:08:56Z</time>
      </trkpt>
      <trkpt lat="45.41674" lon="5.55198">
        <ele>519</ele>
        <time>2011-08-04T09:08:59Z</time>
      </trkpt>
      <trkpt lat="45.41673" lon="5.55205">
        <ele>519</ele>
        <time>2011-08-04T09:09:02Z</time>
      </trkpt>
      <trkpt lat="45.4167" lon="5.55211">
        <ele>519</ele>
        <time>2011-08-04T09:09:05Z</time>
      </trkpt>
      <trkpt lat="45.41666" lon="5.55214">
        <ele>518</ele>
        <time>2011-08-04T09:09:08Z</time>
      </trkpt>
      <trkpt lat="45.41661" lon="5.5521">
        <ele>516</ele>
        <time>2011-08-04T09:09:11Z</time>
      </trkpt>
      <trkpt lat="45.41656" lon="5.55211">
        <ele>517</ele>
        <time>2011-08-04T09:09:18Z</time>
      </trkpt>
      <trkpt lat="45.4165" lon="5.55214">
        <ele>518</ele>
        <time>2011-08-04T09:09:22Z</time>
      </trkpt>
      <trkpt lat="45.41647" lon="5.55219">
        <ele>519</ele>
        <time>2011-08-04T09:09:26Z</time>
      </trkpt>
      <trkpt lat="45.41642" lon="5.55221">
        <ele>519</ele>
        <time>2011-08-04T09:09:29Z</time>
      </trkpt>
      <trkpt lat="45.41639" lon="5.55225">
        <ele>519</ele>
        <time>2011-08-04T09:09:32Z</time>
      </trkpt>
      <trkpt lat="45.41635" lon="5.5523">
        <ele>518</ele>
        <time>2011-08-04T09:09:36Z</time>
      </trkpt>
      <trkpt lat="45.41633" lon="5.55237">
        <ele>517</ele>
        <time>2011-08-04T09:09:40Z</time>
      </trkpt>
      <trkpt lat="45.41629" lon="5.55243">
        <ele>518</ele>
        <time>2011-08-04T09:09:43Z</time>
      </trkpt>
      <trkpt lat="45.41628" lon="5.5525">
        <ele>518</ele>
        <time>2011-08-04T09:09:47Z</time>
      </trkpt>
      <trkpt lat="45.41627" lon="5.55257">
        <ele>517</ele>
        <time>2011-08-04T09:09:51Z</time>
      </trkpt>
      <trkpt lat="45.41627" lon="5.55264">
        <ele>517</ele>
        <time>2011-08-04T09:09:55Z</time>
      </trkpt>
      <trkpt lat="45.41626" lon="5.55271">
        <ele>516</ele>
        <time>2011-08-04T09:09:59Z</time>
      </trkpt>
      <trkpt lat="45.41623" lon="5.55277">
        <ele>516</ele>
        <time>2011-08-04T09:10:03Z</time>
      </trkpt>
      <trkpt lat="45.41624" lon="5.55283">
        <ele>516</ele>
        <time>2011-08-04T09:10:07Z</time>
      </trkpt>
      <trkpt lat="45.41622" lon="5.5529">
        <ele>516</ele>
        <time>2011-08-04T09:10:11Z</time>
      </trkpt>
      <trkpt lat="45.41619" lon="5.55297">
        <ele>516</ele>
        <time>2011-08-04T09:10:15Z</time>
      </trkpt>
      <trkpt lat="45.41616" lon="5.55301">
        <ele>516</ele>
        <time>2011-08-04T09:10:18Z</time>
      </trkpt>
      <trkpt lat="45.41612" lon="5.55308">
        <ele>516</ele>
        <time>2011-08-04T09:10:22Z</time>
      </trkpt>
      <trkpt lat="45.41609" lon="5.55313">
        <ele>516</ele>
        <time>2011-08-04T09:10:25Z</time>
      </trkpt>
      <trkpt lat="45.41606" lon="5.55319">
        <ele>517</ele>
        <time>2011-08-04T09:10:28Z</time>
      </trkpt>
      <trkpt lat="45.41603" lon="5.55324">
        <ele>516</ele>
        <time>2011-08-04T09:10:32Z</time>
      </trkpt>
      <trkpt lat="45.416" lon="5.55329">
        <ele>516</ele>
        <time>2011-08-04T09:10:36Z</time>
      </trkpt>
      <trkpt lat="45.41597" lon="5.55336">
        <ele>516</ele>
        <time>2011-08-04T09:10:40Z</time>
      </trkpt>
      <trkpt lat="45.41594" lon="5.55342">
        <ele>517</ele>
        <time>2011-08-04T09:10:44Z</time>
      </trkpt>
      <trkpt lat="45.41593" lon="5.55348">
        <ele>517</ele>
        <time>2011-08-04T09:10:47Z</time>
      </trkpt>
      <trkpt lat="45.41589" lon="5.55354">
        <ele>518</ele>
        <time>2011-08-04T09:10:50Z</time>
      </trkpt>
      <trkpt lat="45.41587" lon="5.55362">
        <ele>521</ele>
        <time>2011-08-04T09:10:54Z</time>
      </trkpt>
      <trkpt lat="45.41584" lon="5.55367">
        <ele>524</ele>
        <time>2011-08-04T09:10:58Z</time>
      </trkpt>
      <trkpt lat="45.41582" lon="5.55373">
        <ele>524</ele>
        <time>2011-08-04T09:11:01Z</time>
      </trkpt>
      <trkpt lat="45.41578" lon="5.55379">
        <ele>524</ele>
        <time>2011-08-04T09:11:05Z</time>
      </trkpt>
      <trkpt lat="45.41577" lon="5.55386">
        <ele>524</ele>
        <time>2011-08-04T09:11:09Z</time>
      </trkpt>
      <trkpt lat="45.41574" lon="5.55391">
        <ele>524</ele>
        <time>2011-08-04T09:11:12Z</time>
      </trkpt>
      <trkpt lat="45.4157" lon="5.55397">
        <ele>524</ele>
        <time>2011-08-04T09:11:16Z</time>
      </trkpt>
      <trkpt lat="45.41568" lon="5.55404">
        <ele>525</ele>
        <time>2011-08-04T09:11:21Z</time>
      </trkpt>
      <trkpt lat="45.41564" lon="5.55408">
        <ele>525</ele>
        <time>2011-08-04T09:11:25Z</time>
      </trkpt>
      <trkpt lat="45.4156" lon="5.55411">
        <ele>523</ele>
        <time>2011-08-04T09:11:28Z</time>
      </trkpt>
      <trkpt lat="45.41556" lon="5.55417">
        <ele>520</ele>
        <time>2011-08-04T09:11:33Z</time>
      </trkpt>
      <trkpt lat="45.41552" lon="5.55422">
        <ele>519</ele>
        <time>2011-08-04T09:11:38Z</time>
      </trkpt>
      <trkpt lat="45.41549" lon="5.55429">
        <ele>516</ele>
        <time>2011-08-04T09:11:43Z</time>
      </trkpt>
      <trkpt lat="45.41546" lon="5.55433">
        <ele>515</ele>
        <time>2011-08-04T09:11:48Z</time>
      </trkpt>
      <trkpt lat="45.41543" lon="5.55439">
        <ele>515</ele>
        <time>2011-08-04T09:11:51Z</time>
      </trkpt>
      <trkpt lat="45.4154" lon="5.55445">
        <ele>516</ele>
        <time>2011-08-04T09:11:55Z</time>
      </trkpt>
      <trkpt lat="45.41537" lon="5.5545">
        <ele>515</ele>
        <time>2011-08-04T09:11:59Z</time>
      </trkpt>
      <trkpt lat="45.41532" lon="5.55455">
        <ele>515</ele>
        <time>2011-08-04T09:12:04Z</time>
      </trkpt>
      <trkpt lat="45.41529" lon="5.55462">
        <ele>514</ele>
        <time>2011-08-04T09:12:08Z</time>
      </trkpt>
      <trkpt lat="45.41525" lon="5.55468">
        <ele>514</ele>
        <time>2011-08-04T09:12:13Z</time>
      </trkpt>
      <trkpt lat="45.41526" lon="5.55475">
        <ele>515</ele>
        <time>2011-08-04T09:12:17Z</time>
      </trkpt>
      <trkpt lat="45.41528" lon="5.55482">
        <ele>517</ele>
        <time>2011-08-04T09:12:21Z</time>
      </trkpt>
      <trkpt lat="45.41523" lon="5.55488">
        <ele>516</ele>
        <time>2011-08-04T09:12:25Z</time>
      </trkpt>
      <trkpt lat="45.41519" lon="5.55492">
        <ele>513</ele>
        <time>2011-08-04T09:12:30Z</time>
      </trkpt>
      <trkpt lat="45.41516" lon="5.55497">
        <ele>513</ele>
        <time>2011-08-04T09:12:34Z</time>
      </trkpt>
      <trkpt lat="45.41511" lon="5.55503">
        <ele>513</ele>
        <time>2011-08-04T09:12:38Z</time>
      </trkpt>
      <trkpt lat="45.41508" lon="5.55507">
        <ele>514</ele>
        <time>2011-08-04T09:12:42Z</time>
      </trkpt>
      <trkpt lat="45.41504" lon="5.55514">
        <ele>515</ele>
        <time>2011-08-04T09:12:46Z</time>
      </trkpt>
      <trkpt lat="45.415" lon="5.55519">
        <ele>518</ele>
        <time>2011-08-04T09:12:50Z</time>
      </trkpt>
      <trkpt lat="45.415" lon="5.55526">
        <ele>517</ele>
        <time>2011-08-04T09:12:53Z</time>
      </trkpt>
      <trkpt lat="45.415" lon="5.55533">
        <ele>517</ele>
        <time>2011-08-04T09:12:56Z</time>
      </trkpt>
      <trkpt lat="45.41504" lon="5.55536">
        <ele>518</ele>
        <time>2011-08-04T09:13:02Z</time>
      </trkpt>
      <trkpt lat="45.41507" lon="5.55541">
        <ele>517</ele>
        <time>2011-08-04T09:13:06Z</time>
      </trkpt>
      <trkpt lat="45.41511" lon="5.55545">
        <ele>518</ele>
        <time>2011-08-04T09:13:10Z</time>
      </trkpt>
      <trkpt lat="45.41517" lon="5.55549">
        <ele>519</ele>
        <time>2011-08-04T09:13:15Z</time>
      </trkpt>
      <trkpt lat="45.41521" lon="5.55552">
        <ele>519</ele>
        <time>2011-08-04T09:13:20Z</time>
      </trkpt>
      <trkpt lat="45.41526" lon="5.55555">
        <ele>519</ele>
        <time>2011-08-04T09:13:23Z</time>
      </trkpt>
      <trkpt lat="45.41531" lon="5.5556">
        <ele>517</ele>
        <time>2011-08-04T09:13:27Z</time>
      </trkpt>
      <trkpt lat="45.41534" lon="5.55564">
        <ele>517</ele>
        <time>2011-08-04T09:13:31Z</time>
      </trkpt>
      <trkpt lat="45.41539" lon="5.55566">
        <ele>517</ele>
        <time>2011-08-04T09:13:35Z</time>
      </trkpt>
      <trkpt lat="45.41544" lon="5.55569">
        <ele>518</ele>
        <time>2011-08-04T09:13:39Z</time>
      </trkpt>
      <trkpt lat="45.41548" lon="5.55573">
        <ele>516</ele>
        <time>2011-08-04T09:13:43Z</time>
      </trkpt>
      <trkpt lat="45.41552" lon="5.55577">
        <ele>518</ele>
        <time>2011-08-04T09:13:46Z</time>
      </trkpt>
      <trkpt lat="45.41557" lon="5.5558">
        <ele>518</ele>
        <time>2011-08-04T09:13:50Z</time>
      </trkpt>
      <trkpt lat="45.41561" lon="5.55585">
        <ele>517</ele>
        <time>2011-08-04T09:13:55Z</time>
      </trkpt>
      <trkpt lat="45.41566" lon="5.5559">
        <ele>517</ele>
        <time>2011-08-04T09:13:59Z</time>
      </trkpt>
      <trkpt lat="45.4157" lon="5.55592">
        <ele>516</ele>
        <time>2011-08-04T09:14:03Z</time>
      </trkpt>
      <trkpt lat="45.41575" lon="5.55594">
        <ele>516</ele>
        <time>2011-08-04T09:14:07Z</time>
      </trkpt>
      <trkpt lat="45.41581" lon="5.55596">
        <ele>516</ele>
        <time>2011-08-04T09:14:11Z</time>
      </trkpt>
      <trkpt lat="45.41586" lon="5.55599">
        <ele>514</ele>
        <time>2011-08-04T09:14:16Z</time>
      </trkpt>
      <trkpt lat="45.4159" lon="5.55601">
        <ele>514</ele>
        <time>2011-08-04T09:14:20Z</time>
      </trkpt>
      <trkpt lat="45.41595" lon="5.55604">
        <ele>515</ele>
        <time>2011-08-04T09:14:23Z</time>
      </trkpt>
      <trkpt lat="45.41599" lon="5.55606">
        <ele>516</ele>
        <time>2011-08-04T09:14:27Z</time>
      </trkpt>
      <trkpt lat="45.41603" lon="5.55609">
        <ele>516</ele>
        <time>2011-08-04T09:14:30Z</time>
      </trkpt>
      <trkpt lat="45.41607" lon="5.55613">
        <ele>516</ele>
        <time>2011-08-04T09:14:33Z</time>
      </trkpt>
      <trkpt lat="45.41611" lon="5.55617">
        <ele>516</ele>
        <time>2011-08-04T09:14:36Z</time>
      </trkpt>
      <trkpt lat="45.41613" lon="5.55623">
        <ele>516</ele>
        <time>2011-08-04T09:14:39Z</time>
      </trkpt>
      <trkpt lat="45.41616" lon="5.5563">
        <ele>515</ele>
        <time>2011-08-04T09:14:43Z</time>
      </trkpt>
      <trkpt lat="45.41616" lon="5.55638">
        <ele>515</ele>
        <time>2011-08-04T09:14:47Z</time>
      </trkpt>
      <trkpt lat="45.41615" lon="5.55646">
        <ele>514</ele>
        <time>2011-08-04T09:14:51Z</time>
      </trkpt>
      <trkpt lat="45.41612" lon="5.55654">
        <ele>513</ele>
        <time>2011-08-04T09:14:56Z</time>
      </trkpt>
      <trkpt lat="45.4161" lon="5.55661">
        <ele>513</ele>
        <time>2011-08-04T09:15:00Z</time>
      </trkpt>
      <trkpt lat="45.41607" lon="5.55668">
        <ele>513</ele>
        <time>2011-08-04T09:15:04Z</time>
      </trkpt>
      <trkpt lat="45.41605" lon="5.55675">
        <ele>512</ele>
        <time>2011-08-04T09:15:08Z</time>
      </trkpt>
      <trkpt lat="45.41602" lon="5.5568">
        <ele>513</ele>
        <time>2011-08-04T09:15:12Z</time>
      </trkpt>
      <trkpt lat="45.416" lon="5.55687">
        <ele>513</ele>
        <time>2011-08-04T09:15:16Z</time>
      </trkpt>
      <trkpt lat="45.41599" lon="5.55694">
        <ele>514</ele>
        <time>2011-08-04T09:15:20Z</time>
      </trkpt>
      <trkpt lat="45.41597" lon="5.55701">
        <ele>514</ele>
        <time>2011-08-04T09:15:24Z</time>
      </trkpt>
      <trkpt lat="45.41596" lon="5.55708">
        <ele>515</ele>
        <time>2011-08-04T09:15:28Z</time>
      </trkpt>
      <trkpt lat="45.41595" lon="5.55714">
        <ele>516</ele>
        <time>2011-08-04T09:15:32Z</time>
      </trkpt>
      <trkpt lat="45.41592" lon="5.5572">
        <ele>515</ele>
        <time>2011-08-04T09:15:35Z</time>
      </trkpt>
      <trkpt lat="45.41592" lon="5.55727">
        <ele>516</ele>
        <time>2011-08-04T09:15:38Z</time>
      </trkpt>
      <trkpt lat="45.41594" lon="5.55735">
        <ele>516</ele>
        <time>2011-08-04T09:15:42Z</time>
      </trkpt>
      <trkpt lat="45.41597" lon="5.55742">
        <ele>515</ele>
        <time>2011-08-04T09:15:47Z</time>
      </trkpt>
      <trkpt lat="45.41599" lon="5.55747">
        <ele>516</ele>
        <time>2011-08-04T09:15:52Z</time>
      </trkpt>
      <trkpt lat="45.41602" lon="5.55754">
        <ele>517</ele>
        <time>2011-08-04T09:15:57Z</time>
      </trkpt>
      <trkpt lat="45.41603" lon="5.55761">
        <ele>518</ele>
        <time>2011-08-04T09:16:01Z</time>
      </trkpt>
      <trkpt lat="45.41599" lon="5.55766">
        <ele>518</ele>
        <time>2011-08-04T09:16:06Z</time>
      </trkpt>
      <trkpt lat="45.41595" lon="5.5577">
        <ele>516</ele>
        <time>2011-08-04T09:16:10Z</time>
      </trkpt>
      <trkpt lat="45.41589" lon="5.55775">
        <ele>515</ele>
        <time>2011-08-04T09:16:16Z</time>
      </trkpt>
      <trkpt lat="45.41586" lon="5.55781">
        <ele>514</ele>
        <time>2011-08-04T09:16:20Z</time>
      </trkpt>
      <trkpt lat="45.41583" lon="5.55786">
        <ele>514</ele>
        <time>2011-08-04T09:16:23Z</time>
      </trkpt>
      <trkpt lat="45.41581" lon="5.55792">
        <ele>515</ele>
        <time>2011-08-04T09:16:27Z</time>
      </trkpt>
      <trkpt lat="45.41577" lon="5.55798">
        <ele>516</ele>
        <time>2011-08-04T09:16:30Z</time>
      </trkpt>
      <trkpt lat="45.41573" lon="5.55803">
        <ele>515</ele>
        <time>2011-08-04T09:16:34Z</time>
      </trkpt>
      <trkpt lat="45.4157" lon="5.55808">
        <ele>515</ele>
        <time>2011-08-04T09:16:38Z</time>
      </trkpt>
      <trkpt lat="45.41566" lon="5.55812">
        <ele>516</ele>
        <time>2011-08-04T09:16:41Z</time>
      </trkpt>
      <trkpt lat="45.41562" lon="5.55815">
        <ele>515</ele>
        <time>2011-08-04T09:16:45Z</time>
      </trkpt>
      <trkpt lat="45.41556" lon="5.55818">
        <ele>514</ele>
        <time>2011-08-04T09:16:49Z</time>
      </trkpt>
      <trkpt lat="45.41552" lon="5.55822">
        <ele>512</ele>
        <time>2011-08-04T09:16:54Z</time>
      </trkpt>
      <trkpt lat="45.41547" lon="5.55826">
        <ele>512</ele>
        <time>2011-08-04T09:16:59Z</time>
      </trkpt>
      <trkpt lat="45.41543" lon="5.5583">
        <ele>512</ele>
        <time>2011-08-04T09:17:02Z</time>
      </trkpt>
      <trkpt lat="45.4154" lon="5.55836">
        <ele>512</ele>
        <time>2011-08-04T09:17:05Z</time>
      </trkpt>
      <trkpt lat="45.41536" lon="5.5584">
        <ele>511</ele>
        <time>2011-08-04T09:17:09Z</time>
      </trkpt>
      <trkpt lat="45.41535" lon="5.55846">
        <ele>512</ele>
        <time>2011-08-04T09:17:12Z</time>
      </trkpt>
      <trkpt lat="45.41533" lon="5.55854">
        <ele>514</ele>
        <time>2011-08-04T09:17:16Z</time>
      </trkpt>
      <trkpt lat="45.41533" lon="5.55861">
        <ele>515</ele>
        <time>2011-08-04T09:17:20Z</time>
      </trkpt>
      <trkpt lat="45.41531" lon="5.55868">
        <ele>516</ele>
        <time>2011-08-04T09:17:24Z</time>
      </trkpt>
      <trkpt lat="45.41531" lon="5.55875">
        <ele>516</ele>
        <time>2011-08-04T09:17:28Z</time>
      </trkpt>
      <trkpt lat="45.4153" lon="5.55882">
        <ele>516</ele>
        <time>2011-08-04T09:17:32Z</time>
      </trkpt>
      <trkpt lat="45.4153" lon="5.5589">
        <ele>517</ele>
        <time>2011-08-04T09:17:36Z</time>
      </trkpt>
      <trkpt lat="45.4153" lon="5.55897">
        <ele>518</ele>
        <time>2011-08-04T09:17:40Z</time>
      </trkpt>
      <trkpt lat="45.41529" lon="5.55904">
        <ele>519</ele>
        <time>2011-08-04T09:17:44Z</time>
      </trkpt>
      <trkpt lat="45.41528" lon="5.55911">
        <ele>518</ele>
        <time>2011-08-04T09:17:48Z</time>
      </trkpt>
      <trkpt lat="45.4153" lon="5.55918">
        <ele>520</ele>
        <time>2011-08-04T09:17:56Z</time>
      </trkpt>
      <trkpt lat="45.41534" lon="5.5592">
        <ele>519</ele>
        <time>2011-08-04T09:18:04Z</time>
      </trkpt>
      <trkpt lat="45.41538" lon="5.55926">
        <ele>519</ele>
        <time>2011-08-04T09:18:28Z</time>
      </trkpt>
      <trkpt lat="45.41542" lon="5.55928">
        <ele>519</ele>
        <time>2011-08-04T09:18:32Z</time>
      </trkpt>
      <trkpt lat="45.41547" lon="5.55931">
        <ele>519</ele>
        <time>2011-08-04T09:18:36Z</time>
      </trkpt>
      <trkpt lat="45.41552" lon="5.55934">
        <ele>519</ele>
        <time>2011-08-04T09:18:41Z</time>
      </trkpt>
      <trkpt lat="45.41558" lon="5.55936">
        <ele>519</ele>
        <time>2011-08-04T09:18:46Z</time>
      </trkpt>
      <trkpt lat="45.41563" lon="5.55938">
        <ele>519</ele>
        <time>2011-08-04T09:18:50Z</time>
      </trkpt>
      <trkpt lat="45.41567" lon="5.55939">
        <ele>519</ele>
        <time>2011-08-04T09:18:54Z</time>
      </trkpt>
      <trkpt lat="45.41572" lon="5.55942">
        <ele>518</ele>
        <time>2011-08-04T09:18:58Z</time>
      </trkpt>
      <trkpt lat="45.41577" lon="5.55945">
        <ele>518</ele>
        <time>2011-08-04T09:19:03Z</time>
      </trkpt>
      <trkpt lat="45.41582" lon="5.55947">
        <ele>518</ele>
        <time>2011-08-04T09:19:07Z</time>
      </trkpt>
      <trkpt lat="45.41586" lon="5.5595">
        <ele>519</ele>
        <time>2011-08-04T09:19:11Z</time>
      </trkpt>
      <trkpt lat="45.41591" lon="5.55953">
        <ele>518</ele>
        <time>2011-08-04T09:19:15Z</time>
      </trkpt>
      <trkpt lat="45.41597" lon="5.55955">
        <ele>518</ele>
        <time>2011-08-04T09:19:20Z</time>
      </trkpt>
      <trkpt lat="45.41601" lon="5.55958">
        <ele>519</ele>
        <time>2011-08-04T09:19:23Z</time>
      </trkpt>
      <trkpt lat="45.41606" lon="5.5596">
        <ele>519</ele>
        <time>2011-08-04T09:19:27Z</time>
      </trkpt>
      <trkpt lat="45.4161" lon="5.55962">
        <ele>519</ele>
        <time>2011-08-04T09:19:30Z</time>
      </trkpt>
      <trkpt lat="45.41615" lon="5.55964">
        <ele>518</ele>
        <time>2011-08-04T09:19:34Z</time>
      </trkpt>
      <trkpt lat="45.4162" lon="5.55966">
        <ele>518</ele>
        <time>2011-08-04T09:19:38Z</time>
      </trkpt>
      <trkpt lat="45.41626" lon="5.55968">
        <ele>518</ele>
        <time>2011-08-04T09:19:42Z</time>
      </trkpt>
      <trkpt lat="45.4163" lon="5.5597">
        <ele>518</ele>
        <time>2011-08-04T09:19:46Z</time>
      </trkpt>
      <trkpt lat="45.41635" lon="5.55972">
        <ele>519</ele>
        <time>2011-08-04T09:19:50Z</time>
      </trkpt>
      <trkpt lat="45.4164" lon="5.55975">
        <ele>518</ele>
        <time>2011-08-04T09:19:54Z</time>
      </trkpt>
      <trkpt lat="45.41645" lon="5.55978">
        <ele>519</ele>
        <time>2011-08-04T09:19:58Z</time>
      </trkpt>
      <trkpt lat="45.41649" lon="5.5598">
        <ele>519</ele>
        <time>2011-08-04T09:20:01Z</time>
      </trkpt>
      <trkpt lat="45.41654" lon="5.55983">
        <ele>519</ele>
        <time>2011-08-04T09:20:05Z</time>
      </trkpt>
      <trkpt lat="45.41659" lon="5.55986">
        <ele>520</ele>
        <time>2011-08-04T09:20:09Z</time>
      </trkpt>
      <trkpt lat="45.41664" lon="5.55989">
        <ele>521</ele>
        <time>2011-08-04T09:20:13Z</time>
      </trkpt>
      <trkpt lat="45.41669" lon="5.55993">
        <ele>522</ele>
        <time>2011-08-04T09:20:18Z</time>
      </trkpt>
      <trkpt lat="45.41673" lon="5.55995">
        <ele>523</ele>
        <time>2011-08-04T09:20:21Z</time>
      </trkpt>
      <trkpt lat="45.41678" lon="5.55998">
        <ele>523</ele>
        <time>2011-08-04T09:20:24Z</time>
      </trkpt>
      <trkpt lat="45.41683" lon="5.56002">
        <ele>524</ele>
        <time>2011-08-04T09:20:28Z</time>
      </trkpt>
      <trkpt lat="45.41688" lon="5.56006">
        <ele>523</ele>
        <time>2011-08-04T09:20:33Z</time>
      </trkpt>
      <trkpt lat="45.41693" lon="5.5601">
        <ele>524</ele>
        <time>2011-08-04T09:20:37Z</time>
      </trkpt>
      <trkpt lat="45.41697" lon="5.56012">
        <ele>521</ele>
        <time>2011-08-04T09:20:40Z</time>
      </trkpt>
      <trkpt lat="45.41702" lon="5.56015">
        <ele>521</ele>
        <time>2011-08-04T09:20:44Z</time>
      </trkpt>
      <trkpt lat="45.41707" lon="5.56018">
        <ele>520</ele>
        <time>2011-08-04T09:20:48Z</time>
      </trkpt>
      <trkpt lat="45.41712" lon="5.56021">
        <ele>519</ele>
        <time>2011-08-04T09:20:52Z</time>
      </trkpt>
      <trkpt lat="45.41716" lon="5.56024">
        <ele>519</ele>
        <time>2011-08-04T09:20:56Z</time>
      </trkpt>
      <trkpt lat="45.41721" lon="5.56027">
        <ele>519</ele>
        <time>2011-08-04T09:21:00Z</time>
      </trkpt>
      <trkpt lat="45.41725" lon="5.5603">
        <ele>519</ele>
        <time>2011-08-04T09:21:04Z</time>
      </trkpt>
      <trkpt lat="45.41729" lon="5.56034">
        <ele>519</ele>
        <time>2011-08-04T09:21:08Z</time>
      </trkpt>
      <trkpt lat="45.41734" lon="5.56037">
        <ele>518</ele>
        <time>2011-08-04T09:21:12Z</time>
      </trkpt>
      <trkpt lat="45.41738" lon="5.56041">
        <ele>518</ele>
        <time>2011-08-04T09:21:16Z</time>
      </trkpt>
      <trkpt lat="45.41743" lon="5.56043">
        <ele>518</ele>
        <time>2011-08-04T09:21:20Z</time>
      </trkpt>
      <trkpt lat="45.41748" lon="5.56046">
        <ele>518</ele>
        <time>2011-08-04T09:21:24Z</time>
      </trkpt>
      <trkpt lat="45.41752" lon="5.5605">
        <ele>517</ele>
        <time>2011-08-04T09:21:28Z</time>
      </trkpt>
      <trkpt lat="45.41757" lon="5.56054">
        <ele>516</ele>
        <time>2011-08-04T09:21:32Z</time>
      </trkpt>
      <trkpt lat="45.41762" lon="5.56056">
        <ele>517</ele>
        <time>2011-08-04T09:21:37Z</time>
      </trkpt>
      <trkpt lat="45.41767" lon="5.56059">
        <ele>517</ele>
        <time>2011-08-04T09:21:41Z</time>
      </trkpt>
      <trkpt lat="45.4177" lon="5.56064">
        <ele>517</ele>
        <time>2011-08-04T09:21:45Z</time>
      </trkpt>
      <trkpt lat="45.41775" lon="5.56068">
        <ele>518</ele>
        <time>2011-08-04T09:21:49Z</time>
      </trkpt>
      <trkpt lat="45.41779" lon="5.56073">
        <ele>518</ele>
        <time>2011-08-04T09:21:53Z</time>
      </trkpt>
      <trkpt lat="45.41783" lon="5.56078">
        <ele>518</ele>
        <time>2011-08-04T09:21:57Z</time>
      </trkpt>
      <trkpt lat="45.41787" lon="5.5608">
        <ele>518</ele>
        <time>2011-08-04T09:22:00Z</time>
      </trkpt>
      <trkpt lat="45.41791" lon="5.56084">
        <ele>518</ele>
        <time>2011-08-04T09:22:03Z</time>
      </trkpt>
      <trkpt lat="45.41796" lon="5.56087">
        <ele>518</ele>
        <time>2011-08-04T09:22:07Z</time>
      </trkpt>
      <trkpt lat="45.41801" lon="5.5609">
        <ele>518</ele>
        <time>2011-08-04T09:22:11Z</time>
      </trkpt>
      <trkpt lat="45.41805" lon="5.56092">
        <ele>518</ele>
        <time>2011-08-04T09:22:15Z</time>
      </trkpt>
      <trkpt lat="45.4181" lon="5.56096">
        <ele>519</ele>
        <time>2011-08-04T09:22:19Z</time>
      </trkpt>
      <trkpt lat="45.41814" lon="5.561">
        <ele>519</ele>
        <time>2011-08-04T09:22:23Z</time>
      </trkpt>
      <trkpt lat="45.41817" lon="5.56105">
        <ele>519</ele>
        <time>2011-08-04T09:22:27Z</time>
      </trkpt>
      <trkpt lat="45.4182" lon="5.5611">
        <ele>518</ele>
        <time>2011-08-04T09:22:30Z</time>
      </trkpt>
      <trkpt lat="45.41825" lon="5.56114">
        <ele>518</ele>
        <time>2011-08-04T09:22:34Z</time>
      </trkpt>
      <trkpt lat="45.41829" lon="5.56118">
        <ele>518</ele>
        <time>2011-08-04T09:22:38Z</time>
      </trkpt>
      <trkpt lat="45.41834" lon="5.56122">
        <ele>520</ele>
        <time>2011-08-04T09:22:43Z</time>
      </trkpt>
      <trkpt lat="45.41838" lon="5.56125">
        <ele>521</ele>
        <time>2011-08-04T09:22:47Z</time>
      </trkpt>
      <trkpt lat="45.41841" lon="5.5613">
        <ele>522</ele>
        <time>2011-08-04T09:22:51Z</time>
      </trkpt>
      <trkpt lat="45.41845" lon="5.56135">
        <ele>522</ele>
        <time>2011-08-04T09:22:54Z</time>
      </trkpt>
      <trkpt lat="45.41848" lon="5.5614">
        <ele>523</ele>
        <time>2011-08-04T09:22:58Z</time>
      </trkpt>
      <trkpt lat="45.41852" lon="5.56144">
        <ele>523</ele>
        <time>2011-08-04T09:23:01Z</time>
      </trkpt>
      <trkpt lat="45.41856" lon="5.56147">
        <ele>523</ele>
        <time>2011-08-04T09:23:05Z</time>
      </trkpt>
      <trkpt lat="45.4186" lon="5.56152">
        <ele>522</ele>
        <time>2011-08-04T09:23:09Z</time>
      </trkpt>
      <trkpt lat="45.41864" lon="5.56156">
        <ele>523</ele>
        <time>2011-08-04T09:23:13Z</time>
      </trkpt>
      <trkpt lat="45.41868" lon="5.56161">
        <ele>522</ele>
        <time>2011-08-04T09:23:16Z</time>
      </trkpt>
      <trkpt lat="45.41871" lon="5.56168">
        <ele>520</ele>
        <time>2011-08-04T09:23:20Z</time>
      </trkpt>
      <trkpt lat="45.41875" lon="5.56173">
        <ele>519</ele>
        <time>2011-08-04T09:23:23Z</time>
      </trkpt>
      <trkpt lat="45.41878" lon="5.56177">
        <ele>519</ele>
        <time>2011-08-04T09:23:26Z</time>
      </trkpt>
      <trkpt lat="45.41882" lon="5.56182">
        <ele>519</ele>
        <time>2011-08-04T09:23:29Z</time>
      </trkpt>
      <trkpt lat="45.41885" lon="5.56187">
        <ele>518</ele>
        <time>2011-08-04T09:23:33Z</time>
      </trkpt>
      <trkpt lat="45.4189" lon="5.56192">
        <ele>517</ele>
        <time>2011-08-04T09:23:37Z</time>
      </trkpt>
      <trkpt lat="45.41892" lon="5.56198">
        <ele>516</ele>
        <time>2011-08-04T09:23:40Z</time>
      </trkpt>
      <trkpt lat="45.41895" lon="5.56206">
        <ele>516</ele>
        <time>2011-08-04T09:23:44Z</time>
      </trkpt>
      <trkpt lat="45.41899" lon="5.5621">
        <ele>517</ele>
        <time>2011-08-04T09:23:47Z</time>
      </trkpt>
      <trkpt lat="45.41902" lon="5.56216">
        <ele>515</ele>
        <time>2011-08-04T09:23:51Z</time>
      </trkpt>
      <trkpt lat="45.41906" lon="5.56222">
        <ele>514</ele>
        <time>2011-08-04T09:23:56Z</time>
      </trkpt>
      <trkpt lat="45.4191" lon="5.56226">
        <ele>513</ele>
        <time>2011-08-04T09:24:02Z</time>
      </trkpt>
      <trkpt lat="45.41913" lon="5.56231">
        <ele>513</ele>
        <time>2011-08-04T09:24:05Z</time>
      </trkpt>
      <trkpt lat="45.41916" lon="5.56238">
        <ele>513</ele>
        <time>2011-08-04T09:24:09Z</time>
      </trkpt>
      <trkpt lat="45.41919" lon="5.56244">
        <ele>512</ele>
        <time>2011-08-04T09:24:13Z</time>
      </trkpt>
      <trkpt lat="45.41922" lon="5.5625">
        <ele>512</ele>
        <time>2011-08-04T09:24:17Z</time>
      </trkpt>
      <trkpt lat="45.41925" lon="5.56256">
        <ele>511</ele>
        <time>2011-08-04T09:24:20Z</time>
      </trkpt>
      <trkpt lat="45.41929" lon="5.56261">
        <ele>511</ele>
        <time>2011-08-04T09:24:24Z</time>
      </trkpt>
      <trkpt lat="45.41932" lon="5.56266">
        <ele>512</ele>
        <time>2011-08-04T09:24:28Z</time>
      </trkpt>
      <trkpt lat="45.41936" lon="5.56272">
        <ele>512</ele>
        <time>2011-08-04T09:24:32Z</time>
      </trkpt>
      <trkpt lat="45.4194" lon="5.56277">
        <ele>511</ele>
        <time>2011-08-04T09:24:36Z</time>
      </trkpt>
      <trkpt lat="45.41943" lon="5.56282">
        <ele>511</ele>
        <time>2011-08-04T09:24:39Z</time>
      </trkpt>
      <trkpt lat="45.41946" lon="5.56286">
        <ele>510</ele>
        <time>2011-08-04T09:24:42Z</time>
      </trkpt>
      <trkpt lat="45.4195" lon="5.56292">
        <ele>510</ele>
        <time>2011-08-04T09:24:46Z</time>
      </trkpt>
      <trkpt lat="45.41954" lon="5.56298">
        <ele>510</ele>
        <time>2011-08-04T09:24:52Z</time>
      </trkpt>
      <trkpt lat="45.41957" lon="5.56304">
        <ele>511</ele>
        <time>2011-08-04T09:24:56Z</time>
      </trkpt>
      <trkpt lat="45.4196" lon="5.56309">
        <ele>511</ele>
        <time>2011-08-04T09:25:00Z</time>
      </trkpt>
      <trkpt lat="45.41964" lon="5.56315">
        <ele>511</ele>
        <time>2011-08-04T09:25:02Z</time>
      </trkpt>
      <trkpt lat="45.41968" lon="5.56321">
        <ele>511</ele>
        <time>2011-08-04T09:25:04Z</time>
      </trkpt>
      <trkpt lat="45.41973" lon="5.56327">
        <ele>511</ele>
        <time>2011-08-04T09:25:06Z</time>
      </trkpt>
      <trkpt lat="45.41978" lon="5.56334">
        <ele>511</ele>
        <time>2011-08-04T09:25:08Z</time>
      </trkpt>
      <trkpt lat="45.41982" lon="5.5634">
        <ele>511</ele>
        <time>2011-08-04T09:25:10Z</time>
      </trkpt>
      <trkpt lat="45.41986" lon="5.56348">
        <ele>512</ele>
        <time>2011-08-04T09:25:12Z</time>
      </trkpt>
      <trkpt lat="45.41989" lon="5.56354">
        <ele>512</ele>
        <time>2011-08-04T09:25:14Z</time>
      </trkpt>
      <trkpt lat="45.41993" lon="5.56359">
        <ele>512</ele>
        <time>2011-08-04T09:25:16Z</time>
      </trkpt>
      <trkpt lat="45.41999" lon="5.56364">
        <ele>513</ele>
        <time>2011-08-04T09:25:19Z</time>
      </trkpt>
      <trkpt lat="45.42006" lon="5.5637">
        <ele>513</ele>
        <time>2011-08-04T09:25:21Z</time>
      </trkpt>
      <trkpt lat="45.4201" lon="5.56373">
        <ele>514</ele>
        <time>2011-08-04T09:25:23Z</time>
      </trkpt>
      <trkpt lat="45.42015" lon="5.56377">
        <ele>515</ele>
        <time>2011-08-04T09:25:25Z</time>
      </trkpt>
      <trkpt lat="45.4202" lon="5.56381">
        <ele>515</ele>
        <time>2011-08-04T09:25:27Z</time>
      </trkpt>
      <trkpt lat="45.42025" lon="5.56384">
        <ele>515</ele>
        <time>2011-08-04T09:25:29Z</time>
      </trkpt>
      <trkpt lat="45.42029" lon="5.56387">
        <ele>516</ele>
        <time>2011-08-04T09:25:31Z</time>
      </trkpt>
      <trkpt lat="45.42034" lon="5.5639">
        <ele>517</ele>
        <time>2011-08-04T09:25:33Z</time>
      </trkpt>
      <trkpt lat="45.42038" lon="5.56393">
        <ele>519</ele>
        <time>2011-08-04T09:25:35Z</time>
      </trkpt>
      <trkpt lat="45.42044" lon="5.56394">
        <ele>519</ele>
        <time>2011-08-04T09:25:37Z</time>
      </trkpt>
      <trkpt lat="45.4205" lon="5.56397">
        <ele>519</ele>
        <time>2011-08-04T09:25:39Z</time>
      </trkpt>
      <trkpt lat="45.42056" lon="5.564">
        <ele>518</ele>
        <time>2011-08-04T09:25:41Z</time>
      </trkpt>
      <trkpt lat="45.42062" lon="5.56403">
        <ele>518</ele>
        <time>2011-08-04T09:25:43Z</time>
      </trkpt>
      <trkpt lat="45.42068" lon="5.56405">
        <ele>517</ele>
        <time>2011-08-04T09:25:45Z</time>
      </trkpt>
      <trkpt lat="45.42073" lon="5.56409">
        <ele>517</ele>
        <time>2011-08-04T09:25:47Z</time>
      </trkpt>
      <trkpt lat="45.42078" lon="5.56412">
        <ele>518</ele>
        <time>2011-08-04T09:25:48Z</time>
      </trkpt>
      <trkpt lat="45.42086" lon="5.56419">
        <ele>518</ele>
        <time>2011-08-04T09:25:50Z</time>
      </trkpt>
      <trkpt lat="45.42092" lon="5.56425">
        <ele>517</ele>
        <time>2011-08-04T09:25:52Z</time>
      </trkpt>
      <trkpt lat="45.42098" lon="5.56432">
        <ele>517</ele>
        <time>2011-08-04T09:25:54Z</time>
      </trkpt>
      <trkpt lat="45.42103" lon="5.56438">
        <ele>517</ele>
        <time>2011-08-04T09:25:56Z</time>
      </trkpt>
      <trkpt lat="45.42108" lon="5.56443">
        <ele>516</ele>
        <time>2011-08-04T09:25:58Z</time>
      </trkpt>
      <trkpt lat="45.42114" lon="5.56449">
        <ele>517</ele>
        <time>2011-08-04T09:26:00Z</time>
      </trkpt>
      <trkpt lat="45.42119" lon="5.56456">
        <ele>517</ele>
        <time>2011-08-04T09:26:02Z</time>
      </trkpt>
      <trkpt lat="45.42124" lon="5.56461">
        <ele>517</ele>
        <time>2011-08-04T09:26:04Z</time>
      </trkpt>
      <trkpt lat="45.42128" lon="5.56465">
        <ele>516</ele>
        <time>2011-08-04T09:26:06Z</time>
      </trkpt>
      <trkpt lat="45.42133" lon="5.56474">
        <ele>516</ele>
        <time>2011-08-04T09:26:09Z</time>
      </trkpt>
      <trkpt lat="45.42136" lon="5.5648">
        <ele>517</ele>
        <time>2011-08-04T09:26:12Z</time>
      </trkpt>
      <trkpt lat="45.42139" lon="5.56487">
        <ele>517</ele>
        <time>2011-08-04T09:26:14Z</time>
      </trkpt>
      <trkpt lat="45.42142" lon="5.56493">
        <ele>518</ele>
        <time>2011-08-04T09:26:15Z</time>
      </trkpt>
      <trkpt lat="45.42144" lon="5.56502">
        <ele>519</ele>
        <time>2011-08-04T09:26:17Z</time>
      </trkpt>
      <trkpt lat="45.42149" lon="5.56508">
        <ele>520</ele>
        <time>2011-08-04T09:26:19Z</time>
      </trkpt>
      <trkpt lat="45.42151" lon="5.56516">
        <ele>521</ele>
        <time>2011-08-04T09:26:21Z</time>
      </trkpt>
      <trkpt lat="45.42155" lon="5.56524">
        <ele>521</ele>
        <time>2011-08-04T09:26:23Z</time>
      </trkpt>
      <trkpt lat="45.4216" lon="5.56534">
        <ele>523</ele>
        <time>2011-08-04T09:26:25Z</time>
      </trkpt>
      <trkpt lat="45.42165" lon="5.56542">
        <ele>524</ele>
        <time>2011-08-04T09:26:27Z</time>
      </trkpt>
      <trkpt lat="45.42169" lon="5.56551">
        <ele>525</ele>
        <time>2011-08-04T09:26:29Z</time>
      </trkpt>
      <trkpt lat="45.4217" lon="5.56561">
        <ele>523</ele>
        <time>2011-08-04T09:26:31Z</time>
      </trkpt>
      <trkpt lat="45.42172" lon="5.56571">
        <ele>522</ele>
        <time>2011-08-04T09:26:33Z</time>
      </trkpt>
      <trkpt lat="45.42175" lon="5.5658">
        <ele>522</ele>
        <time>2011-08-04T09:26:35Z</time>
      </trkpt>
      <trkpt lat="45.42176" lon="5.56589">
        <ele>522</ele>
        <time>2011-08-04T09:26:37Z</time>
      </trkpt>
      <trkpt lat="45.42179" lon="5.56598">
        <ele>521</ele>
        <time>2011-08-04T09:26:39Z</time>
      </trkpt>
      <trkpt lat="45.4218" lon="5.56606">
        <ele>521</ele>
        <time>2011-08-04T09:26:41Z</time>
      </trkpt>
      <trkpt lat="45.42181" lon="5.56615">
        <ele>520</ele>
        <time>2011-08-04T09:26:43Z</time>
      </trkpt>
      <trkpt lat="45.42185" lon="5.56623">
        <ele>519</ele>
        <time>2011-08-04T09:26:45Z</time>
      </trkpt>
      <trkpt lat="45.42189" lon="5.5663">
        <ele>519</ele>
        <time>2011-08-04T09:26:47Z</time>
      </trkpt>
      <trkpt lat="45.42193" lon="5.56638">
        <ele>519</ele>
        <time>2011-08-04T09:26:49Z</time>
      </trkpt>
      <trkpt lat="45.42198" lon="5.56646">
        <ele>520</ele>
        <time>2011-08-04T09:26:51Z</time>
      </trkpt>
      <trkpt lat="45.42202" lon="5.56652">
        <ele>520</ele>
        <time>2011-08-04T09:26:53Z</time>
      </trkpt>
      <trkpt lat="45.42208" lon="5.56659">
        <ele>520</ele>
        <time>2011-08-04T09:26:56Z</time>
      </trkpt>
      <trkpt lat="45.42212" lon="5.56664">
        <ele>521</ele>
        <time>2011-08-04T09:26:58Z</time>
      </trkpt>
      <trkpt lat="45.42216" lon="5.5667">
        <ele>521</ele>
        <time>2011-08-04T09:27:00Z</time>
      </trkpt>
      <trkpt lat="45.42222" lon="5.5668">
        <ele>520</ele>
        <time>2011-08-04T09:27:02Z</time>
      </trkpt>
      <trkpt lat="45.42228" lon="5.56685">
        <ele>521</ele>
        <time>2011-08-04T09:27:04Z</time>
      </trkpt>
      <trkpt lat="45.42232" lon="5.56689">
        <ele>522</ele>
        <time>2011-08-04T09:27:06Z</time>
      </trkpt>
      <trkpt lat="45.42237" lon="5.56693">
        <ele>522</ele>
        <time>2011-08-04T09:27:08Z</time>
      </trkpt>
      <trkpt lat="45.42243" lon="5.56697">
        <ele>522</ele>
        <time>2011-08-04T09:27:10Z</time>
      </trkpt>
      <trkpt lat="45.4225" lon="5.56702">
        <ele>520</ele>
        <time>2011-08-04T09:27:13Z</time>
      </trkpt>
      <trkpt lat="45.42255" lon="5.56704">
        <ele>519</ele>
        <time>2011-08-04T09:27:15Z</time>
      </trkpt>
      <trkpt lat="45.42261" lon="5.56707">
        <ele>519</ele>
        <time>2011-08-04T09:27:17Z</time>
      </trkpt>
      <trkpt lat="45.42265" lon="5.5671">
        <ele>517</ele>
        <time>2011-08-04T09:27:19Z</time>
      </trkpt>
      <trkpt lat="45.4227" lon="5.56711">
        <ele>516</ele>
        <time>2011-08-04T09:27:21Z</time>
      </trkpt>
      <trkpt lat="45.42276" lon="5.56712">
        <ele>516</ele>
        <time>2011-08-04T09:27:23Z</time>
      </trkpt>
      <trkpt lat="45.42283" lon="5.56713">
        <ele>515</ele>
        <time>2011-08-04T09:27:25Z</time>
      </trkpt>
      <trkpt lat="45.4229" lon="5.56716">
        <ele>515</ele>
        <time>2011-08-04T09:27:27Z</time>
      </trkpt>
      <trkpt lat="45.42296" lon="5.56718">
        <ele>515</ele>
        <time>2011-08-04T09:27:29Z</time>
      </trkpt>
      <trkpt lat="45.42303" lon="5.5672">
        <ele>514</ele>
        <time>2011-08-04T09:27:31Z</time>
      </trkpt>
      <trkpt lat="45.4231" lon="5.56721">
        <ele>514</ele>
        <time>2011-08-04T09:27:33Z</time>
      </trkpt>
      <trkpt lat="45.42317" lon="5.56722">
        <ele>513</ele>
        <time>2011-08-04T09:27:35Z</time>
      </trkpt>
      <trkpt lat="45.42323" lon="5.56723">
        <ele>513</ele>
        <time>2011-08-04T09:27:37Z</time>
      </trkpt>
      <trkpt lat="45.4233" lon="5.56724">
        <ele>513</ele>
        <time>2011-08-04T09:27:39Z</time>
      </trkpt>
      <trkpt lat="45.42336" lon="5.56726">
        <ele>513</ele>
        <time>2011-08-04T09:27:41Z</time>
      </trkpt>
      <trkpt lat="45.42342" lon="5.56728">
        <ele>513</ele>
        <time>2011-08-04T09:27:43Z</time>
      </trkpt>
      <trkpt lat="45.42349" lon="5.56731">
        <ele>513</ele>
        <time>2011-08-04T09:27:45Z</time>
      </trkpt>
      <trkpt lat="45.42355" lon="5.56734">
        <ele>513</ele>
        <time>2011-08-04T09:27:47Z</time>
      </trkpt>
      <trkpt lat="45.42362" lon="5.56737">
        <ele>514</ele>
        <time>2011-08-04T09:27:49Z</time>
      </trkpt>
      <trkpt lat="45.42367" lon="5.5674">
        <ele>514</ele>
        <time>2011-08-04T09:27:51Z</time>
      </trkpt>
      <trkpt lat="45.42373" lon="5.56743">
        <ele>514</ele>
        <time>2011-08-04T09:27:53Z</time>
      </trkpt>
      <trkpt lat="45.42378" lon="5.56746">
        <ele>514</ele>
        <time>2011-08-04T09:27:55Z</time>
      </trkpt>
      <trkpt lat="45.42384" lon="5.56749">
        <ele>514</ele>
        <time>2011-08-04T09:27:57Z</time>
      </trkpt>
      <trkpt lat="45.4239" lon="5.56753">
        <ele>514</ele>
        <time>2011-08-04T09:27:59Z</time>
      </trkpt>
      <trkpt lat="45.42396" lon="5.56757">
        <ele>514</ele>
        <time>2011-08-04T09:28:01Z</time>
      </trkpt>
      <trkpt lat="45.42402" lon="5.56761">
        <ele>514</ele>
        <time>2011-08-04T09:28:03Z</time>
      </trkpt>
      <trkpt lat="45.42408" lon="5.56763">
        <ele>514</ele>
        <time>2011-08-04T09:28:05Z</time>
      </trkpt>
      <trkpt lat="45.42415" lon="5.56768">
        <ele>515</ele>
        <time>2011-08-04T09:28:07Z</time>
      </trkpt>
      <trkpt lat="45.42421" lon="5.5677">
        <ele>516</ele>
        <time>2011-08-04T09:28:09Z</time>
      </trkpt>
      <trkpt lat="45.42427" lon="5.56773">
        <ele>517</ele>
        <time>2011-08-04T09:28:11Z</time>
      </trkpt>
      <trkpt lat="45.42432" lon="5.56778">
        <ele>518</ele>
        <time>2011-08-04T09:28:13Z</time>
      </trkpt>
      <trkpt lat="45.42437" lon="5.56783">
        <ele>518</ele>
        <time>2011-08-04T09:28:15Z</time>
      </trkpt>
      <trkpt lat="45.42442" lon="5.5679">
        <ele>519</ele>
        <time>2011-08-04T09:28:17Z</time>
      </trkpt>
      <trkpt lat="45.42447" lon="5.56796">
        <ele>519</ele>
        <time>2011-08-04T09:28:19Z</time>
      </trkpt>
      <trkpt lat="45.42452" lon="5.56804">
        <ele>519</ele>
        <time>2011-08-04T09:28:21Z</time>
      </trkpt>
      <trkpt lat="45.42457" lon="5.56811">
        <ele>519</ele>
        <time>2011-08-04T09:28:23Z</time>
      </trkpt>
      <trkpt lat="45.42463" lon="5.56818">
        <ele>518</ele>
        <time>2011-08-04T09:28:25Z</time>
      </trkpt>
      <trkpt lat="45.42467" lon="5.56826">
        <ele>518</ele>
        <time>2011-08-04T09:28:27Z</time>
      </trkpt>
      <trkpt lat="45.42472" lon="5.56831">
        <ele>518</ele>
        <time>2011-08-04T09:28:29Z</time>
      </trkpt>
      <trkpt lat="45.42478" lon="5.56836">
        <ele>519</ele>
        <time>2011-08-04T09:28:31Z</time>
      </trkpt>
      <trkpt lat="45.42482" lon="5.56844">
        <ele>519</ele>
        <time>2011-08-04T09:28:33Z</time>
      </trkpt>
      <trkpt lat="45.42487" lon="5.56851">
        <ele>519</ele>
        <time>2011-08-04T09:28:35Z</time>
      </trkpt>
      <trkpt lat="45.42491" lon="5.56861">
        <ele>518</ele>
        <time>2011-08-04T09:28:37Z</time>
      </trkpt>
      <trkpt lat="45.42495" lon="5.56869">
        <ele>518</ele>
        <time>2011-08-04T09:28:39Z</time>
      </trkpt>
      <trkpt lat="45.425" lon="5.56878">
        <ele>517</ele>
        <time>2011-08-04T09:28:41Z</time>
      </trkpt>
      <trkpt lat="45.42503" lon="5.56886">
        <ele>517</ele>
        <time>2011-08-04T09:28:43Z</time>
      </trkpt>
      <trkpt lat="45.42506" lon="5.56894">
        <ele>517</ele>
        <time>2011-08-04T09:28:45Z</time>
      </trkpt>
      <trkpt lat="45.4251" lon="5.56902">
        <ele>517</ele>
        <time>2011-08-04T09:28:47Z</time>
      </trkpt>
      <trkpt lat="45.42514" lon="5.56911">
        <ele>517</ele>
        <time>2011-08-04T09:28:49Z</time>
      </trkpt>
      <trkpt lat="45.42517" lon="5.56919">
        <ele>517</ele>
        <time>2011-08-04T09:28:51Z</time>
      </trkpt>
      <trkpt lat="45.42519" lon="5.56927">
        <ele>517</ele>
        <time>2011-08-04T09:28:53Z</time>
      </trkpt>
      <trkpt lat="45.42522" lon="5.56939">
        <ele>518</ele>
        <time>2011-08-04T09:28:56Z</time>
      </trkpt>
      <trkpt lat="45.42524" lon="5.56947">
        <ele>518</ele>
        <time>2011-08-04T09:28:58Z</time>
      </trkpt>
      <trkpt lat="45.42526" lon="5.56955">
        <ele>517</ele>
        <time>2011-08-04T09:29:00Z</time>
      </trkpt>
      <trkpt lat="45.42528" lon="5.56962">
        <ele>517</ele>
        <time>2011-08-04T09:29:02Z</time>
      </trkpt>
      <trkpt lat="45.42534" lon="5.56967">
        <ele>519</ele>
        <time>2011-08-04T09:29:04Z</time>
      </trkpt>
      <trkpt lat="45.42539" lon="5.56972">
        <ele>520</ele>
        <time>2011-08-04T09:29:06Z</time>
      </trkpt>
      <trkpt lat="45.42544" lon="5.56977">
        <ele>520</ele>
        <time>2011-08-04T09:29:08Z</time>
      </trkpt>
      <trkpt lat="45.42548" lon="5.56979">
        <ele>519</ele>
        <time>2011-08-04T09:29:10Z</time>
      </trkpt>
      <trkpt lat="45.42554" lon="5.5698">
        <ele>517</ele>
        <time>2011-08-04T09:29:13Z</time>
      </trkpt>
      <trkpt lat="45.4256" lon="5.56981">
        <ele>516</ele>
        <time>2011-08-04T09:29:15Z</time>
      </trkpt>
      <trkpt lat="45.42567" lon="5.5698">
        <ele>516</ele>
        <time>2011-08-04T09:29:17Z</time>
      </trkpt>
      <trkpt lat="45.42574" lon="5.5698">
        <ele>515</ele>
        <time>2011-08-04T09:29:19Z</time>
      </trkpt>
      <trkpt lat="45.42581" lon="5.5698">
        <ele>515</ele>
        <time>2011-08-04T09:29:21Z</time>
      </trkpt>
      <trkpt lat="45.42588" lon="5.56981">
        <ele>514</ele>
        <time>2011-08-04T09:29:23Z</time>
      </trkpt>
      <trkpt lat="45.42594" lon="5.56981">
        <ele>515</ele>
        <time>2011-08-04T09:29:25Z</time>
      </trkpt>
      <trkpt lat="45.426" lon="5.56981">
        <ele>515</ele>
        <time>2011-08-04T09:29:27Z</time>
      </trkpt>
      <trkpt lat="45.42607" lon="5.56982">
        <ele>514</ele>
        <time>2011-08-04T09:29:29Z</time>
      </trkpt>
      <trkpt lat="45.42613" lon="5.56983">
        <ele>514</ele>
        <time>2011-08-04T09:29:31Z</time>
      </trkpt>
      <trkpt lat="45.42619" lon="5.56983">
        <ele>515</ele>
        <time>2011-08-04T09:29:33Z</time>
      </trkpt>
      <trkpt lat="45.42625" lon="5.56983">
        <ele>514</ele>
        <time>2011-08-04T09:29:35Z</time>
      </trkpt>
      <trkpt lat="45.42632" lon="5.56983">
        <ele>515</ele>
        <time>2011-08-04T09:29:37Z</time>
      </trkpt>
      <trkpt lat="45.42637" lon="5.56984">
        <ele>515</ele>
        <time>2011-08-04T09:29:39Z</time>
      </trkpt>
      <trkpt lat="45.42643" lon="5.56985">
        <ele>515</ele>
        <time>2011-08-04T09:29:41Z</time>
      </trkpt>
      <trkpt lat="45.42649" lon="5.56986">
        <ele>515</ele>
        <time>2011-08-04T09:29:43Z</time>
      </trkpt>
      <trkpt lat="45.42655" lon="5.56987">
        <ele>514</ele>
        <time>2011-08-04T09:29:45Z</time>
      </trkpt>
      <trkpt lat="45.42661" lon="5.56989">
        <ele>514</ele>
        <time>2011-08-04T09:29:47Z</time>
      </trkpt>
      <trkpt lat="45.42668" lon="5.56991">
        <ele>513</ele>
        <time>2011-08-04T09:29:49Z</time>
      </trkpt>
      <trkpt lat="45.42674" lon="5.56992">
        <ele>514</ele>
        <time>2011-08-04T09:29:51Z</time>
      </trkpt>
      <trkpt lat="45.4268" lon="5.56994">
        <ele>513</ele>
        <time>2011-08-04T09:29:53Z</time>
      </trkpt>
      <trkpt lat="45.4269" lon="5.56998">
        <ele>513</ele>
        <time>2011-08-04T09:29:56Z</time>
      </trkpt>
      <trkpt lat="45.42696" lon="5.57001">
        <ele>513</ele>
        <time>2011-08-04T09:29:58Z</time>
      </trkpt>
      <trkpt lat="45.42702" lon="5.57004">
        <ele>513</ele>
        <time>2011-08-04T09:30:00Z</time>
      </trkpt>
      <trkpt lat="45.42708" lon="5.57007">
        <ele>513</ele>
        <time>2011-08-04T09:30:02Z</time>
      </trkpt>
      <trkpt lat="45.42714" lon="5.5701">
        <ele>513</ele>
        <time>2011-08-04T09:30:04Z</time>
      </trkpt>
      <trkpt lat="45.4272" lon="5.57013">
        <ele>513</ele>
        <time>2011-08-04T09:30:06Z</time>
      </trkpt>
      <trkpt lat="45.42726" lon="5.57016">
        <ele>514</ele>
        <time>2011-08-04T09:30:08Z</time>
      </trkpt>
      <trkpt lat="45.42732" lon="5.5702">
        <ele>514</ele>
        <time>2011-08-04T09:30:10Z</time>
      </trkpt>
      <trkpt lat="45.42738" lon="5.57024">
        <ele>514</ele>
        <time>2011-08-04T09:30:12Z</time>
      </trkpt>
      <trkpt lat="45.42744" lon="5.57026">
        <ele>514</ele>
        <time>2011-08-04T09:30:14Z</time>
      </trkpt>
      <trkpt lat="45.42749" lon="5.57029">
        <ele>514</ele>
        <time>2011-08-04T09:30:16Z</time>
      </trkpt>
      <trkpt lat="45.42754" lon="5.57032">
        <ele>514</ele>
        <time>2011-08-04T09:30:18Z</time>
      </trkpt>
      <trkpt lat="45.42759" lon="5.57035">
        <ele>514</ele>
        <time>2011-08-04T09:30:20Z</time>
      </trkpt>
      <trkpt lat="45.42764" lon="5.57038">
        <ele>514</ele>
        <time>2011-08-04T09:30:22Z</time>
      </trkpt>
      <trkpt lat="45.4277" lon="5.57042">
        <ele>514</ele>
        <time>2011-08-04T09:30:24Z</time>
      </trkpt>
      <trkpt lat="45.42776" lon="5.57046">
        <ele>514</ele>
        <time>2011-08-04T09:30:26Z</time>
      </trkpt>
      <trkpt lat="45.42782" lon="5.5705">
        <ele>514</ele>
        <time>2011-08-04T09:30:28Z</time>
      </trkpt>
      <trkpt lat="45.42788" lon="5.57054">
        <ele>515</ele>
        <time>2011-08-04T09:30:30Z</time>
      </trkpt>
      <trkpt lat="45.42795" lon="5.57057">
        <ele>515</ele>
        <time>2011-08-04T09:30:32Z</time>
      </trkpt>
      <trkpt lat="45.42801" lon="5.5706">
        <ele>515</ele>
        <time>2011-08-04T09:30:34Z</time>
      </trkpt>
      <trkpt lat="45.42807" lon="5.57064">
        <ele>515</ele>
        <time>2011-08-04T09:30:36Z</time>
      </trkpt>
      <trkpt lat="45.42813" lon="5.57066">
        <ele>515</ele>
        <time>2011-08-04T09:30:38Z</time>
      </trkpt>
      <trkpt lat="45.42819" lon="5.5707">
        <ele>515</ele>
        <time>2011-08-04T09:30:40Z</time>
      </trkpt>
      <trkpt lat="45.42824" lon="5.57074">
        <ele>515</ele>
        <time>2011-08-04T09:30:42Z</time>
      </trkpt>
      <trkpt lat="45.4283" lon="5.57076">
        <ele>515</ele>
        <time>2011-08-04T09:30:44Z</time>
      </trkpt>
      <trkpt lat="45.42834" lon="5.5708">
        <ele>515</ele>
        <time>2011-08-04T09:30:46Z</time>
      </trkpt>
      <trkpt lat="45.42839" lon="5.57081">
        <ele>514</ele>
        <time>2011-08-04T09:30:48Z</time>
      </trkpt>
      <trkpt lat="45.42843" lon="5.57087">
        <ele>515</ele>
        <time>2011-08-04T09:30:54Z</time>
      </trkpt>
      <trkpt lat="45.42848" lon="5.57089">
        <ele>515</ele>
        <time>2011-08-04T09:30:58Z</time>
      </trkpt>
      <trkpt lat="45.42853" lon="5.5709">
        <ele>514</ele>
        <time>2011-08-04T09:31:02Z</time>
      </trkpt>
      <trkpt lat="45.42858" lon="5.57094">
        <ele>515</ele>
        <time>2011-08-04T09:31:06Z</time>
      </trkpt>
      <trkpt lat="45.42862" lon="5.57096">
        <ele>514</ele>
        <time>2011-08-04T09:31:09Z</time>
      </trkpt>
      <trkpt lat="45.42867" lon="5.57099">
        <ele>514</ele>
        <time>2011-08-04T09:31:13Z</time>
      </trkpt>
      <trkpt lat="45.42872" lon="5.57101">
        <ele>514</ele>
        <time>2011-08-04T09:31:17Z</time>
      </trkpt>
      <trkpt lat="45.42878" lon="5.57103">
        <ele>514</ele>
        <time>2011-08-04T09:31:21Z</time>
      </trkpt>
      <trkpt lat="45.42883" lon="5.57107">
        <ele>515</ele>
        <time>2011-08-04T09:31:25Z</time>
      </trkpt>
      <trkpt lat="45.42883" lon="5.57114">
        <ele>514</ele>
        <time>2011-08-04T09:31:29Z</time>
      </trkpt>
      <trkpt lat="45.4288" lon="5.5712">
        <ele>514</ele>
        <time>2011-08-04T09:31:33Z</time>
      </trkpt>
      <trkpt lat="45.42878" lon="5.57126">
        <ele>515</ele>
        <time>2011-08-04T09:31:38Z</time>
      </trkpt>
      <trkpt lat="45.42874" lon="5.57131">
        <ele>515</ele>
        <time>2011-08-04T09:31:43Z</time>
      </trkpt>
      <trkpt lat="45.4287" lon="5.57135">
        <ele>515</ele>
        <time>2011-08-04T09:31:48Z</time>
      </trkpt>
      <trkpt lat="45.42866" lon="5.57141">
        <ele>515</ele>
        <time>2011-08-04T09:31:52Z</time>
      </trkpt>
      <trkpt lat="45.42862" lon="5.57145">
        <ele>515</ele>
        <time>2011-08-04T09:31:55Z</time>
      </trkpt>
      <trkpt lat="45.42862" lon="5.57145">
        <ele>515</ele>
        <time>2011-08-04T09:31:55Z</time>
      </trkpt>
      <trkpt lat="45.42862" lon="5.57145">
        <ele>515</ele>
        <time>2011-08-04T09:31:56Z</time>
      </trkpt>
      <trkpt lat="45.42858" lon="5.5715">
        <ele>515</ele>
        <time>2011-08-04T09:32:01Z</time>
      </trkpt>
      <trkpt lat="45.42855" lon="5.57155">
        <ele>516</ele>
        <time>2011-08-04T09:32:05Z</time>
      </trkpt>
      <trkpt lat="45.42852" lon="5.57162">
        <ele>519</ele>
        <time>2011-08-04T09:32:10Z</time>
      </trkpt>
      <trkpt lat="45.4285" lon="5.57168">
        <ele>519</ele>
        <time>2011-08-04T09:32:27Z</time>
      </trkpt>
      <trkpt lat="45.42846" lon="5.57172">
        <ele>519</ele>
        <time>2011-08-04T09:32:33Z</time>
      </trkpt>
      <trkpt lat="45.42842" lon="5.57177">
        <ele>519</ele>
        <time>2011-08-04T09:32:37Z</time>
      </trkpt>
      <trkpt lat="45.42838" lon="5.57181">
        <ele>519</ele>
        <time>2011-08-04T09:32:41Z</time>
      </trkpt>
      <trkpt lat="45.42834" lon="5.57186">
        <ele>519</ele>
        <time>2011-08-04T09:32:45Z</time>
      </trkpt>
      <trkpt lat="45.4283" lon="5.57191">
        <ele>520</ele>
        <time>2011-08-04T09:32:50Z</time>
      </trkpt>
      <trkpt lat="45.42826" lon="5.57197">
        <ele>521</ele>
        <time>2011-08-04T09:32:54Z</time>
      </trkpt>
      <trkpt lat="45.42822" lon="5.572">
        <ele>521</ele>
        <time>2011-08-04T09:32:58Z</time>
      </trkpt>
      <trkpt lat="45.42819" lon="5.57205">
        <ele>521</ele>
        <time>2011-08-04T09:33:02Z</time>
      </trkpt>
      <trkpt lat="45.42815" lon="5.57208">
        <ele>520</ele>
        <time>2011-08-04T09:33:05Z</time>
      </trkpt>
      <trkpt lat="45.42811" lon="5.57213">
        <ele>520</ele>
        <time>2011-08-04T09:33:10Z</time>
      </trkpt>
      <trkpt lat="45.42806" lon="5.57218">
        <ele>519</ele>
        <time>2011-08-04T09:33:14Z</time>
      </trkpt>
      <trkpt lat="45.42802" lon="5.57221">
        <ele>519</ele>
        <time>2011-08-04T09:33:18Z</time>
      </trkpt>
      <trkpt lat="45.42796" lon="5.57222">
        <ele>520</ele>
        <time>2011-08-04T09:33:23Z</time>
      </trkpt>
      <trkpt lat="45.4279" lon="5.57222">
        <ele>520</ele>
        <time>2011-08-04T09:33:27Z</time>
      </trkpt>
      <trkpt lat="45.42784" lon="5.57221">
        <ele>519</ele>
        <time>2011-08-04T09:33:31Z</time>
      </trkpt>
      <trkpt lat="45.42779" lon="5.5722">
        <ele>520</ele>
        <time>2011-08-04T09:33:35Z</time>
      </trkpt>
      <trkpt lat="45.42774" lon="5.57218">
        <ele>520</ele>
        <time>2011-08-04T09:33:39Z</time>
      </trkpt>
      <trkpt lat="45.42769" lon="5.57215">
        <ele>521</ele>
        <time>2011-08-04T09:33:43Z</time>
      </trkpt>
      <trkpt lat="45.42765" lon="5.57215">
        <ele>521</ele>
        <time>2011-08-04T09:33:47Z</time>
      </trkpt>
      <trkpt lat="45.4276" lon="5.57216">
        <ele>521</ele>
        <time>2011-08-04T09:33:52Z</time>
      </trkpt>
      <trkpt lat="45.42755" lon="5.5722">
        <ele>523</ele>
        <time>2011-08-04T09:34:07Z</time>
      </trkpt>
      <trkpt lat="45.42752" lon="5.57226">
        <ele>523</ele>
        <time>2011-08-04T09:34:11Z</time>
      </trkpt>
      <trkpt lat="45.42749" lon="5.57232">
        <ele>524</ele>
        <time>2011-08-04T09:34:15Z</time>
      </trkpt>
      <trkpt lat="45.42745" lon="5.57236">
        <ele>524</ele>
        <time>2011-08-04T09:34:19Z</time>
      </trkpt>
      <trkpt lat="45.42741" lon="5.57242">
        <ele>524</ele>
        <time>2011-08-04T09:34:23Z</time>
      </trkpt>
      <trkpt lat="45.42737" lon="5.57246">
        <ele>525</ele>
        <time>2011-08-04T09:34:27Z</time>
      </trkpt>
      <trkpt lat="45.42732" lon="5.57248">
        <ele>526</ele>
        <time>2011-08-04T09:34:31Z</time>
      </trkpt>
      <trkpt lat="45.42728" lon="5.57248">
        <ele>526</ele>
        <time>2011-08-04T09:34:35Z</time>
      </trkpt>
      <trkpt lat="45.42723" lon="5.57251">
        <ele>526</ele>
        <time>2011-08-04T09:34:41Z</time>
      </trkpt>
      <trkpt lat="45.42719" lon="5.57254">
        <ele>526</ele>
        <time>2011-08-04T09:34:57Z</time>
      </trkpt>
      <trkpt lat="45.42715" lon="5.57257">
        <ele>525</ele>
        <time>2011-08-04T09:35:01Z</time>
      </trkpt>
      <trkpt lat="45.4271" lon="5.5726">
        <ele>525</ele>
        <time>2011-08-04T09:35:05Z</time>
      </trkpt>
      <trkpt lat="45.42706" lon="5.57262">
        <ele>525</ele>
        <time>2011-08-04T09:35:09Z</time>
      </trkpt>
      <trkpt lat="45.42702" lon="5.57266">
        <ele>526</ele>
        <time>2011-08-04T09:35:13Z</time>
      </trkpt>
      <trkpt lat="45.42699" lon="5.5727">
        <ele>527</ele>
        <time>2011-08-04T09:35:17Z</time>
      </trkpt>
      <trkpt lat="45.42694" lon="5.57268">
        <ele>528</ele>
        <time>2011-08-04T09:35:45Z</time>
      </trkpt>
      <trkpt lat="45.42689" lon="5.57265">
        <ele>528</ele>
        <time>2011-08-04T09:35:50Z</time>
      </trkpt>
      <trkpt lat="45.42684" lon="5.57267">
        <ele>529</ele>
        <time>2011-08-04T09:35:53Z</time>
      </trkpt>
      <trkpt lat="45.42678" lon="5.57268">
        <ele>529</ele>
        <time>2011-08-04T09:35:57Z</time>
      </trkpt>
      <trkpt lat="45.42672" lon="5.57268">
        <ele>530</ele>
        <time>2011-08-04T09:36:00Z</time>
      </trkpt>
      <trkpt lat="45.42666" lon="5.57268">
        <ele>531</ele>
        <time>2011-08-04T09:36:05Z</time>
      </trkpt>
      <trkpt lat="45.42662" lon="5.57268">
        <ele>531</ele>
        <time>2011-08-04T09:36:09Z</time>
      </trkpt>
      <trkpt lat="45.42657" lon="5.57263">
        <ele>532</ele>
        <time>2011-08-04T09:36:13Z</time>
      </trkpt>
      <trkpt lat="45.42652" lon="5.57264">
        <ele>533</ele>
        <time>2011-08-04T09:36:21Z</time>
      </trkpt>
      <trkpt lat="45.42647" lon="5.57262">
        <ele>533</ele>
        <time>2011-08-04T09:36:26Z</time>
      </trkpt>
      <trkpt lat="45.42643" lon="5.57257">
        <ele>533</ele>
        <time>2011-08-04T09:36:29Z</time>
      </trkpt>
      <trkpt lat="45.42641" lon="5.57251">
        <ele>535</ele>
        <time>2011-08-04T09:36:34Z</time>
      </trkpt>
      <trkpt lat="45.42637" lon="5.57246">
        <ele>536</ele>
        <time>2011-08-04T09:36:36Z</time>
      </trkpt>
      <trkpt lat="45.42633" lon="5.57243">
        <ele>538</ele>
        <time>2011-08-04T09:36:40Z</time>
      </trkpt>
      <trkpt lat="45.42628" lon="5.5724">
        <ele>538</ele>
        <time>2011-08-04T09:36:43Z</time>
      </trkpt>
      <trkpt lat="45.42624" lon="5.57235">
        <ele>542</ele>
        <time>2011-08-04T09:36:48Z</time>
      </trkpt>
      <trkpt lat="45.42618" lon="5.57234">
        <ele>541</ele>
        <time>2011-08-04T09:36:53Z</time>
      </trkpt>
      <trkpt lat="45.42613" lon="5.57233">
        <ele>540</ele>
        <time>2011-08-04T09:36:59Z</time>
      </trkpt>
      <trkpt lat="45.42608" lon="5.57236">
        <ele>543</ele>
        <time>2011-08-04T09:37:04Z</time>
      </trkpt>
      <trkpt lat="45.42605" lon="5.57242">
        <ele>543</ele>
        <time>2011-08-04T09:37:08Z</time>
      </trkpt>
      <trkpt lat="45.426" lon="5.57246">
        <ele>543</ele>
        <time>2011-08-04T09:37:12Z</time>
      </trkpt>
      <trkpt lat="45.42596" lon="5.57248">
        <ele>544</ele>
        <time>2011-08-04T09:37:16Z</time>
      </trkpt>
      <trkpt lat="45.42591" lon="5.57251">
        <ele>544</ele>
        <time>2011-08-04T09:37:20Z</time>
      </trkpt>
      <trkpt lat="45.42589" lon="5.57257">
        <ele>544</ele>
        <time>2011-08-04T09:37:25Z</time>
      </trkpt>
      <trkpt lat="45.42584" lon="5.5726">
        <ele>545</ele>
        <time>2011-08-04T09:37:30Z</time>
      </trkpt>
      <trkpt lat="45.42582" lon="5.57266">
        <ele>547</ele>
        <time>2011-08-04T09:37:34Z</time>
      </trkpt>
      <trkpt lat="45.42577" lon="5.57269">
        <ele>548</ele>
        <time>2011-08-04T09:37:39Z</time>
      </trkpt>
      <trkpt lat="45.42572" lon="5.57272">
        <ele>549</ele>
        <time>2011-08-04T09:37:45Z</time>
      </trkpt>
      <trkpt lat="45.42569" lon="5.57276">
        <ele>553</ele>
        <time>2011-08-04T09:37:48Z</time>
      </trkpt>
      <trkpt lat="45.42563" lon="5.57277">
        <ele>551</ele>
        <time>2011-08-04T09:37:52Z</time>
      </trkpt>
      <trkpt lat="45.42559" lon="5.5728">
        <ele>551</ele>
        <time>2011-08-04T09:37:54Z</time>
      </trkpt>
      <trkpt lat="45.42555" lon="5.57285">
        <ele>554</ele>
        <time>2011-08-04T09:38:00Z</time>
      </trkpt>
      <trkpt lat="45.4255" lon="5.57288">
        <ele>555</ele>
        <time>2011-08-04T09:38:05Z</time>
      </trkpt>
      <trkpt lat="45.42546" lon="5.57292">
        <ele>556</ele>
        <time>2011-08-04T09:38:09Z</time>
      </trkpt>
      <trkpt lat="45.42541" lon="5.57295">
        <ele>560</ele>
        <time>2011-08-04T09:38:16Z</time>
      </trkpt>
      <trkpt lat="45.42537" lon="5.57298">
        <ele>562</ele>
        <time>2011-08-04T09:38:20Z</time>
      </trkpt>
      <trkpt lat="45.42532" lon="5.57302">
        <ele>562</ele>
        <time>2011-08-04T09:38:25Z</time>
      </trkpt>
      <trkpt lat="45.42527" lon="5.57306">
        <ele>564</ele>
        <time>2011-08-04T09:38:31Z</time>
      </trkpt>
      <trkpt lat="45.42521" lon="5.57306">
        <ele>564</ele>
        <time>2011-08-04T09:38:36Z</time>
      </trkpt>
      <trkpt lat="45.42518" lon="5.5731">
        <ele>565</ele>
        <time>2011-08-04T09:38:41Z</time>
      </trkpt>
      <trkpt lat="45.42512" lon="5.57317">
        <ele>567</ele>
        <time>2011-08-04T09:38:49Z</time>
      </trkpt>
      <trkpt lat="45.42509" lon="5.57323">
        <ele>565</ele>
        <time>2011-08-04T09:38:53Z</time>
      </trkpt>
      <trkpt lat="45.42506" lon="5.57326">
        <ele>566</ele>
        <time>2011-08-04T09:38:56Z</time>
      </trkpt>
      <trkpt lat="45.42501" lon="5.5733">
        <ele>567</ele>
        <time>2011-08-04T09:39:06Z</time>
      </trkpt>
      <trkpt lat="45.42497" lon="5.57333">
        <ele>567</ele>
        <time>2011-08-04T09:39:08Z</time>
      </trkpt>
      <trkpt lat="45.42493" lon="5.57338">
        <ele>568</ele>
        <time>2011-08-04T09:39:11Z</time>
      </trkpt>
      <trkpt lat="45.42492" lon="5.57344">
        <ele>569</ele>
        <time>2011-08-04T09:39:16Z</time>
      </trkpt>
      <trkpt lat="45.42488" lon="5.57351">
        <ele>571</ele>
        <time>2011-08-04T09:39:21Z</time>
      </trkpt>
      <trkpt lat="45.42487" lon="5.57358">
        <ele>572</ele>
        <time>2011-08-04T09:39:26Z</time>
      </trkpt>
      <trkpt lat="45.42486" lon="5.57365">
        <ele>574</ele>
        <time>2011-08-04T09:39:32Z</time>
      </trkpt>
      <trkpt lat="45.42487" lon="5.5737">
        <ele>573</ele>
        <time>2011-08-04T09:39:37Z</time>
      </trkpt>
      <trkpt lat="45.42493" lon="5.57372">
        <ele>576</ele>
        <time>2011-08-04T09:39:43Z</time>
      </trkpt>
      <trkpt lat="45.42498" lon="5.57369">
        <ele>578</ele>
        <time>2011-08-04T09:39:48Z</time>
      </trkpt>
      <trkpt lat="45.42502" lon="5.57364">
        <ele>577</ele>
        <time>2011-08-04T09:39:54Z</time>
      </trkpt>
      <trkpt lat="45.42506" lon="5.57359">
        <ele>579</ele>
        <time>2011-08-04T09:39:59Z</time>
      </trkpt>
      <trkpt lat="45.4251" lon="5.57354">
        <ele>580</ele>
        <time>2011-08-04T09:40:04Z</time>
      </trkpt>
      <trkpt lat="45.42515" lon="5.57353">
        <ele>581</ele>
        <time>2011-08-04T09:40:09Z</time>
      </trkpt>
      <trkpt lat="45.42519" lon="5.57354">
        <ele>581</ele>
        <time>2011-08-04T09:40:13Z</time>
      </trkpt>
      <trkpt lat="45.42524" lon="5.57356">
        <ele>581</ele>
        <time>2011-08-04T09:40:18Z</time>
      </trkpt>
      <trkpt lat="45.42528" lon="5.57358">
        <ele>581</ele>
        <time>2011-08-04T09:40:22Z</time>
      </trkpt>
      <trkpt lat="45.42533" lon="5.57359">
        <ele>582</ele>
        <time>2011-08-04T09:40:26Z</time>
      </trkpt>
      <trkpt lat="45.42537" lon="5.57361">
        <ele>582</ele>
        <time>2011-08-04T09:40:30Z</time>
      </trkpt>
      <trkpt lat="45.42542" lon="5.57363">
        <ele>584</ele>
        <time>2011-08-04T09:40:35Z</time>
      </trkpt>
      <trkpt lat="45.42547" lon="5.57364">
        <ele>587</ele>
        <time>2011-08-04T09:40:40Z</time>
      </trkpt>
      <trkpt lat="45.42552" lon="5.57365">
        <ele>589</ele>
        <time>2011-08-04T09:40:44Z</time>
      </trkpt>
      <trkpt lat="45.42557" lon="5.57367">
        <ele>588</ele>
        <time>2011-08-04T09:40:48Z</time>
      </trkpt>
      <trkpt lat="45.42561" lon="5.5737">
        <ele>588</ele>
        <time>2011-08-04T09:40:53Z</time>
      </trkpt>
      <trkpt lat="45.42567" lon="5.57372">
        <ele>588</ele>
        <time>2011-08-04T09:40:58Z</time>
      </trkpt>
      <trkpt lat="45.42572" lon="5.57372">
        <ele>588</ele>
        <time>2011-08-04T09:41:03Z</time>
      </trkpt>
      <trkpt lat="45.42577" lon="5.57374">
        <ele>588</ele>
        <time>2011-08-04T09:41:22Z</time>
      </trkpt>
      <trkpt lat="45.42584" lon="5.57372">
        <ele>588</ele>
        <time>2011-08-04T09:41:26Z</time>
      </trkpt>
      <trkpt lat="45.42589" lon="5.57372">
        <ele>589</ele>
        <time>2011-08-04T09:41:31Z</time>
      </trkpt>
      <trkpt lat="45.42592" lon="5.57378">
        <ele>587</ele>
        <time>2011-08-04T09:41:35Z</time>
      </trkpt>
      <trkpt lat="45.4259" lon="5.57384">
        <ele>586</ele>
        <time>2011-08-04T09:41:38Z</time>
      </trkpt>
      <trkpt lat="45.42586" lon="5.5739">
        <ele>586</ele>
        <time>2011-08-04T09:41:42Z</time>
      </trkpt>
      <trkpt lat="45.42581" lon="5.57391">
        <ele>588</ele>
        <time>2011-08-04T09:41:48Z</time>
      </trkpt>
      <trkpt lat="45.42576" lon="5.57394">
        <ele>589</ele>
        <time>2011-08-04T09:41:54Z</time>
      </trkpt>
      <trkpt lat="45.42572" lon="5.57398">
        <ele>590</ele>
        <time>2011-08-04T09:41:59Z</time>
      </trkpt>
      <trkpt lat="45.42571" lon="5.57405">
        <ele>592</ele>
        <time>2011-08-04T09:42:05Z</time>
      </trkpt>
      <trkpt lat="45.42572" lon="5.57412">
        <ele>593</ele>
        <time>2011-08-04T09:42:09Z</time>
      </trkpt>
      <trkpt lat="45.42574" lon="5.57419">
        <ele>593</ele>
        <time>2011-08-04T09:42:14Z</time>
      </trkpt>
      <trkpt lat="45.42576" lon="5.57426">
        <ele>595</ele>
        <time>2011-08-04T09:42:19Z</time>
      </trkpt>
      <trkpt lat="45.42577" lon="5.57433">
        <ele>596</ele>
        <time>2011-08-04T09:42:23Z</time>
      </trkpt>
      <trkpt lat="45.4258" lon="5.5744">
        <ele>597</ele>
        <time>2011-08-04T09:42:28Z</time>
      </trkpt>
      <trkpt lat="45.42582" lon="5.57446">
        <ele>598</ele>
        <time>2011-08-04T09:42:32Z</time>
      </trkpt>
      <trkpt lat="45.42584" lon="5.57452">
        <ele>599</ele>
        <time>2011-08-04T09:42:37Z</time>
      </trkpt>
      <trkpt lat="45.42585" lon="5.57458">
        <ele>599</ele>
        <time>2011-08-04T09:42:42Z</time>
      </trkpt>
      <trkpt lat="45.42588" lon="5.57465">
        <ele>600</ele>
        <time>2011-08-04T09:42:47Z</time>
      </trkpt>
      <trkpt lat="45.4259" lon="5.57472">
        <ele>601</ele>
        <time>2011-08-04T09:42:57Z</time>
      </trkpt>
      <trkpt lat="45.42592" lon="5.57479">
        <ele>601</ele>
        <time>2011-08-04T09:43:01Z</time>
      </trkpt>
      <trkpt lat="45.42592" lon="5.57486">
        <ele>601</ele>
        <time>2011-08-04T09:43:05Z</time>
      </trkpt>
      <trkpt lat="45.42593" lon="5.57493">
        <ele>602</ele>
        <time>2011-08-04T09:43:09Z</time>
      </trkpt>
      <trkpt lat="45.42592" lon="5.57501">
        <ele>602</ele>
        <time>2011-08-04T09:43:13Z</time>
      </trkpt>
      <trkpt lat="45.4259" lon="5.57507">
        <ele>602</ele>
        <time>2011-08-04T09:43:17Z</time>
      </trkpt>
      <trkpt lat="45.42588" lon="5.57513">
        <ele>602</ele>
        <time>2011-08-04T09:43:21Z</time>
      </trkpt>
      <trkpt lat="45.42584" lon="5.5752">
        <ele>602</ele>
        <time>2011-08-04T09:43:25Z</time>
      </trkpt>
      <trkpt lat="45.42582" lon="5.57527">
        <ele>602</ele>
        <time>2011-08-04T09:43:30Z</time>
      </trkpt>
      <trkpt lat="45.42578" lon="5.57532">
        <ele>603</ele>
        <time>2011-08-04T09:43:34Z</time>
      </trkpt>
      <trkpt lat="45.42574" lon="5.57534">
        <ele>604</ele>
        <time>2011-08-04T09:43:38Z</time>
      </trkpt>
      <trkpt lat="45.42569" lon="5.57531">
        <ele>604</ele>
        <time>2011-08-04T09:43:43Z</time>
      </trkpt>
      <trkpt lat="45.42564" lon="5.57529">
        <ele>604</ele>
        <time>2011-08-04T09:43:47Z</time>
      </trkpt>
      <trkpt lat="45.42558" lon="5.57527">
        <ele>604</ele>
        <time>2011-08-04T09:43:51Z</time>
      </trkpt>
      <trkpt lat="45.42553" lon="5.57526">
        <ele>605</ele>
        <time>2011-08-04T09:43:56Z</time>
      </trkpt>
      <trkpt lat="45.42547" lon="5.57527">
        <ele>605</ele>
        <time>2011-08-04T09:44:01Z</time>
      </trkpt>
      <trkpt lat="45.42544" lon="5.5753">
        <ele>606</ele>
        <time>2011-08-04T09:44:05Z</time>
      </trkpt>
      <trkpt lat="45.42539" lon="5.57534">
        <ele>608</ele>
        <time>2011-08-04T09:44:09Z</time>
      </trkpt>
      <trkpt lat="45.42534" lon="5.57538">
        <ele>609</ele>
        <time>2011-08-04T09:44:14Z</time>
      </trkpt>
      <trkpt lat="45.42531" lon="5.57543">
        <ele>609</ele>
        <time>2011-08-04T09:44:18Z</time>
      </trkpt>
      <trkpt lat="45.42526" lon="5.57546">
        <ele>610</ele>
        <time>2011-08-04T09:44:24Z</time>
      </trkpt>
      <trkpt lat="45.42521" lon="5.57549">
        <ele>611</ele>
        <time>2011-08-04T09:44:28Z</time>
      </trkpt>
      <trkpt lat="45.42516" lon="5.5755">
        <ele>609</ele>
        <time>2011-08-04T09:44:32Z</time>
      </trkpt>
      <trkpt lat="45.42512" lon="5.57552">
        <ele>609</ele>
        <time>2011-08-04T09:44:36Z</time>
      </trkpt>
      <trkpt lat="45.42509" lon="5.57559">
        <ele>610</ele>
        <time>2011-08-04T09:44:39Z</time>
      </trkpt>
      <trkpt lat="45.42504" lon="5.57562">
        <ele>612</ele>
        <time>2011-08-04T09:44:43Z</time>
      </trkpt>
      <trkpt lat="45.425" lon="5.57565">
        <ele>616</ele>
        <time>2011-08-04T09:44:50Z</time>
      </trkpt>
      <trkpt lat="45.42496" lon="5.5757">
        <ele>616</ele>
        <time>2011-08-04T09:44:56Z</time>
      </trkpt>
      <trkpt lat="45.42495" lon="5.57576">
        <ele>616</ele>
        <time>2011-08-04T09:45:00Z</time>
      </trkpt>
      <trkpt lat="45.42495" lon="5.57583">
        <ele>616</ele>
        <time>2011-08-04T09:45:04Z</time>
      </trkpt>
      <trkpt lat="45.42493" lon="5.57592">
        <ele>617</ele>
        <time>2011-08-04T09:45:08Z</time>
      </trkpt>
      <trkpt lat="45.4249" lon="5.576">
        <ele>617</ele>
        <time>2011-08-04T09:45:11Z</time>
      </trkpt>
      <trkpt lat="45.42489" lon="5.57609">
        <ele>617</ele>
        <time>2011-08-04T09:45:14Z</time>
      </trkpt>
      <trkpt lat="45.42487" lon="5.57616">
        <ele>618</ele>
        <time>2011-08-04T09:45:17Z</time>
      </trkpt>
      <trkpt lat="45.42487" lon="5.57623">
        <ele>619</ele>
        <time>2011-08-04T09:45:22Z</time>
      </trkpt>
      <trkpt lat="45.42485" lon="5.57631">
        <ele>620</ele>
        <time>2011-08-04T09:45:27Z</time>
      </trkpt>
      <trkpt lat="45.42484" lon="5.57638">
        <ele>620</ele>
        <time>2011-08-04T09:45:32Z</time>
      </trkpt>
      <trkpt lat="45.42482" lon="5.57646">
        <ele>621</ele>
        <time>2011-08-04T09:45:37Z</time>
      </trkpt>
      <trkpt lat="45.42482" lon="5.57652">
        <ele>622</ele>
        <time>2011-08-04T09:45:41Z</time>
      </trkpt>
      <trkpt lat="45.42481" lon="5.57659">
        <ele>623</ele>
        <time>2011-08-04T09:45:46Z</time>
      </trkpt>
      <trkpt lat="45.4248" lon="5.57665">
        <ele>622</ele>
        <time>2011-08-04T09:45:52Z</time>
      </trkpt>
      <trkpt lat="45.42478" lon="5.57672">
        <ele>623</ele>
        <time>2011-08-04T09:45:57Z</time>
      </trkpt>
      <trkpt lat="45.42477" lon="5.5768">
        <ele>623</ele>
        <time>2011-08-04T09:46:02Z</time>
      </trkpt>
      <trkpt lat="45.42475" lon="5.57686">
        <ele>622</ele>
        <time>2011-08-04T09:46:09Z</time>
      </trkpt>
      <trkpt lat="45.42475" lon="5.57693">
        <ele>621</ele>
        <time>2011-08-04T09:46:13Z</time>
      </trkpt>
      <trkpt lat="45.42475" lon="5.57701">
        <ele>621</ele>
        <time>2011-08-04T09:46:16Z</time>
      </trkpt>
      <trkpt lat="45.42474" lon="5.57708">
        <ele>623</ele>
        <time>2011-08-04T09:46:20Z</time>
      </trkpt>
      <trkpt lat="45.42473" lon="5.57714">
        <ele>623</ele>
        <time>2011-08-04T09:46:24Z</time>
      </trkpt>
      <trkpt lat="45.42474" lon="5.57722">
        <ele>626</ele>
        <time>2011-08-04T09:46:28Z</time>
      </trkpt>
      <trkpt lat="45.42472" lon="5.5773">
        <ele>626</ele>
        <time>2011-08-04T09:46:33Z</time>
      </trkpt>
      <trkpt lat="45.42472" lon="5.57737">
        <ele>629</ele>
        <time>2011-08-04T09:46:38Z</time>
      </trkpt>
      <trkpt lat="45.4247" lon="5.57744">
        <ele>629</ele>
        <time>2011-08-04T09:46:43Z</time>
      </trkpt>
      <trkpt lat="45.42468" lon="5.57751">
        <ele>629</ele>
        <time>2011-08-04T09:46:48Z</time>
      </trkpt>
      <trkpt lat="45.42467" lon="5.57758">
        <ele>630</ele>
        <time>2011-08-04T09:46:54Z</time>
      </trkpt>
      <trkpt lat="45.42465" lon="5.57766">
        <ele>630</ele>
        <time>2011-08-04T09:47:00Z</time>
      </trkpt>
      <trkpt lat="45.42462" lon="5.57772">
        <ele>628</ele>
        <time>2011-08-04T09:47:05Z</time>
      </trkpt>
      <trkpt lat="45.42459" lon="5.57778">
        <ele>629</ele>
        <time>2011-08-04T09:47:10Z</time>
      </trkpt>
      <trkpt lat="45.42458" lon="5.57786">
        <ele>632</ele>
        <time>2011-08-04T09:47:14Z</time>
      </trkpt>
      <trkpt lat="45.42457" lon="5.57793">
        <ele>634</ele>
        <time>2011-08-04T09:47:18Z</time>
      </trkpt>
      <trkpt lat="45.42455" lon="5.578">
        <ele>635</ele>
        <time>2011-08-04T09:47:23Z</time>
      </trkpt>
      <trkpt lat="45.42453" lon="5.57807">
        <ele>636</ele>
        <time>2011-08-04T09:47:28Z</time>
      </trkpt>
      <trkpt lat="45.42452" lon="5.57815">
        <ele>637</ele>
        <time>2011-08-04T09:47:33Z</time>
      </trkpt>
      <trkpt lat="45.4245" lon="5.57822">
        <ele>638</ele>
        <time>2011-08-04T09:47:38Z</time>
      </trkpt>
      <trkpt lat="45.4245" lon="5.5783">
        <ele>638</ele>
        <time>2011-08-04T09:47:43Z</time>
      </trkpt>
      <trkpt lat="45.42449" lon="5.57837">
        <ele>638</ele>
        <time>2011-08-04T09:47:48Z</time>
      </trkpt>
      <trkpt lat="45.42449" lon="5.57844">
        <ele>638</ele>
        <time>2011-08-04T09:48:03Z</time>
      </trkpt>
      <trkpt lat="45.42449" lon="5.57851">
        <ele>640</ele>
        <time>2011-08-04T09:48:07Z</time>
      </trkpt>
      <trkpt lat="45.42451" lon="5.57858">
        <ele>642</ele>
        <time>2011-08-04T09:48:12Z</time>
      </trkpt>
      <trkpt lat="45.42451" lon="5.57866">
        <ele>642</ele>
        <time>2011-08-04T09:48:17Z</time>
      </trkpt>
      <trkpt lat="45.42451" lon="5.57873">
        <ele>643</ele>
        <time>2011-08-04T09:48:21Z</time>
      </trkpt>
      <trkpt lat="45.42451" lon="5.5788">
        <ele>644</ele>
        <time>2011-08-04T09:48:25Z</time>
      </trkpt>
      <trkpt lat="45.42447" lon="5.57882">
        <ele>644</ele>
        <time>2011-08-04T09:48:30Z</time>
      </trkpt>
      <trkpt lat="45.42444" lon="5.57877">
        <ele>643</ele>
        <time>2011-08-04T09:48:34Z</time>
      </trkpt>
      <trkpt lat="45.4244" lon="5.57873">
        <ele>644</ele>
        <time>2011-08-04T09:48:45Z</time>
      </trkpt>
      <trkpt lat="45.42443" lon="5.57879">
        <ele>644</ele>
        <time>2011-08-04T09:49:05Z</time>
      </trkpt>
      <trkpt lat="45.42446" lon="5.57884">
        <ele>645</ele>
        <time>2011-08-04T09:49:08Z</time>
      </trkpt>
      <trkpt lat="45.42451" lon="5.5789">
        <ele>647</ele>
        <time>2011-08-04T09:49:12Z</time>
      </trkpt>
      <trkpt lat="45.42452" lon="5.57896">
        <ele>648</ele>
        <time>2011-08-04T09:49:16Z</time>
      </trkpt>
      <trkpt lat="45.42453" lon="5.57903">
        <ele>647</ele>
        <time>2011-08-04T09:49:20Z</time>
      </trkpt>
      <trkpt lat="45.42452" lon="5.57909">
        <ele>647</ele>
        <time>2011-08-04T09:49:24Z</time>
      </trkpt>
      <trkpt lat="45.42453" lon="5.57916">
        <ele>648</ele>
        <time>2011-08-04T09:49:29Z</time>
      </trkpt>
      <trkpt lat="45.42453" lon="5.57924">
        <ele>649</ele>
        <time>2011-08-04T09:49:34Z</time>
      </trkpt>
      <trkpt lat="45.42454" lon="5.5793">
        <ele>650</ele>
        <time>2011-08-04T09:49:38Z</time>
      </trkpt>
      <trkpt lat="45.42455" lon="5.57936">
        <ele>651</ele>
        <time>2011-08-04T09:49:42Z</time>
      </trkpt>
      <trkpt lat="45.42454" lon="5.57944">
        <ele>651</ele>
        <time>2011-08-04T09:49:47Z</time>
      </trkpt>
      <trkpt lat="45.42453" lon="5.5795">
        <ele>652</ele>
        <time>2011-08-04T09:49:51Z</time>
      </trkpt>
      <trkpt lat="45.42452" lon="5.57958">
        <ele>653</ele>
        <time>2011-08-04T09:49:56Z</time>
      </trkpt>
      <trkpt lat="45.42452" lon="5.57965">
        <ele>653</ele>
        <time>2011-08-04T09:50:00Z</time>
      </trkpt>
      <trkpt lat="45.42451" lon="5.57972">
        <ele>653</ele>
        <time>2011-08-04T09:50:04Z</time>
      </trkpt>
      <trkpt lat="45.4245" lon="5.57978">
        <ele>653</ele>
        <time>2011-08-04T09:50:08Z</time>
      </trkpt>
      <trkpt lat="45.42449" lon="5.57985">
        <ele>653</ele>
        <time>2011-08-04T09:50:12Z</time>
      </trkpt>
      <trkpt lat="45.42449" lon="5.57993">
        <ele>654</ele>
        <time>2011-08-04T09:50:17Z</time>
      </trkpt>
      <trkpt lat="45.42448" lon="5.57999">
        <ele>654</ele>
        <time>2011-08-04T09:50:21Z</time>
      </trkpt>
      <trkpt lat="45.42448" lon="5.58006">
        <ele>654</ele>
        <time>2011-08-04T09:50:25Z</time>
      </trkpt>
      <trkpt lat="45.42448" lon="5.58014">
        <ele>655</ele>
        <time>2011-08-04T09:50:33Z</time>
      </trkpt>
      <trkpt lat="45.42448" lon="5.58021">
        <ele>655</ele>
        <time>2011-08-04T09:50:37Z</time>
      </trkpt>
      <trkpt lat="45.42448" lon="5.58028">
        <ele>656</ele>
        <time>2011-08-04T09:50:42Z</time>
      </trkpt>
      <trkpt lat="45.4245" lon="5.58035">
        <ele>656</ele>
        <time>2011-08-04T09:50:47Z</time>
      </trkpt>
      <trkpt lat="45.42452" lon="5.58041">
        <ele>656</ele>
        <time>2011-08-04T09:50:52Z</time>
      </trkpt>
      <trkpt lat="45.42456" lon="5.58045">
        <ele>656</ele>
        <time>2011-08-04T09:50:57Z</time>
      </trkpt>
      <trkpt lat="45.42459" lon="5.5805">
        <ele>656</ele>
        <time>2011-08-04T09:51:00Z</time>
      </trkpt>
      <trkpt lat="45.42461" lon="5.58057">
        <ele>658</ele>
        <time>2011-08-04T09:51:06Z</time>
      </trkpt>
      <trkpt lat="45.42464" lon="5.58062">
        <ele>658</ele>
        <time>2011-08-04T09:51:10Z</time>
      </trkpt>
      <trkpt lat="45.42466" lon="5.58069">
        <ele>660</ele>
        <time>2011-08-04T09:51:15Z</time>
      </trkpt>
      <trkpt lat="45.42467" lon="5.58075">
        <ele>662</ele>
        <time>2011-08-04T09:51:19Z</time>
      </trkpt>
      <trkpt lat="45.42468" lon="5.58082">
        <ele>662</ele>
        <time>2011-08-04T09:51:23Z</time>
      </trkpt>
      <trkpt lat="45.42468" lon="5.58089">
        <ele>663</ele>
        <time>2011-08-04T09:51:27Z</time>
      </trkpt>
      <trkpt lat="45.42467" lon="5.58096">
        <ele>664</ele>
        <time>2011-08-04T09:51:31Z</time>
      </trkpt>
      <trkpt lat="45.42465" lon="5.58104">
        <ele>664</ele>
        <time>2011-08-04T09:51:36Z</time>
      </trkpt>
      <trkpt lat="45.42464" lon="5.58111">
        <ele>664</ele>
        <time>2011-08-04T09:51:41Z</time>
      </trkpt>
      <trkpt lat="45.42463" lon="5.58117">
        <ele>666</ele>
        <time>2011-08-04T09:51:47Z</time>
      </trkpt>
      <trkpt lat="45.42462" lon="5.58124">
        <ele>667</ele>
        <time>2011-08-04T09:51:51Z</time>
      </trkpt>
      <trkpt lat="45.42459" lon="5.58131">
        <ele>668</ele>
        <time>2011-08-04T09:51:56Z</time>
      </trkpt>
      <trkpt lat="45.42454" lon="5.58135">
        <ele>670</ele>
        <time>2011-08-04T09:51:59Z</time>
      </trkpt>
      <trkpt lat="45.42451" lon="5.5814">
        <ele>672</ele>
        <time>2011-08-04T09:52:03Z</time>
      </trkpt>
      <trkpt lat="45.42448" lon="5.58144">
        <ele>671</ele>
        <time>2011-08-04T09:52:08Z</time>
      </trkpt>
      <trkpt lat="45.42444" lon="5.58149">
        <ele>673</ele>
        <time>2011-08-04T09:52:12Z</time>
      </trkpt>
      <trkpt lat="45.4244" lon="5.58154">
        <ele>675</ele>
        <time>2011-08-04T09:52:16Z</time>
      </trkpt>
      <trkpt lat="45.42435" lon="5.58156">
        <ele>677</ele>
        <time>2011-08-04T09:52:19Z</time>
      </trkpt>
      <trkpt lat="45.42429" lon="5.58158">
        <ele>677</ele>
        <time>2011-08-04T09:52:23Z</time>
      </trkpt>
      <trkpt lat="45.42426" lon="5.58163">
        <ele>676</ele>
        <time>2011-08-04T09:52:26Z</time>
      </trkpt>
      <trkpt lat="45.42422" lon="5.58169">
        <ele>677</ele>
        <time>2011-08-04T09:52:28Z</time>
      </trkpt>
      <trkpt lat="45.4242" lon="5.58174">
        <ele>678</ele>
        <time>2011-08-04T09:52:33Z</time>
      </trkpt>
      <trkpt lat="45.42416" lon="5.58178">
        <ele>682</ele>
        <time>2011-08-04T09:52:40Z</time>
      </trkpt>
      <trkpt lat="45.4241" lon="5.58182">
        <ele>682</ele>
        <time>2011-08-04T09:52:44Z</time>
      </trkpt>
      <trkpt lat="45.42404" lon="5.58185">
        <ele>681</ele>
        <time>2011-08-04T09:52:49Z</time>
      </trkpt>
      <trkpt lat="45.42399" lon="5.58188">
        <ele>681</ele>
        <time>2011-08-04T09:52:52Z</time>
      </trkpt>
      <trkpt lat="45.42396" lon="5.58192">
        <ele>684</ele>
        <time>2011-08-04T09:52:56Z</time>
      </trkpt>
      <trkpt lat="45.4239" lon="5.58193">
        <ele>686</ele>
        <time>2011-08-04T09:53:00Z</time>
      </trkpt>
      <trkpt lat="45.42387" lon="5.58198">
        <ele>687</ele>
        <time>2011-08-04T09:53:06Z</time>
      </trkpt>
      <trkpt lat="45.42382" lon="5.58199">
        <ele>688</ele>
        <time>2011-08-04T09:53:14Z</time>
      </trkpt>
      <trkpt lat="45.42377" lon="5.58201">
        <ele>688</ele>
        <time>2011-08-04T09:53:21Z</time>
      </trkpt>
      <trkpt lat="45.42372" lon="5.58199">
        <ele>689</ele>
        <time>2011-08-04T09:53:25Z</time>
      </trkpt>
      <trkpt lat="45.42366" lon="5.582">
        <ele>690</ele>
        <time>2011-08-04T09:53:28Z</time>
      </trkpt>
      <trkpt lat="45.42361" lon="5.58201">
        <ele>691</ele>
        <time>2011-08-04T09:53:32Z</time>
      </trkpt>
      <trkpt lat="45.42356" lon="5.58201">
        <ele>692</ele>
        <time>2011-08-04T09:53:37Z</time>
      </trkpt>
      <trkpt lat="45.42353" lon="5.58206">
        <ele>693</ele>
        <time>2011-08-04T09:53:40Z</time>
      </trkpt>
      <trkpt lat="45.42348" lon="5.58206">
        <ele>694</ele>
        <time>2011-08-04T09:53:43Z</time>
      </trkpt>
      <trkpt lat="45.42344" lon="5.58211">
        <ele>697</ele>
        <time>2011-08-04T09:53:57Z</time>
      </trkpt>
      <trkpt lat="45.42341" lon="5.58215">
        <ele>699</ele>
        <time>2011-08-04T09:53:59Z</time>
      </trkpt>
      <trkpt lat="45.42337" lon="5.58219">
        <ele>703</ele>
        <time>2011-08-04T09:54:07Z</time>
      </trkpt>
      <trkpt lat="45.42332" lon="5.58225">
        <ele>704</ele>
        <time>2011-08-04T09:54:14Z</time>
      </trkpt>
      <trkpt lat="45.42326" lon="5.58228">
        <ele>707</ele>
        <time>2011-08-04T09:54:19Z</time>
      </trkpt>
      <trkpt lat="45.42319" lon="5.58228">
        <ele>708</ele>
        <time>2011-08-04T09:54:21Z</time>
      </trkpt>
      <trkpt lat="45.42314" lon="5.58232">
        <ele>711</ele>
        <time>2011-08-04T09:54:23Z</time>
      </trkpt>
      <trkpt lat="45.42311" lon="5.58236">
        <ele>711</ele>
        <time>2011-08-04T09:54:28Z</time>
      </trkpt>
      <trkpt lat="45.4231" lon="5.58244">
        <ele>714</ele>
        <time>2011-08-04T09:54:37Z</time>
      </trkpt>
      <trkpt lat="45.42305" lon="5.58246">
        <ele>717</ele>
        <time>2011-08-04T09:55:09Z</time>
      </trkpt>
      <trkpt lat="45.42305" lon="5.58246">
        <ele>717</ele>
        <time>2011-08-04T09:55:09Z</time>
      </trkpt>
      <trkpt lat="45.42305" lon="5.58246">
        <ele>718</ele>
        <time>2011-08-04T09:55:11Z</time>
      </trkpt>
      <trkpt lat="45.42304" lon="5.5824">
        <ele>721</ele>
        <time>2011-08-04T09:55:24Z</time>
      </trkpt>
      <trkpt lat="45.42304" lon="5.5824">
        <ele>721</ele>
        <time>2011-08-04T09:55:24Z</time>
      </trkpt>
      <trkpt lat="45.42304" lon="5.5824">
        <ele>721</ele>
        <time>2011-08-04T09:55:25Z</time>
      </trkpt>
      <trkpt lat="45.42309" lon="5.58241">
        <ele>720</ele>
        <time>2011-08-04T09:55:30Z</time>
      </trkpt>
      <trkpt lat="45.42312" lon="5.58235">
        <ele>719</ele>
        <time>2011-08-04T09:55:35Z</time>
      </trkpt>
      <trkpt lat="45.42318" lon="5.58236">
        <ele>721</ele>
        <time>2011-08-04T09:55:40Z</time>
      </trkpt>
      <trkpt lat="45.42323" lon="5.58234">
        <ele>721</ele>
        <time>2011-08-04T09:55:44Z</time>
      </trkpt>
      <trkpt lat="45.42328" lon="5.58233">
        <ele>722</ele>
        <time>2011-08-04T09:55:48Z</time>
      </trkpt>
      <trkpt lat="45.42333" lon="5.58235">
        <ele>721</ele>
        <time>2011-08-04T09:55:51Z</time>
      </trkpt>
      <trkpt lat="45.42337" lon="5.58236">
        <ele>721</ele>
        <time>2011-08-04T09:55:54Z</time>
      </trkpt>
      <trkpt lat="45.42341" lon="5.5824">
        <ele>720</ele>
        <time>2011-08-04T09:55:58Z</time>
      </trkpt>
      <trkpt lat="45.42347" lon="5.58242">
        <ele>719</ele>
        <time>2011-08-04T09:56:03Z</time>
      </trkpt>
      <trkpt lat="45.42353" lon="5.58243">
        <ele>718</ele>
        <time>2011-08-04T09:56:08Z</time>
      </trkpt>
      <trkpt lat="45.42357" lon="5.58245">
        <ele>716</ele>
        <time>2011-08-04T09:56:12Z</time>
      </trkpt>
      <trkpt lat="45.42362" lon="5.58249">
        <ele>716</ele>
        <time>2011-08-04T09:56:17Z</time>
      </trkpt>
      <trkpt lat="45.42366" lon="5.58254">
        <ele>715</ele>
        <time>2011-08-04T09:56:21Z</time>
      </trkpt>
      <trkpt lat="45.4237" lon="5.58257">
        <ele>715</ele>
        <time>2011-08-04T09:56:25Z</time>
      </trkpt>
      <trkpt lat="45.42374" lon="5.58262">
        <ele>714</ele>
        <time>2011-08-04T09:56:29Z</time>
      </trkpt>
      <trkpt lat="45.42378" lon="5.58267">
        <ele>712</ele>
        <time>2011-08-04T09:56:32Z</time>
      </trkpt>
      <trkpt lat="45.4238" lon="5.58272">
        <ele>711</ele>
        <time>2011-08-04T09:56:36Z</time>
      </trkpt>
      <trkpt lat="45.42384" lon="5.58276">
        <ele>712</ele>
        <time>2011-08-04T09:56:40Z</time>
      </trkpt>
      <trkpt lat="45.42387" lon="5.58283">
        <ele>712</ele>
        <time>2011-08-04T09:56:43Z</time>
      </trkpt>
      <trkpt lat="45.42392" lon="5.58288">
        <ele>710</ele>
        <time>2011-08-04T09:56:46Z</time>
      </trkpt>
      <trkpt lat="45.42396" lon="5.58295">
        <ele>708</ele>
        <time>2011-08-04T09:56:48Z</time>
      </trkpt>
      <trkpt lat="45.424" lon="5.58301">
        <ele>707</ele>
        <time>2011-08-04T09:56:51Z</time>
      </trkpt>
      <trkpt lat="45.42402" lon="5.58307">
        <ele>706</ele>
        <time>2011-08-04T09:56:55Z</time>
      </trkpt>
      <trkpt lat="45.42402" lon="5.58314">
        <ele>705</ele>
        <time>2011-08-04T09:56:59Z</time>
      </trkpt>
      <trkpt lat="45.42404" lon="5.58321">
        <ele>704</ele>
        <time>2011-08-04T09:57:02Z</time>
      </trkpt>
      <trkpt lat="45.42405" lon="5.58328">
        <ele>703</ele>
        <time>2011-08-04T09:57:06Z</time>
      </trkpt>
      <trkpt lat="45.42406" lon="5.58333">
        <ele>703</ele>
        <time>2011-08-04T09:57:10Z</time>
      </trkpt>
      <trkpt lat="45.42406" lon="5.5834">
        <ele>704</ele>
        <time>2011-08-04T09:57:14Z</time>
      </trkpt>
      <trkpt lat="45.42408" lon="5.58346">
        <ele>706</ele>
        <time>2011-08-04T09:57:18Z</time>
      </trkpt>
      <trkpt lat="45.4241" lon="5.58354">
        <ele>705</ele>
        <time>2011-08-04T09:57:22Z</time>
      </trkpt>
      <trkpt lat="45.4241" lon="5.5836">
        <ele>704</ele>
        <time>2011-08-04T09:57:25Z</time>
      </trkpt>
      <trkpt lat="45.42412" lon="5.58367">
        <ele>704</ele>
        <time>2011-08-04T09:57:29Z</time>
      </trkpt>
      <trkpt lat="45.42412" lon="5.58374">
        <ele>704</ele>
        <time>2011-08-04T09:57:33Z</time>
      </trkpt>
      <trkpt lat="45.42413" lon="5.58381">
        <ele>704</ele>
        <time>2011-08-04T09:57:37Z</time>
      </trkpt>
      <trkpt lat="45.42414" lon="5.58388">
        <ele>706</ele>
        <time>2011-08-04T09:57:41Z</time>
      </trkpt>
      <trkpt lat="45.42415" lon="5.58394">
        <ele>706</ele>
        <time>2011-08-04T09:57:44Z</time>
      </trkpt>
      <trkpt lat="45.42415" lon="5.58402">
        <ele>707</ele>
        <time>2011-08-04T09:57:48Z</time>
      </trkpt>
      <trkpt lat="45.42418" lon="5.5841">
        <ele>706</ele>
        <time>2011-08-04T09:57:52Z</time>
      </trkpt>
      <trkpt lat="45.42412" lon="5.58414">
        <ele>707</ele>
        <time>2011-08-04T09:57:56Z</time>
      </trkpt>
      <trkpt lat="45.42418" lon="5.58418">
        <ele>708</ele>
        <time>2011-08-04T09:57:57Z</time>
      </trkpt>
      <trkpt lat="45.42413" lon="5.58422">
        <ele>709</ele>
        <time>2011-08-04T09:58:00Z</time>
      </trkpt>
      <trkpt lat="45.42409" lon="5.58428">
        <ele>709</ele>
        <time>2011-08-04T09:58:04Z</time>
      </trkpt>
      <trkpt lat="45.42408" lon="5.58435">
        <ele>709</ele>
        <time>2011-08-04T09:58:09Z</time>
      </trkpt>
      <trkpt lat="45.42412" lon="5.5844">
        <ele>709</ele>
        <time>2011-08-04T09:58:11Z</time>
      </trkpt>
      <trkpt lat="45.42412" lon="5.58446">
        <ele>708</ele>
        <time>2011-08-04T09:58:15Z</time>
      </trkpt>
      <trkpt lat="45.42414" lon="5.58452">
        <ele>707</ele>
        <time>2011-08-04T09:58:18Z</time>
      </trkpt>
      <trkpt lat="45.42413" lon="5.5846">
        <ele>707</ele>
        <time>2011-08-04T09:58:22Z</time>
      </trkpt>
      <trkpt lat="45.42417" lon="5.58464">
        <ele>706</ele>
        <time>2011-08-04T09:58:25Z</time>
      </trkpt>
      <trkpt lat="45.42422" lon="5.58468">
        <ele>710</ele>
        <time>2011-08-04T09:58:29Z</time>
      </trkpt>
      <trkpt lat="45.42425" lon="5.58473">
        <ele>711</ele>
        <time>2011-08-04T09:58:35Z</time>
      </trkpt>
      <trkpt lat="45.42427" lon="5.5848">
        <ele>712</ele>
        <time>2011-08-04T09:58:39Z</time>
      </trkpt>
      <trkpt lat="45.4243" lon="5.58486">
        <ele>713</ele>
        <time>2011-08-04T09:58:44Z</time>
      </trkpt>
      <trkpt lat="45.42432" lon="5.58492">
        <ele>714</ele>
        <time>2011-08-04T09:58:48Z</time>
      </trkpt>
      <trkpt lat="45.42434" lon="5.58499">
        <ele>714</ele>
        <time>2011-08-04T09:58:53Z</time>
      </trkpt>
      <trkpt lat="45.42435" lon="5.58506">
        <ele>714</ele>
        <time>2011-08-04T09:58:58Z</time>
      </trkpt>
      <trkpt lat="45.42437" lon="5.58512">
        <ele>714</ele>
        <time>2011-08-04T09:59:05Z</time>
      </trkpt>
      <trkpt lat="45.42437" lon="5.58518">
        <ele>715</ele>
        <time>2011-08-04T09:59:10Z</time>
      </trkpt>
      <trkpt lat="45.42438" lon="5.58524">
        <ele>715</ele>
        <time>2011-08-04T09:59:14Z</time>
      </trkpt>
      <trkpt lat="45.42441" lon="5.58533">
        <ele>716</ele>
        <time>2011-08-04T09:59:18Z</time>
      </trkpt>
      <trkpt lat="45.42444" lon="5.58539">
        <ele>718</ele>
        <time>2011-08-04T09:59:23Z</time>
      </trkpt>
      <trkpt lat="45.42446" lon="5.58545">
        <ele>719</ele>
        <time>2011-08-04T09:59:27Z</time>
      </trkpt>
      <trkpt lat="45.42447" lon="5.58552">
        <ele>720</ele>
        <time>2011-08-04T09:59:31Z</time>
      </trkpt>
      <trkpt lat="45.42449" lon="5.58558">
        <ele>720</ele>
        <time>2011-08-04T09:59:35Z</time>
      </trkpt>
      <trkpt lat="45.4245" lon="5.58564">
        <ele>721</ele>
        <time>2011-08-04T09:59:40Z</time>
      </trkpt>
      <trkpt lat="45.42452" lon="5.58569">
        <ele>723</ele>
        <time>2011-08-04T09:59:44Z</time>
      </trkpt>
      <trkpt lat="45.42452" lon="5.58577">
        <ele>723</ele>
        <time>2011-08-04T09:59:48Z</time>
      </trkpt>
      <trkpt lat="45.42453" lon="5.58584">
        <ele>722</ele>
        <time>2011-08-04T10:00:09Z</time>
      </trkpt>
      <trkpt lat="45.42448" lon="5.58582">
        <ele>723</ele>
        <time>2011-08-04T10:00:25Z</time>
      </trkpt>
      <trkpt lat="45.42443" lon="5.5858">
        <ele>724</ele>
        <time>2011-08-04T10:00:30Z</time>
      </trkpt>
      <trkpt lat="45.42438" lon="5.58576">
        <ele>725</ele>
        <time>2011-08-04T10:00:35Z</time>
      </trkpt>
      <trkpt lat="45.42434" lon="5.58573">
        <ele>726</ele>
        <time>2011-08-04T10:00:40Z</time>
      </trkpt>
      <trkpt lat="45.42431" lon="5.58567">
        <ele>727</ele>
        <time>2011-08-04T10:00:45Z</time>
      </trkpt>
      <trkpt lat="45.42428" lon="5.58564">
        <ele>727</ele>
        <time>2011-08-04T10:00:50Z</time>
      </trkpt>
      <trkpt lat="45.42423" lon="5.58561">
        <ele>727</ele>
        <time>2011-08-04T10:00:54Z</time>
      </trkpt>
      <trkpt lat="45.4242" lon="5.58556">
        <ele>729</ele>
        <time>2011-08-04T10:00:59Z</time>
      </trkpt>
      <trkpt lat="45.42416" lon="5.58551">
        <ele>732</ele>
        <time>2011-08-04T10:01:04Z</time>
      </trkpt>
      <trkpt lat="45.42412" lon="5.58547">
        <ele>737</ele>
        <time>2011-08-04T10:01:11Z</time>
      </trkpt>
      <trkpt lat="45.42407" lon="5.58544">
        <ele>739</ele>
        <time>2011-08-04T10:01:15Z</time>
      </trkpt>
      <trkpt lat="45.42403" lon="5.58539">
        <ele>740</ele>
        <time>2011-08-04T10:01:19Z</time>
      </trkpt>
      <trkpt lat="45.42399" lon="5.58536">
        <ele>740</ele>
        <time>2011-08-04T10:01:26Z</time>
      </trkpt>
      <trkpt lat="45.42391" lon="5.58535">
        <ele>742</ele>
        <time>2011-08-04T10:01:32Z</time>
      </trkpt>
      <trkpt lat="45.42385" lon="5.58532">
        <ele>743</ele>
        <time>2011-08-04T10:01:36Z</time>
      </trkpt>
      <trkpt lat="45.42381" lon="5.58528">
        <ele>739</ele>
        <time>2011-08-04T10:01:40Z</time>
      </trkpt>
      <trkpt lat="45.42378" lon="5.58522">
        <ele>739</ele>
        <time>2011-08-04T10:01:46Z</time>
      </trkpt>
      <trkpt lat="45.42373" lon="5.58522">
        <ele>739</ele>
        <time>2011-08-04T10:01:50Z</time>
      </trkpt>
      <trkpt lat="45.42368" lon="5.58519">
        <ele>739</ele>
        <time>2011-08-04T10:01:57Z</time>
      </trkpt>
      <trkpt lat="45.42363" lon="5.58518">
        <ele>742</ele>
        <time>2011-08-04T10:02:03Z</time>
      </trkpt>
      <trkpt lat="45.42357" lon="5.58517">
        <ele>744</ele>
        <time>2011-08-04T10:02:13Z</time>
      </trkpt>
      <trkpt lat="45.42353" lon="5.58517">
        <ele>747</ele>
        <time>2011-08-04T10:02:17Z</time>
      </trkpt>
      <trkpt lat="45.42347" lon="5.58515">
        <ele>747</ele>
        <time>2011-08-04T10:02:19Z</time>
      </trkpt>
      <trkpt lat="45.42343" lon="5.58513">
        <ele>747</ele>
        <time>2011-08-04T10:02:24Z</time>
      </trkpt>
      <trkpt lat="45.42338" lon="5.58509">
        <ele>745</ele>
        <time>2011-08-04T10:02:29Z</time>
      </trkpt>
      <trkpt lat="45.42335" lon="5.58504">
        <ele>745</ele>
        <time>2011-08-04T10:02:34Z</time>
      </trkpt>
      <trkpt lat="45.42333" lon="5.58499">
        <ele>745</ele>
        <time>2011-08-04T10:02:43Z</time>
      </trkpt>
      <trkpt lat="45.42327" lon="5.58495">
        <ele>744</ele>
        <time>2011-08-04T10:02:46Z</time>
      </trkpt>
      <trkpt lat="45.42322" lon="5.58491">
        <ele>743</ele>
        <time>2011-08-04T10:02:52Z</time>
      </trkpt>
      <trkpt lat="45.42318" lon="5.58487">
        <ele>745</ele>
        <time>2011-08-04T10:02:56Z</time>
      </trkpt>
      <trkpt lat="45.42315" lon="5.58481">
        <ele>747</ele>
        <time>2011-08-04T10:03:01Z</time>
      </trkpt>
      <trkpt lat="45.42311" lon="5.58477">
        <ele>750</ele>
        <time>2011-08-04T10:03:07Z</time>
      </trkpt>
      <trkpt lat="45.42305" lon="5.58474">
        <ele>752</ele>
        <time>2011-08-04T10:03:12Z</time>
      </trkpt>
      <trkpt lat="45.423" lon="5.58473">
        <ele>755</ele>
        <time>2011-08-04T10:03:15Z</time>
      </trkpt>
      <trkpt lat="45.42296" lon="5.5847">
        <ele>759</ele>
        <time>2011-08-04T10:03:20Z</time>
      </trkpt>
      <trkpt lat="45.4229" lon="5.58469">
        <ele>759</ele>
        <time>2011-08-04T10:03:25Z</time>
      </trkpt>
      <trkpt lat="45.42286" lon="5.58465">
        <ele>761</ele>
        <time>2011-08-04T10:03:32Z</time>
      </trkpt>
      <trkpt lat="45.42281" lon="5.5846">
        <ele>760</ele>
        <time>2011-08-04T10:03:36Z</time>
      </trkpt>
      <trkpt lat="45.42278" lon="5.58456">
        <ele>763</ele>
        <time>2011-08-04T10:03:41Z</time>
      </trkpt>
      <trkpt lat="45.42272" lon="5.58452">
        <ele>763</ele>
        <time>2011-08-04T10:03:46Z</time>
      </trkpt>
      <trkpt lat="45.42268" lon="5.5845">
        <ele>763</ele>
        <time>2011-08-04T10:03:50Z</time>
      </trkpt>
      <trkpt lat="45.42262" lon="5.58449">
        <ele>764</ele>
        <time>2011-08-04T10:03:57Z</time>
      </trkpt>
      <trkpt lat="45.42256" lon="5.58447">
        <ele>765</ele>
        <time>2011-08-04T10:04:00Z</time>
      </trkpt>
      <trkpt lat="45.42252" lon="5.58447">
        <ele>767</ele>
        <time>2011-08-04T10:04:05Z</time>
      </trkpt>
      <trkpt lat="45.42247" lon="5.58447">
        <ele>768</ele>
        <time>2011-08-04T10:04:09Z</time>
      </trkpt>
      <trkpt lat="45.42243" lon="5.58443">
        <ele>770</ele>
        <time>2011-08-04T10:04:12Z</time>
      </trkpt>
      <trkpt lat="45.42238" lon="5.58442">
        <ele>772</ele>
        <time>2011-08-04T10:04:20Z</time>
      </trkpt>
      <trkpt lat="45.42238" lon="5.58442">
        <ele>772</ele>
        <time>2011-08-04T10:04:20Z</time>
      </trkpt>
      <trkpt lat="45.42238" lon="5.58442">
        <ele>772</ele>
        <time>2011-08-04T10:04:21Z</time>
      </trkpt>
      <trkpt lat="45.42234" lon="5.58442">
        <ele>775</ele>
        <time>2011-08-04T10:04:25Z</time>
      </trkpt>
      <trkpt lat="45.42228" lon="5.58442">
        <ele>775</ele>
        <time>2011-08-04T10:04:29Z</time>
      </trkpt>
      <trkpt lat="45.42223" lon="5.58444">
        <ele>779</ele>
        <time>2011-08-04T10:04:34Z</time>
      </trkpt>
      <trkpt lat="45.42218" lon="5.58447">
        <ele>781</ele>
        <time>2011-08-04T10:04:40Z</time>
      </trkpt>
      <trkpt lat="45.42213" lon="5.58449">
        <ele>782</ele>
        <time>2011-08-04T10:04:44Z</time>
      </trkpt>
      <trkpt lat="45.42213" lon="5.58449">
        <ele>782</ele>
        <time>2011-08-04T10:04:44Z</time>
      </trkpt>
      <trkpt lat="45.42213" lon="5.58449">
        <ele>782</ele>
        <time>2011-08-04T10:04:45Z</time>
      </trkpt>
      <trkpt lat="45.42208" lon="5.58452">
        <ele>784</ele>
        <time>2011-08-04T10:04:49Z</time>
      </trkpt>
      <trkpt lat="45.42203" lon="5.58453">
        <ele>784</ele>
        <time>2011-08-04T10:04:54Z</time>
      </trkpt>
      <trkpt lat="45.42198" lon="5.58452">
        <ele>784</ele>
        <time>2011-08-04T10:04:59Z</time>
      </trkpt>
      <trkpt lat="45.42191" lon="5.58451">
        <ele>783</ele>
        <time>2011-08-04T10:05:03Z</time>
      </trkpt>
      <trkpt lat="45.42186" lon="5.58452">
        <ele>783</ele>
        <time>2011-08-04T10:05:08Z</time>
      </trkpt>
      <trkpt lat="45.42182" lon="5.58458">
        <ele>782</ele>
        <time>2011-08-04T10:05:13Z</time>
      </trkpt>
      <trkpt lat="45.42182" lon="5.58458">
        <ele>782</ele>
        <time>2011-08-04T10:05:13Z</time>
      </trkpt>
      <trkpt lat="45.42182" lon="5.58458">
        <ele>781</ele>
        <time>2011-08-04T10:05:14Z</time>
      </trkpt>
      <trkpt lat="45.42179" lon="5.58464">
        <ele>778</ele>
        <time>2011-08-04T10:05:18Z</time>
      </trkpt>
      <trkpt lat="45.42174" lon="5.58466">
        <ele>779</ele>
        <time>2011-08-04T10:05:21Z</time>
      </trkpt>
      <trkpt lat="45.4217" lon="5.58471">
        <ele>781</ele>
        <time>2011-08-04T10:05:28Z</time>
      </trkpt>
      <trkpt lat="45.42166" lon="5.58475">
        <ele>782</ele>
        <time>2011-08-04T10:05:34Z</time>
      </trkpt>
      <trkpt lat="45.42162" lon="5.58478">
        <ele>782</ele>
        <time>2011-08-04T10:05:40Z</time>
      </trkpt>
      <trkpt lat="45.42158" lon="5.58482">
        <ele>783</ele>
        <time>2011-08-04T10:05:45Z</time>
      </trkpt>
      <trkpt lat="45.42156" lon="5.58488">
        <ele>786</ele>
        <time>2011-08-04T10:05:49Z</time>
      </trkpt>
      <trkpt lat="45.42151" lon="5.58491">
        <ele>788</ele>
        <time>2011-08-04T10:05:54Z</time>
      </trkpt>
      <trkpt lat="45.42146" lon="5.58495">
        <ele>789</ele>
        <time>2011-08-04T10:06:00Z</time>
      </trkpt>
      <trkpt lat="45.42142" lon="5.585">
        <ele>789</ele>
        <time>2011-08-04T10:06:04Z</time>
      </trkpt>
      <trkpt lat="45.42136" lon="5.58502">
        <ele>788</ele>
        <time>2011-08-04T10:06:07Z</time>
      </trkpt>
      <trkpt lat="45.42132" lon="5.58507">
        <ele>789</ele>
        <time>2011-08-04T10:06:09Z</time>
      </trkpt>
      <trkpt lat="45.42127" lon="5.58509">
        <ele>791</ele>
        <time>2011-08-04T10:06:12Z</time>
      </trkpt>
      <trkpt lat="45.42122" lon="5.58512">
        <ele>792</ele>
        <time>2011-08-04T10:06:15Z</time>
      </trkpt>
      <trkpt lat="45.42117" lon="5.58512">
        <ele>792</ele>
        <time>2011-08-04T10:06:18Z</time>
      </trkpt>
      <trkpt lat="45.42112" lon="5.58516">
        <ele>791</ele>
        <time>2011-08-04T10:06:23Z</time>
      </trkpt>
      <trkpt lat="45.42107" lon="5.58517">
        <ele>787</ele>
        <time>2011-08-04T10:06:31Z</time>
      </trkpt>
      <trkpt lat="45.42102" lon="5.5852">
        <ele>787</ele>
        <time>2011-08-04T10:06:36Z</time>
      </trkpt>
      <trkpt lat="45.42097" lon="5.58522">
        <ele>788</ele>
        <time>2011-08-04T10:06:42Z</time>
      </trkpt>
      <trkpt lat="45.42092" lon="5.58526">
        <ele>791</ele>
        <time>2011-08-04T10:06:49Z</time>
      </trkpt>
      <trkpt lat="45.42086" lon="5.58535">
        <ele>792</ele>
        <time>2011-08-04T10:06:56Z</time>
      </trkpt>
      <trkpt lat="45.42083" lon="5.58539">
        <ele>793</ele>
        <time>2011-08-04T10:06:59Z</time>
      </trkpt>
      <trkpt lat="45.42078" lon="5.58542">
        <ele>794</ele>
        <time>2011-08-04T10:07:02Z</time>
      </trkpt>
      <trkpt lat="45.42074" lon="5.58545">
        <ele>794</ele>
        <time>2011-08-04T10:07:06Z</time>
      </trkpt>
      <trkpt lat="45.4207" lon="5.58548">
        <ele>793</ele>
        <time>2011-08-04T10:07:10Z</time>
      </trkpt>
      <trkpt lat="45.42066" lon="5.58553">
        <ele>792</ele>
        <time>2011-08-04T10:07:14Z</time>
      </trkpt>
      <trkpt lat="45.42062" lon="5.58558">
        <ele>793</ele>
        <time>2011-08-04T10:07:17Z</time>
      </trkpt>
      <trkpt lat="45.42058" lon="5.5856">
        <ele>792</ele>
        <time>2011-08-04T10:07:21Z</time>
      </trkpt>
      <trkpt lat="45.42054" lon="5.58564">
        <ele>794</ele>
        <time>2011-08-04T10:07:24Z</time>
      </trkpt>
      <trkpt lat="45.42053" lon="5.5857">
        <ele>795</ele>
        <time>2011-08-04T10:07:30Z</time>
      </trkpt>
      <trkpt lat="45.4205" lon="5.58577">
        <ele>796</ele>
        <time>2011-08-04T10:07:38Z</time>
      </trkpt>
      <trkpt lat="45.42046" lon="5.58581">
        <ele>796</ele>
        <time>2011-08-04T10:07:41Z</time>
      </trkpt>
      <trkpt lat="45.42042" lon="5.58586">
        <ele>797</ele>
        <time>2011-08-04T10:07:45Z</time>
      </trkpt>
      <trkpt lat="45.42041" lon="5.58592">
        <ele>798</ele>
        <time>2011-08-04T10:07:48Z</time>
      </trkpt>
      <trkpt lat="45.42038" lon="5.58599">
        <ele>799</ele>
        <time>2011-08-04T10:07:52Z</time>
      </trkpt>
      <trkpt lat="45.42034" lon="5.58607">
        <ele>801</ele>
        <time>2011-08-04T10:07:56Z</time>
      </trkpt>
      <trkpt lat="45.4203" lon="5.58612">
        <ele>805</ele>
        <time>2011-08-04T10:08:05Z</time>
      </trkpt>
      <trkpt lat="45.42029" lon="5.58619">
        <ele>807</ele>
        <time>2011-08-04T10:08:08Z</time>
      </trkpt>
      <trkpt lat="45.42023" lon="5.58623">
        <ele>808</ele>
        <time>2011-08-04T10:08:11Z</time>
      </trkpt>
      <trkpt lat="45.42019" lon="5.58627">
        <ele>810</ele>
        <time>2011-08-04T10:08:15Z</time>
      </trkpt>
      <trkpt lat="45.42015" lon="5.58634">
        <ele>812</ele>
        <time>2011-08-04T10:08:22Z</time>
      </trkpt>
      <trkpt lat="45.42011" lon="5.58637">
        <ele>812</ele>
        <time>2011-08-04T10:08:24Z</time>
      </trkpt>
      <trkpt lat="45.42007" lon="5.58641">
        <ele>814</ele>
        <time>2011-08-04T10:08:28Z</time>
      </trkpt>
      <trkpt lat="45.42004" lon="5.58647">
        <ele>814</ele>
        <time>2011-08-04T10:08:31Z</time>
      </trkpt>
      <trkpt lat="45.42001" lon="5.58652">
        <ele>813</ele>
        <time>2011-08-04T10:08:35Z</time>
      </trkpt>
      <trkpt lat="45.42" lon="5.5866">
        <ele>812</ele>
        <time>2011-08-04T10:08:41Z</time>
      </trkpt>
      <trkpt lat="45.41997" lon="5.58666">
        <ele>812</ele>
        <time>2011-08-04T10:08:44Z</time>
      </trkpt>
      <trkpt lat="45.41992" lon="5.58674">
        <ele>811</ele>
        <time>2011-08-04T10:09:07Z</time>
      </trkpt>
      <trkpt lat="45.41989" lon="5.58683">
        <ele>811</ele>
        <time>2011-08-04T10:09:10Z</time>
      </trkpt>
      <trkpt lat="45.41988" lon="5.58693">
        <ele>806</ele>
        <time>2011-08-04T10:09:12Z</time>
      </trkpt>
      <trkpt lat="45.41982" lon="5.58698">
        <ele>805</ele>
        <time>2011-08-04T10:09:15Z</time>
      </trkpt>
      <trkpt lat="45.41978" lon="5.58701">
        <ele>806</ele>
        <time>2011-08-04T10:09:21Z</time>
      </trkpt>
      <trkpt lat="45.41976" lon="5.58707">
        <ele>808</ele>
        <time>2011-08-04T10:09:33Z</time>
      </trkpt>
      <trkpt lat="45.41973" lon="5.58714">
        <ele>810</ele>
        <time>2011-08-04T10:09:37Z</time>
      </trkpt>
      <trkpt lat="45.41966" lon="5.58715">
        <ele>811</ele>
        <time>2011-08-04T10:09:40Z</time>
      </trkpt>
      <trkpt lat="45.41961" lon="5.58717">
        <ele>812</ele>
        <time>2011-08-04T10:09:41Z</time>
      </trkpt>
      <trkpt lat="45.41954" lon="5.58717">
        <ele>812</ele>
        <time>2011-08-04T10:09:43Z</time>
      </trkpt>
      <trkpt lat="45.41951" lon="5.58711">
        <ele>813</ele>
        <time>2011-08-04T10:09:47Z</time>
      </trkpt>
      <trkpt lat="45.41946" lon="5.58708">
        <ele>813</ele>
        <time>2011-08-04T10:09:50Z</time>
      </trkpt>
      <trkpt lat="45.41942" lon="5.58704">
        <ele>813</ele>
        <time>2011-08-04T10:09:53Z</time>
      </trkpt>
      <trkpt lat="45.41937" lon="5.58702">
        <ele>816</ele>
        <time>2011-08-04T10:09:56Z</time>
      </trkpt>
      <trkpt lat="45.41932" lon="5.58701">
        <ele>820</ele>
        <time>2011-08-04T10:10:00Z</time>
      </trkpt>
      <trkpt lat="45.41928" lon="5.58694">
        <ele>820</ele>
        <time>2011-08-04T10:10:06Z</time>
      </trkpt>
      <trkpt lat="45.41924" lon="5.5869">
        <ele>820</ele>
        <time>2011-08-04T10:10:10Z</time>
      </trkpt>
      <trkpt lat="45.41921" lon="5.58684">
        <ele>822</ele>
        <time>2011-08-04T10:10:18Z</time>
      </trkpt>
      <trkpt lat="45.41916" lon="5.5868">
        <ele>822</ele>
        <time>2011-08-04T10:10:22Z</time>
      </trkpt>
      <trkpt lat="45.41911" lon="5.58679">
        <ele>823</ele>
        <time>2011-08-04T10:10:26Z</time>
      </trkpt>
      <trkpt lat="45.41907" lon="5.58674">
        <ele>823</ele>
        <time>2011-08-04T10:10:29Z</time>
      </trkpt>
      <trkpt lat="45.41903" lon="5.58669">
        <ele>825</ele>
        <time>2011-08-04T10:10:34Z</time>
      </trkpt>
      <trkpt lat="45.41898" lon="5.58668">
        <ele>826</ele>
        <time>2011-08-04T10:10:38Z</time>
      </trkpt>
      <trkpt lat="45.41894" lon="5.58665">
        <ele>827</ele>
        <time>2011-08-04T10:10:43Z</time>
      </trkpt>
      <trkpt lat="45.4189" lon="5.58661">
        <ele>829</ele>
        <time>2011-08-04T10:10:51Z</time>
      </trkpt>
      <trkpt lat="45.41885" lon="5.58658">
        <ele>828</ele>
        <time>2011-08-04T10:10:59Z</time>
      </trkpt>
      <trkpt lat="45.41883" lon="5.58652">
        <ele>828</ele>
        <time>2011-08-04T10:11:04Z</time>
      </trkpt>
      <trkpt lat="45.41878" lon="5.58652">
        <ele>827</ele>
        <time>2011-08-04T10:11:10Z</time>
      </trkpt>
      <trkpt lat="45.41874" lon="5.58649">
        <ele>827</ele>
        <time>2011-08-04T10:11:14Z</time>
      </trkpt>
      <trkpt lat="45.4187" lon="5.58647">
        <ele>827</ele>
        <time>2011-08-04T10:11:18Z</time>
      </trkpt>
      <trkpt lat="45.41864" lon="5.58644">
        <ele>829</ele>
        <time>2011-08-04T10:11:23Z</time>
      </trkpt>
      <trkpt lat="45.4186" lon="5.58641">
        <ele>830</ele>
        <time>2011-08-04T10:11:27Z</time>
      </trkpt>
      <trkpt lat="45.41852" lon="5.58641">
        <ele>830</ele>
        <time>2011-08-04T10:11:30Z</time>
      </trkpt>
      <trkpt lat="45.41847" lon="5.58641">
        <ele>833</ele>
        <time>2011-08-04T10:11:34Z</time>
      </trkpt>
      <trkpt lat="45.41842" lon="5.58639">
        <ele>835</ele>
        <time>2011-08-04T10:11:37Z</time>
      </trkpt>
      <trkpt lat="45.41835" lon="5.58633">
        <ele>836</ele>
        <time>2011-08-04T10:11:40Z</time>
      </trkpt>
      <trkpt lat="45.41831" lon="5.58631">
        <ele>836</ele>
        <time>2011-08-04T10:11:42Z</time>
      </trkpt>
      <trkpt lat="45.41827" lon="5.58626">
        <ele>837</ele>
        <time>2011-08-04T10:11:47Z</time>
      </trkpt>
      <trkpt lat="45.41823" lon="5.58622">
        <ele>837</ele>
        <time>2011-08-04T10:11:50Z</time>
      </trkpt>
      <trkpt lat="45.41818" lon="5.58624">
        <ele>849</ele>
        <time>2011-08-04T10:12:25Z</time>
      </trkpt>
      <trkpt lat="45.41813" lon="5.58621">
        <ele>849</ele>
        <time>2011-08-04T10:12:26Z</time>
      </trkpt>
      <trkpt lat="45.41806" lon="5.58624">
        <ele>851</ele>
        <time>2011-08-04T10:12:28Z</time>
      </trkpt>
      <trkpt lat="45.41801" lon="5.5862">
        <ele>852</ele>
        <time>2011-08-04T10:12:35Z</time>
      </trkpt>
      <trkpt lat="45.41796" lon="5.5862">
        <ele>853</ele>
        <time>2011-08-04T10:12:37Z</time>
      </trkpt>
      <trkpt lat="45.41791" lon="5.58619">
        <ele>854</ele>
        <time>2011-08-04T10:12:42Z</time>
      </trkpt>
      <trkpt lat="45.41784" lon="5.58616">
        <ele>856</ele>
        <time>2011-08-04T10:12:44Z</time>
      </trkpt>
      <trkpt lat="45.41779" lon="5.58614">
        <ele>856</ele>
        <time>2011-08-04T10:12:49Z</time>
      </trkpt>
      <trkpt lat="45.41774" lon="5.58617">
        <ele>858</ele>
        <time>2011-08-04T10:13:20Z</time>
      </trkpt>
      <trkpt lat="45.41769" lon="5.58616">
        <ele>864</ele>
        <time>2011-08-04T10:13:30Z</time>
      </trkpt>
      <trkpt lat="45.41764" lon="5.58616">
        <ele>864</ele>
        <time>2011-08-04T10:13:36Z</time>
      </trkpt>
      <trkpt lat="45.41759" lon="5.58616">
        <ele>864</ele>
        <time>2011-08-04T10:13:38Z</time>
      </trkpt>
      <trkpt lat="45.41758" lon="5.5861">
        <ele>866</ele>
        <time>2011-08-04T10:13:49Z</time>
      </trkpt>
      <trkpt lat="45.41758" lon="5.5861">
        <ele>866</ele>
        <time>2011-08-04T10:13:49Z</time>
      </trkpt>
      <trkpt lat="45.41758" lon="5.5861">
        <ele>866</ele>
        <time>2011-08-04T10:13:54Z</time>
      </trkpt>
      <trkpt lat="45.41753" lon="5.58606">
        <ele>865</ele>
        <time>2011-08-04T10:14:02Z</time>
      </trkpt>
      <trkpt lat="45.41746" lon="5.58605">
        <ele>865</ele>
        <time>2011-08-04T10:14:07Z</time>
      </trkpt>
      <trkpt lat="45.41741" lon="5.58606">
        <ele>864</ele>
        <time>2011-08-04T10:14:16Z</time>
      </trkpt>
      <trkpt lat="45.41735" lon="5.58606">
        <ele>865</ele>
        <time>2011-08-04T10:14:26Z</time>
      </trkpt>
      <trkpt lat="45.4173" lon="5.58609">
        <ele>866</ele>
        <time>2011-08-04T10:14:34Z</time>
      </trkpt>
      <trkpt lat="45.41726" lon="5.58606">
        <ele>866</ele>
        <time>2011-08-04T10:14:50Z</time>
      </trkpt>
      <trkpt lat="45.41726" lon="5.58606">
        <ele>866</ele>
        <time>2011-08-04T10:14:50Z</time>
      </trkpt>
      <trkpt lat="45.41726" lon="5.58606">
        <ele>866</ele>
        <time>2011-08-04T10:14:52Z</time>
      </trkpt>
      <trkpt lat="45.4172" lon="5.58607">
        <ele>867</ele>
        <time>2011-08-04T10:15:12Z</time>
      </trkpt>
      <trkpt lat="45.41716" lon="5.58609">
        <ele>870</ele>
        <time>2011-08-04T10:15:21Z</time>
      </trkpt>
      <trkpt lat="45.41716" lon="5.58609">
        <ele>870</ele>
        <time>2011-08-04T10:15:21Z</time>
      </trkpt>
      <trkpt lat="45.41716" lon="5.58609">
        <ele>870</ele>
        <time>2011-08-04T10:15:26Z</time>
      </trkpt>
      <trkpt lat="45.41711" lon="5.58604">
        <ele>869</ele>
        <time>2011-08-04T10:15:42Z</time>
      </trkpt>
      <trkpt lat="45.41706" lon="5.58604">
        <ele>868</ele>
        <time>2011-08-04T10:15:45Z</time>
      </trkpt>
      <trkpt lat="45.41707" lon="5.58597">
        <ele>871</ele>
        <time>2011-08-04T10:15:56Z</time>
      </trkpt>
      <trkpt lat="45.41706" lon="5.5859">
        <ele>872</ele>
        <time>2011-08-04T10:16:03Z</time>
      </trkpt>
      <trkpt lat="45.41701" lon="5.5859">
        <ele>871</ele>
        <time>2011-08-04T10:16:07Z</time>
      </trkpt>
      <trkpt lat="45.41701" lon="5.5859">
        <ele>871</ele>
        <time>2011-08-04T10:16:07Z</time>
      </trkpt>
      <trkpt lat="45.41701" lon="5.5859">
        <ele>872</ele>
        <time>2011-08-04T10:16:14Z</time>
      </trkpt>
      <trkpt lat="45.41696" lon="5.58594">
        <ele>874</ele>
        <time>2011-08-04T10:16:25Z</time>
      </trkpt>
      <trkpt lat="45.41691" lon="5.58593">
        <ele>873</ele>
        <time>2011-08-04T10:16:38Z</time>
      </trkpt>
      <trkpt lat="45.41687" lon="5.58589">
        <ele>877</ele>
        <time>2011-08-04T10:17:08Z</time>
      </trkpt>
      <trkpt lat="45.41682" lon="5.5859">
        <ele>877</ele>
        <time>2011-08-04T10:17:34Z</time>
      </trkpt>
      <trkpt lat="45.41677" lon="5.58586">
        <ele>878</ele>
        <time>2011-08-04T10:17:45Z</time>
      </trkpt>
      <trkpt lat="45.41671" lon="5.58584">
        <ele>876</ele>
        <time>2011-08-04T10:19:46Z</time>
      </trkpt>
      <trkpt lat="45.41667" lon="5.58581">
        <ele>878</ele>
        <time>2011-08-04T10:19:57Z</time>
      </trkpt>
      <trkpt lat="45.41662" lon="5.58583">
        <ele>882</ele>
        <time>2011-08-04T10:20:07Z</time>
      </trkpt>
      <trkpt lat="45.41656" lon="5.58585">
        <ele>885</ele>
        <time>2011-08-04T10:20:12Z</time>
      </trkpt>
      <trkpt lat="45.41652" lon="5.58587">
        <ele>886</ele>
        <time>2011-08-04T10:20:25Z</time>
      </trkpt>
      <trkpt lat="45.41648" lon="5.5859">
        <ele>890</ele>
        <time>2011-08-04T10:20:37Z</time>
      </trkpt>
      <trkpt lat="45.41642" lon="5.58591">
        <ele>896</ele>
        <time>2011-08-04T10:20:51Z</time>
      </trkpt>
      <trkpt lat="45.41636" lon="5.58591">
        <ele>897</ele>
        <time>2011-08-04T10:20:56Z</time>
      </trkpt>
      <trkpt lat="45.4163" lon="5.58591">
        <ele>897</ele>
        <time>2011-08-04T10:21:00Z</time>
      </trkpt>
      <trkpt lat="45.41625" lon="5.58589">
        <ele>896</ele>
        <time>2011-08-04T10:21:08Z</time>
      </trkpt>
      <trkpt lat="45.4162" lon="5.5859">
        <ele>897</ele>
        <time>2011-08-04T10:21:14Z</time>
      </trkpt>
      <trkpt lat="45.4162" lon="5.5859">
        <ele>897</ele>
        <time>2011-08-04T10:21:14Z</time>
      </trkpt>
      <trkpt lat="45.4162" lon="5.5859">
        <ele>897</ele>
        <time>2011-08-04T10:21:15Z</time>
      </trkpt>
      <trkpt lat="45.41614" lon="5.58591">
        <ele>902</ele>
        <time>2011-08-04T10:21:27Z</time>
      </trkpt>
      <trkpt lat="45.41608" lon="5.58592">
        <ele>904</ele>
        <time>2011-08-04T10:21:40Z</time>
      </trkpt>
      <trkpt lat="45.41608" lon="5.58592">
        <ele>904</ele>
        <time>2011-08-04T10:21:40Z</time>
      </trkpt>
      <trkpt lat="45.41608" lon="5.58592">
        <ele>904</ele>
        <time>2011-08-04T10:21:41Z</time>
      </trkpt>
      <trkpt lat="45.41603" lon="5.58592">
        <ele>903</ele>
        <time>2011-08-04T10:21:49Z</time>
      </trkpt>
      <trkpt lat="45.41597" lon="5.58593">
        <ele>904</ele>
        <time>2011-08-04T10:21:52Z</time>
      </trkpt>
      <trkpt lat="45.41592" lon="5.58592">
        <ele>907</ele>
        <time>2011-08-04T10:23:44Z</time>
      </trkpt>
      <trkpt lat="45.41592" lon="5.58592">
        <ele>907</ele>
        <time>2011-08-04T10:23:44Z</time>
      </trkpt>
      <trkpt lat="45.41592" lon="5.58592">
        <ele>907</ele>
        <time>2011-08-04T10:23:45Z</time>
      </trkpt>
      <trkpt lat="45.41588" lon="5.58597">
        <ele>912</ele>
        <time>2011-08-04T10:23:49Z</time>
      </trkpt>
      <trkpt lat="45.41579" lon="5.58602">
        <ele>911</ele>
        <time>2011-08-04T10:23:56Z</time>
      </trkpt>
      <trkpt lat="45.41574" lon="5.58606">
        <ele>912</ele>
        <time>2011-08-04T10:24:04Z</time>
      </trkpt>
      <trkpt lat="45.41569" lon="5.58608">
        <ele>912</ele>
        <time>2011-08-04T10:24:08Z</time>
      </trkpt>
      <trkpt lat="45.41566" lon="5.58613">
        <ele>911</ele>
        <time>2011-08-04T10:24:11Z</time>
      </trkpt>
      <trkpt lat="45.41559" lon="5.58617">
        <ele>911</ele>
        <time>2011-08-04T10:24:13Z</time>
      </trkpt>
      <trkpt lat="45.41554" lon="5.5862">
        <ele>912</ele>
        <time>2011-08-04T10:24:17Z</time>
      </trkpt>
      <trkpt lat="45.41548" lon="5.58622">
        <ele>912</ele>
        <time>2011-08-04T10:24:20Z</time>
      </trkpt>
      <trkpt lat="45.41544" lon="5.58623">
        <ele>910</ele>
        <time>2011-08-04T10:24:53Z</time>
      </trkpt>
      <trkpt lat="45.41539" lon="5.58618">
        <ele>908</ele>
        <time>2011-08-04T10:24:58Z</time>
      </trkpt>
      <trkpt lat="45.41536" lon="5.58613">
        <ele>907</ele>
        <time>2011-08-04T10:25:02Z</time>
      </trkpt>
      <trkpt lat="45.41533" lon="5.58606">
        <ele>906</ele>
        <time>2011-08-04T10:25:07Z</time>
      </trkpt>
      <trkpt lat="45.4153" lon="5.58601">
        <ele>905</ele>
        <time>2011-08-04T10:25:12Z</time>
      </trkpt>
      <trkpt lat="45.41527" lon="5.58596">
        <ele>904</ele>
        <time>2011-08-04T10:25:16Z</time>
      </trkpt>
      <trkpt lat="45.41522" lon="5.58591">
        <ele>902</ele>
        <time>2011-08-04T10:25:22Z</time>
      </trkpt>
      <trkpt lat="45.4152" lon="5.58586">
        <ele>902</ele>
        <time>2011-08-04T10:25:25Z</time>
      </trkpt>
      <trkpt lat="45.41515" lon="5.58582">
        <ele>902</ele>
        <time>2011-08-04T10:25:29Z</time>
      </trkpt>
      <trkpt lat="45.41512" lon="5.58577">
        <ele>900</ele>
        <time>2011-08-04T10:25:32Z</time>
      </trkpt>
      <trkpt lat="45.41508" lon="5.58575">
        <ele>899</ele>
        <time>2011-08-04T10:25:35Z</time>
      </trkpt>
      <trkpt lat="45.41504" lon="5.58571">
        <ele>898</ele>
        <time>2011-08-04T10:25:39Z</time>
      </trkpt>
      <trkpt lat="45.41501" lon="5.58564">
        <ele>898</ele>
        <time>2011-08-04T10:25:43Z</time>
      </trkpt>
      <trkpt lat="45.415" lon="5.58557">
        <ele>896</ele>
        <time>2011-08-04T10:25:46Z</time>
      </trkpt>
      <trkpt lat="45.41496" lon="5.58552">
        <ele>894</ele>
        <time>2011-08-04T10:25:50Z</time>
      </trkpt>
      <trkpt lat="45.41493" lon="5.58547">
        <ele>894</ele>
        <time>2011-08-04T10:25:56Z</time>
      </trkpt>
      <trkpt lat="45.41493" lon="5.58547">
        <ele>894</ele>
        <time>2011-08-04T10:25:56Z</time>
      </trkpt>
      <trkpt lat="45.41493" lon="5.58547">
        <ele>894</ele>
        <time>2011-08-04T10:25:58Z</time>
      </trkpt>
      <trkpt lat="45.4149" lon="5.58541">
        <ele>892</ele>
        <time>2011-08-04T10:26:05Z</time>
      </trkpt>
      <trkpt lat="45.41486" lon="5.58536">
        <ele>893</ele>
        <time>2011-08-04T10:26:10Z</time>
      </trkpt>
      <trkpt lat="45.41483" lon="5.58529">
        <ele>894</ele>
        <time>2011-08-04T10:26:14Z</time>
      </trkpt>
      <trkpt lat="45.4148" lon="5.58523">
        <ele>890</ele>
        <time>2011-08-04T10:26:19Z</time>
      </trkpt>
      <trkpt lat="45.41477" lon="5.58518">
        <ele>890</ele>
        <time>2011-08-04T10:26:22Z</time>
      </trkpt>
      <trkpt lat="45.41473" lon="5.58513">
        <ele>890</ele>
        <time>2011-08-04T10:26:26Z</time>
      </trkpt>
      <trkpt lat="45.41471" lon="5.58506">
        <ele>887</ele>
        <time>2011-08-04T10:26:30Z</time>
      </trkpt>
      <trkpt lat="45.41466" lon="5.58503">
        <ele>886</ele>
        <time>2011-08-04T10:26:35Z</time>
      </trkpt>
      <trkpt lat="45.41463" lon="5.58499">
        <ele>887</ele>
        <time>2011-08-04T10:26:39Z</time>
      </trkpt>
      <trkpt lat="45.41458" lon="5.58496">
        <ele>887</ele>
        <time>2011-08-04T10:26:44Z</time>
      </trkpt>
      <trkpt lat="45.41453" lon="5.58495">
        <ele>889</ele>
        <time>2011-08-04T10:26:48Z</time>
      </trkpt>
      <trkpt lat="45.4145" lon="5.5849">
        <ele>888</ele>
        <time>2011-08-04T10:26:53Z</time>
      </trkpt>
      <trkpt lat="45.41445" lon="5.58488">
        <ele>887</ele>
        <time>2011-08-04T10:26:56Z</time>
      </trkpt>
      <trkpt lat="45.41441" lon="5.58484">
        <ele>887</ele>
        <time>2011-08-04T10:26:59Z</time>
      </trkpt>
      <trkpt lat="45.41435" lon="5.58482">
        <ele>886</ele>
        <time>2011-08-04T10:27:03Z</time>
      </trkpt>
      <trkpt lat="45.4143" lon="5.58479">
        <ele>885</ele>
        <time>2011-08-04T10:27:06Z</time>
      </trkpt>
      <trkpt lat="45.41426" lon="5.58475">
        <ele>886</ele>
        <time>2011-08-04T10:27:09Z</time>
      </trkpt>
      <trkpt lat="45.41421" lon="5.58473">
        <ele>883</ele>
        <time>2011-08-04T10:27:14Z</time>
      </trkpt>
      <trkpt lat="45.41416" lon="5.58469">
        <ele>883</ele>
        <time>2011-08-04T10:27:18Z</time>
      </trkpt>
      <trkpt lat="45.41412" lon="5.58464">
        <ele>884</ele>
        <time>2011-08-04T10:27:23Z</time>
      </trkpt>
      <trkpt lat="45.41408" lon="5.58458">
        <ele>881</ele>
        <time>2011-08-04T10:27:28Z</time>
      </trkpt>
      <trkpt lat="45.41404" lon="5.58455">
        <ele>879</ele>
        <time>2011-08-04T10:27:32Z</time>
      </trkpt>
      <trkpt lat="45.41399" lon="5.58454">
        <ele>879</ele>
        <time>2011-08-04T10:27:36Z</time>
      </trkpt>
      <trkpt lat="45.41395" lon="5.58449">
        <ele>876</ele>
        <time>2011-08-04T10:27:43Z</time>
      </trkpt>
      <trkpt lat="45.41389" lon="5.58447">
        <ele>877</ele>
        <time>2011-08-04T10:27:46Z</time>
      </trkpt>
      <trkpt lat="45.41388" lon="5.58439">
        <ele>880</ele>
        <time>2011-08-04T10:27:50Z</time>
      </trkpt>
      <trkpt lat="45.41382" lon="5.58435">
        <ele>880</ele>
        <time>2011-08-04T10:27:53Z</time>
      </trkpt>
      <trkpt lat="45.41376" lon="5.58432">
        <ele>880</ele>
        <time>2011-08-04T10:27:56Z</time>
      </trkpt>
      <trkpt lat="45.41373" lon="5.58427">
        <ele>880</ele>
        <time>2011-08-04T10:27:58Z</time>
      </trkpt>
      <trkpt lat="45.41369" lon="5.58421">
        <ele>880</ele>
        <time>2011-08-04T10:28:01Z</time>
      </trkpt>
      <trkpt lat="45.41366" lon="5.58413">
        <ele>881</ele>
        <time>2011-08-04T10:28:04Z</time>
      </trkpt>
      <trkpt lat="45.41364" lon="5.58406">
        <ele>882</ele>
        <time>2011-08-04T10:28:08Z</time>
      </trkpt>
      <trkpt lat="45.41362" lon="5.58399">
        <ele>882</ele>
        <time>2011-08-04T10:28:11Z</time>
      </trkpt>
      <trkpt lat="45.4136" lon="5.58394">
        <ele>883</ele>
        <time>2011-08-04T10:28:15Z</time>
      </trkpt>
      <trkpt lat="45.41356" lon="5.58387">
        <ele>880</ele>
        <time>2011-08-04T10:28:19Z</time>
      </trkpt>
      <trkpt lat="45.41353" lon="5.58381">
        <ele>877</ele>
        <time>2011-08-04T10:28:23Z</time>
      </trkpt>
      <trkpt lat="45.41349" lon="5.58374">
        <ele>876</ele>
        <time>2011-08-04T10:28:27Z</time>
      </trkpt>
      <trkpt lat="45.41345" lon="5.5837">
        <ele>875</ele>
        <time>2011-08-04T10:28:31Z</time>
      </trkpt>
      <trkpt lat="45.41341" lon="5.58367">
        <ele>875</ele>
        <time>2011-08-04T10:28:35Z</time>
      </trkpt>
      <trkpt lat="45.41338" lon="5.5836">
        <ele>875</ele>
        <time>2011-08-04T10:28:39Z</time>
      </trkpt>
      <trkpt lat="45.41333" lon="5.58355">
        <ele>875</ele>
        <time>2011-08-04T10:28:43Z</time>
      </trkpt>
      <trkpt lat="45.41333" lon="5.58346">
        <ele>875</ele>
        <time>2011-08-04T10:28:48Z</time>
      </trkpt>
      <trkpt lat="45.41332" lon="5.5834">
        <ele>875</ele>
        <time>2011-08-04T10:28:51Z</time>
      </trkpt>
      <trkpt lat="45.41332" lon="5.58333">
        <ele>875</ele>
        <time>2011-08-04T10:28:54Z</time>
      </trkpt>
      <trkpt lat="45.4133" lon="5.58325">
        <ele>875</ele>
        <time>2011-08-04T10:28:57Z</time>
      </trkpt>
      <trkpt lat="45.41329" lon="5.58318">
        <ele>877</ele>
        <time>2011-08-04T10:29:01Z</time>
      </trkpt>
      <trkpt lat="45.41331" lon="5.58312">
        <ele>876</ele>
        <time>2011-08-04T10:29:07Z</time>
      </trkpt>
      <trkpt lat="45.41331" lon="5.58304">
        <ele>876</ele>
        <time>2011-08-04T10:29:11Z</time>
      </trkpt>
      <trkpt lat="45.41331" lon="5.58296">
        <ele>873</ele>
        <time>2011-08-04T10:29:15Z</time>
      </trkpt>
      <trkpt lat="45.41334" lon="5.58288">
        <ele>868</ele>
        <time>2011-08-04T10:29:19Z</time>
      </trkpt>
      <trkpt lat="45.41336" lon="5.58281">
        <ele>867</ele>
        <time>2011-08-04T10:29:23Z</time>
      </trkpt>
      <trkpt lat="45.41339" lon="5.58274">
        <ele>865</ele>
        <time>2011-08-04T10:29:29Z</time>
      </trkpt>
      <trkpt lat="45.4134" lon="5.58267">
        <ele>864</ele>
        <time>2011-08-04T10:29:33Z</time>
      </trkpt>
      <trkpt lat="45.41341" lon="5.5826">
        <ele>863</ele>
        <time>2011-08-04T10:29:41Z</time>
      </trkpt>
      <trkpt lat="45.41341" lon="5.58254">
        <ele>862</ele>
        <time>2011-08-04T10:29:46Z</time>
      </trkpt>
      <trkpt lat="45.4134" lon="5.58246">
        <ele>860</ele>
        <time>2011-08-04T10:29:52Z</time>
      </trkpt>
      <trkpt lat="45.41339" lon="5.5824">
        <ele>858</ele>
        <time>2011-08-04T10:29:57Z</time>
      </trkpt>
      <trkpt lat="45.41338" lon="5.58232">
        <ele>855</ele>
        <time>2011-08-04T10:30:01Z</time>
      </trkpt>
      <trkpt lat="45.41336" lon="5.58226">
        <ele>854</ele>
        <time>2011-08-04T10:30:04Z</time>
      </trkpt>
      <trkpt lat="45.41334" lon="5.58219">
        <ele>852</ele>
        <time>2011-08-04T10:30:09Z</time>
      </trkpt>
      <trkpt lat="45.41332" lon="5.58212">
        <ele>852</ele>
        <time>2011-08-04T10:30:14Z</time>
      </trkpt>
      <trkpt lat="45.4133" lon="5.58206">
        <ele>853</ele>
        <time>2011-08-04T10:30:18Z</time>
      </trkpt>
      <trkpt lat="45.41325" lon="5.58202">
        <ele>854</ele>
        <time>2011-08-04T10:30:24Z</time>
      </trkpt>
      <trkpt lat="45.41321" lon="5.582">
        <ele>854</ele>
        <time>2011-08-04T10:30:27Z</time>
      </trkpt>
      <trkpt lat="45.41317" lon="5.58203">
        <ele>854</ele>
        <time>2011-08-04T10:30:32Z</time>
      </trkpt>
      <trkpt lat="45.41312" lon="5.58202">
        <ele>855</ele>
        <time>2011-08-04T10:30:36Z</time>
      </trkpt>
      <trkpt lat="45.41306" lon="5.58201">
        <ele>855</ele>
        <time>2011-08-04T10:30:39Z</time>
      </trkpt>
      <trkpt lat="45.41301" lon="5.58201">
        <ele>854</ele>
        <time>2011-08-04T10:30:43Z</time>
      </trkpt>
      <trkpt lat="45.41296" lon="5.58204">
        <ele>853</ele>
        <time>2011-08-04T10:30:47Z</time>
      </trkpt>
      <trkpt lat="45.41291" lon="5.58204">
        <ele>854</ele>
        <time>2011-08-04T10:30:54Z</time>
      </trkpt>
      <trkpt lat="45.41288" lon="5.5821">
        <ele>854</ele>
        <time>2011-08-04T10:31:03Z</time>
      </trkpt>
      <trkpt lat="45.41288" lon="5.5821">
        <ele>854</ele>
        <time>2011-08-04T10:31:03Z</time>
      </trkpt>
      <trkpt lat="45.41288" lon="5.5821">
        <ele>854</ele>
        <time>2011-08-04T10:31:04Z</time>
      </trkpt>
      <trkpt lat="45.41282" lon="5.58214">
        <ele>858</ele>
        <time>2011-08-04T10:31:09Z</time>
      </trkpt>
      <trkpt lat="45.41279" lon="5.58218">
        <ele>859</ele>
        <time>2011-08-04T10:31:14Z</time>
      </trkpt>
      <trkpt lat="45.41275" lon="5.58222">
        <ele>858</ele>
        <time>2011-08-04T10:31:18Z</time>
      </trkpt>
      <trkpt lat="45.41271" lon="5.58229">
        <ele>857</ele>
        <time>2011-08-04T10:31:22Z</time>
      </trkpt>
      <trkpt lat="45.41268" lon="5.58235">
        <ele>858</ele>
        <time>2011-08-04T10:31:27Z</time>
      </trkpt>
      <trkpt lat="45.41266" lon="5.58243">
        <ele>857</ele>
        <time>2011-08-04T10:31:32Z</time>
      </trkpt>
      <trkpt lat="45.41264" lon="5.5825">
        <ele>857</ele>
        <time>2011-08-04T10:31:35Z</time>
      </trkpt>
      <trkpt lat="45.41261" lon="5.58258">
        <ele>858</ele>
        <time>2011-08-04T10:31:38Z</time>
      </trkpt>
      <trkpt lat="45.41258" lon="5.58264">
        <ele>858</ele>
        <time>2011-08-04T10:31:42Z</time>
      </trkpt>
      <trkpt lat="45.41254" lon="5.58273">
        <ele>858</ele>
        <time>2011-08-04T10:31:47Z</time>
      </trkpt>
      <trkpt lat="45.4125" lon="5.58277">
        <ele>858</ele>
        <time>2011-08-04T10:31:51Z</time>
      </trkpt>
      <trkpt lat="45.41248" lon="5.58286">
        <ele>855</ele>
        <time>2011-08-04T10:31:56Z</time>
      </trkpt>
      <trkpt lat="45.41243" lon="5.58292">
        <ele>855</ele>
        <time>2011-08-04T10:32:02Z</time>
      </trkpt>
      <trkpt lat="45.41238" lon="5.58295">
        <ele>853</ele>
        <time>2011-08-04T10:32:05Z</time>
      </trkpt>
      <trkpt lat="45.41234" lon="5.58298">
        <ele>851</ele>
        <time>2011-08-04T10:32:08Z</time>
      </trkpt>
      <trkpt lat="45.41234" lon="5.58292">
        <ele>841</ele>
        <time>2011-08-04T10:32:15Z</time>
      </trkpt>
      <trkpt lat="45.41231" lon="5.58286">
        <ele>839</ele>
        <time>2011-08-04T10:32:18Z</time>
      </trkpt>
      <trkpt lat="45.41232" lon="5.58279">
        <ele>837</ele>
        <time>2011-08-04T10:32:21Z</time>
      </trkpt>
      <trkpt lat="45.41233" lon="5.58271">
        <ele>837</ele>
        <time>2011-08-04T10:32:24Z</time>
      </trkpt>
      <trkpt lat="45.41233" lon="5.58264">
        <ele>836</ele>
        <time>2011-08-04T10:32:27Z</time>
      </trkpt>
      <trkpt lat="45.41233" lon="5.58256">
        <ele>835</ele>
        <time>2011-08-04T10:32:30Z</time>
      </trkpt>
      <trkpt lat="45.41236" lon="5.58248">
        <ele>835</ele>
        <time>2011-08-04T10:32:34Z</time>
      </trkpt>
      <trkpt lat="45.41235" lon="5.58241">
        <ele>834</ele>
        <time>2011-08-04T10:32:38Z</time>
      </trkpt>
      <trkpt lat="45.41235" lon="5.58233">
        <ele>832</ele>
        <time>2011-08-04T10:32:41Z</time>
      </trkpt>
      <trkpt lat="45.41236" lon="5.58227">
        <ele>832</ele>
        <time>2011-08-04T10:32:44Z</time>
      </trkpt>
      <trkpt lat="45.4124" lon="5.58232">
        <ele>832</ele>
        <time>2011-08-04T10:32:53Z</time>
      </trkpt>
      <trkpt lat="45.41242" lon="5.5824">
        <ele>833</ele>
        <time>2011-08-04T10:32:55Z</time>
      </trkpt>
      <trkpt lat="45.41244" lon="5.58245">
        <ele>833</ele>
        <time>2011-08-04T10:32:57Z</time>
      </trkpt>
      <trkpt lat="45.41247" lon="5.58256">
        <ele>835</ele>
        <time>2011-08-04T10:33:00Z</time>
      </trkpt>
      <trkpt lat="45.41248" lon="5.58264">
        <ele>834</ele>
        <time>2011-08-04T10:33:03Z</time>
      </trkpt>
      <trkpt lat="45.41248" lon="5.5827">
        <ele>837</ele>
        <time>2011-08-04T10:33:06Z</time>
      </trkpt>
      <trkpt lat="45.41245" lon="5.58276">
        <ele>838</ele>
        <time>2011-08-04T10:33:08Z</time>
      </trkpt>
      <trkpt lat="45.41244" lon="5.58282">
        <ele>837</ele>
        <time>2011-08-04T10:33:10Z</time>
      </trkpt>
      <trkpt lat="45.41243" lon="5.5829">
        <ele>839</ele>
        <time>2011-08-04T10:33:14Z</time>
      </trkpt>
      <trkpt lat="45.41243" lon="5.58298">
        <ele>839</ele>
        <time>2011-08-04T10:33:17Z</time>
      </trkpt>
      <trkpt lat="45.41241" lon="5.58308">
        <ele>838</ele>
        <time>2011-08-04T10:33:24Z</time>
      </trkpt>
      <trkpt lat="45.41238" lon="5.58314">
        <ele>837</ele>
        <time>2011-08-04T10:33:26Z</time>
      </trkpt>
      <trkpt lat="45.41237" lon="5.58323">
        <ele>839</ele>
        <time>2011-08-04T10:33:28Z</time>
      </trkpt>
      <trkpt lat="45.41237" lon="5.5833">
        <ele>838</ele>
        <time>2011-08-04T10:33:30Z</time>
      </trkpt>
      <trkpt lat="45.41235" lon="5.58337">
        <ele>838</ele>
        <time>2011-08-04T10:33:34Z</time>
      </trkpt>
      <trkpt lat="45.41235" lon="5.58344">
        <ele>838</ele>
        <time>2011-08-04T10:33:38Z</time>
      </trkpt>
      <trkpt lat="45.41234" lon="5.58352">
        <ele>839</ele>
        <time>2011-08-04T10:33:41Z</time>
      </trkpt>
      <trkpt lat="45.41229" lon="5.58357">
        <ele>841</ele>
        <time>2011-08-04T10:33:43Z</time>
      </trkpt>
      <trkpt lat="45.41229" lon="5.58364">
        <ele>840</ele>
        <time>2011-08-04T10:33:46Z</time>
      </trkpt>
      <trkpt lat="45.41228" lon="5.58372">
        <ele>841</ele>
        <time>2011-08-04T10:33:50Z</time>
      </trkpt>
      <trkpt lat="45.41228" lon="5.58379">
        <ele>843</ele>
        <time>2011-08-04T10:33:56Z</time>
      </trkpt>
      <trkpt lat="45.4123" lon="5.58385">
        <ele>842</ele>
        <time>2011-08-04T10:33:59Z</time>
      </trkpt>
      <trkpt lat="45.41231" lon="5.58392">
        <ele>841</ele>
        <time>2011-08-04T10:34:03Z</time>
      </trkpt>
      <trkpt lat="45.41231" lon="5.58399">
        <ele>840</ele>
        <time>2011-08-04T10:34:07Z</time>
      </trkpt>
      <trkpt lat="45.41232" lon="5.58405">
        <ele>842</ele>
        <time>2011-08-04T10:34:11Z</time>
      </trkpt>
      <trkpt lat="45.41231" lon="5.58412">
        <ele>841</ele>
        <time>2011-08-04T10:34:15Z</time>
      </trkpt>
      <trkpt lat="45.41229" lon="5.5842">
        <ele>842</ele>
        <time>2011-08-04T10:34:18Z</time>
      </trkpt>
      <trkpt lat="45.41228" lon="5.58427">
        <ele>842</ele>
        <time>2011-08-04T10:34:22Z</time>
      </trkpt>
      <trkpt lat="45.41225" lon="5.58432">
        <ele>843</ele>
        <time>2011-08-04T10:34:26Z</time>
      </trkpt>
      <trkpt lat="45.41224" lon="5.58439">
        <ele>841</ele>
        <time>2011-08-04T10:34:30Z</time>
      </trkpt>
      <trkpt lat="45.41225" lon="5.58447">
        <ele>840</ele>
        <time>2011-08-04T10:34:35Z</time>
      </trkpt>
      <trkpt lat="45.41226" lon="5.58455">
        <ele>840</ele>
        <time>2011-08-04T10:34:38Z</time>
      </trkpt>
      <trkpt lat="45.41226" lon="5.58462">
        <ele>838</ele>
        <time>2011-08-04T10:34:41Z</time>
      </trkpt>
      <trkpt lat="45.41224" lon="5.5847">
        <ele>836</ele>
        <time>2011-08-04T10:34:45Z</time>
      </trkpt>
      <trkpt lat="45.41221" lon="5.58477">
        <ele>834</ele>
        <time>2011-08-04T10:34:50Z</time>
      </trkpt>
      <trkpt lat="45.41216" lon="5.5848">
        <ele>836</ele>
        <time>2011-08-04T10:34:51Z</time>
      </trkpt>
      <trkpt lat="45.41212" lon="5.58486">
        <ele>834</ele>
        <time>2011-08-04T10:34:53Z</time>
      </trkpt>
      <trkpt lat="45.41207" lon="5.58486">
        <ele>825</ele>
        <time>2011-08-04T10:34:58Z</time>
      </trkpt>
      <trkpt lat="45.41206" lon="5.58478">
        <ele>819</ele>
        <time>2011-08-04T10:35:01Z</time>
      </trkpt>
      <trkpt lat="45.41205" lon="5.58471">
        <ele>815</ele>
        <time>2011-08-04T10:35:04Z</time>
      </trkpt>
      <trkpt lat="45.41203" lon="5.58463">
        <ele>813</ele>
        <time>2011-08-04T10:35:08Z</time>
      </trkpt>
      <trkpt lat="45.41201" lon="5.58456">
        <ele>811</ele>
        <time>2011-08-04T10:35:12Z</time>
      </trkpt>
      <trkpt lat="45.412" lon="5.58448">
        <ele>808</ele>
        <time>2011-08-04T10:35:16Z</time>
      </trkpt>
      <trkpt lat="45.41199" lon="5.58441">
        <ele>806</ele>
        <time>2011-08-04T10:35:20Z</time>
      </trkpt>
      <trkpt lat="45.41196" lon="5.58434">
        <ele>807</ele>
        <time>2011-08-04T10:35:23Z</time>
      </trkpt>
      <trkpt lat="45.41193" lon="5.58428">
        <ele>809</ele>
        <time>2011-08-04T10:35:28Z</time>
      </trkpt>
      <trkpt lat="45.41188" lon="5.58426">
        <ele>812</ele>
        <time>2011-08-04T10:35:33Z</time>
      </trkpt>
      <trkpt lat="45.41184" lon="5.58426">
        <ele>812</ele>
        <time>2011-08-04T10:35:37Z</time>
      </trkpt>
      <trkpt lat="45.41179" lon="5.58422">
        <ele>812</ele>
        <time>2011-08-04T10:35:41Z</time>
      </trkpt>
      <trkpt lat="45.41175" lon="5.58418">
        <ele>813</ele>
        <time>2011-08-04T10:35:47Z</time>
      </trkpt>
      <trkpt lat="45.41174" lon="5.58411">
        <ele>807</ele>
        <time>2011-08-04T10:36:12Z</time>
      </trkpt>
      <trkpt lat="45.41171" lon="5.58405">
        <ele>804</ele>
        <time>2011-08-04T10:36:18Z</time>
      </trkpt>
      <trkpt lat="45.41167" lon="5.584">
        <ele>801</ele>
        <time>2011-08-04T10:36:41Z</time>
      </trkpt>
      <trkpt lat="45.41163" lon="5.58396">
        <ele>798</ele>
        <time>2011-08-04T10:36:59Z</time>
      </trkpt>
      <trkpt lat="45.41158" lon="5.58392">
        <ele>797</ele>
        <time>2011-08-04T10:37:04Z</time>
      </trkpt>
      <trkpt lat="45.41154" lon="5.58384">
        <ele>798</ele>
        <time>2011-08-04T10:37:08Z</time>
      </trkpt>
      <trkpt lat="45.41153" lon="5.58375">
        <ele>797</ele>
        <time>2011-08-04T10:37:11Z</time>
      </trkpt>
      <trkpt lat="45.41152" lon="5.58367">
        <ele>796</ele>
        <time>2011-08-04T10:37:14Z</time>
      </trkpt>
      <trkpt lat="45.41151" lon="5.58359">
        <ele>794</ele>
        <time>2011-08-04T10:37:17Z</time>
      </trkpt>
      <trkpt lat="45.41148" lon="5.58353">
        <ele>793</ele>
        <time>2011-08-04T10:37:19Z</time>
      </trkpt>
      <trkpt lat="45.41145" lon="5.58346">
        <ele>792</ele>
        <time>2011-08-04T10:37:21Z</time>
      </trkpt>
      <trkpt lat="45.41147" lon="5.58339">
        <ele>790</ele>
        <time>2011-08-04T10:37:25Z</time>
      </trkpt>
      <trkpt lat="45.41147" lon="5.58331">
        <ele>789</ele>
        <time>2011-08-04T10:37:29Z</time>
      </trkpt>
      <trkpt lat="45.41144" lon="5.58325">
        <ele>787</ele>
        <time>2011-08-04T10:37:33Z</time>
      </trkpt>
      <trkpt lat="45.41141" lon="5.58319">
        <ele>785</ele>
        <time>2011-08-04T10:37:36Z</time>
      </trkpt>
      <trkpt lat="45.41146" lon="5.58312">
        <ele>783</ele>
        <time>2011-08-04T10:37:41Z</time>
      </trkpt>
      <trkpt lat="45.41141" lon="5.58309">
        <ele>784</ele>
        <time>2011-08-04T10:37:51Z</time>
      </trkpt>
      <trkpt lat="45.41134" lon="5.58307">
        <ele>784</ele>
        <time>2011-08-04T10:37:56Z</time>
      </trkpt>
      <trkpt lat="45.4113" lon="5.58306">
        <ele>784</ele>
        <time>2011-08-04T10:37:59Z</time>
      </trkpt>
      <trkpt lat="45.41125" lon="5.58304">
        <ele>782</ele>
        <time>2011-08-04T10:38:02Z</time>
      </trkpt>
      <trkpt lat="45.41121" lon="5.58298">
        <ele>780</ele>
        <time>2011-08-04T10:38:06Z</time>
      </trkpt>
      <trkpt lat="45.41119" lon="5.58292">
        <ele>779</ele>
        <time>2011-08-04T10:38:09Z</time>
      </trkpt>
      <trkpt lat="45.41117" lon="5.58285">
        <ele>778</ele>
        <time>2011-08-04T10:38:12Z</time>
      </trkpt>
      <trkpt lat="45.41117" lon="5.58278">
        <ele>777</ele>
        <time>2011-08-04T10:38:15Z</time>
      </trkpt>
      <trkpt lat="45.41118" lon="5.5827">
        <ele>773</ele>
        <time>2011-08-04T10:38:18Z</time>
      </trkpt>
      <trkpt lat="45.41119" lon="5.58263">
        <ele>771</ele>
        <time>2011-08-04T10:38:22Z</time>
      </trkpt>
      <trkpt lat="45.4112" lon="5.58255">
        <ele>770</ele>
        <time>2011-08-04T10:38:26Z</time>
      </trkpt>
      <trkpt lat="45.41121" lon="5.58248">
        <ele>769</ele>
        <time>2011-08-04T10:38:30Z</time>
      </trkpt>
      <trkpt lat="45.41122" lon="5.58241">
        <ele>768</ele>
        <time>2011-08-04T10:38:35Z</time>
      </trkpt>
      <trkpt lat="45.41124" lon="5.58233">
        <ele>768</ele>
        <time>2011-08-04T10:38:39Z</time>
      </trkpt>
      <trkpt lat="45.41123" lon="5.58226">
        <ele>767</ele>
        <time>2011-08-04T10:38:43Z</time>
      </trkpt>
      <trkpt lat="45.41121" lon="5.5822">
        <ele>767</ele>
        <time>2011-08-04T10:38:48Z</time>
      </trkpt>
      <trkpt lat="45.41116" lon="5.58215">
        <ele>767</ele>
        <time>2011-08-04T10:38:53Z</time>
      </trkpt>
      <trkpt lat="45.41113" lon="5.5821">
        <ele>767</ele>
        <time>2011-08-04T10:38:57Z</time>
      </trkpt>
      <trkpt lat="45.41112" lon="5.58203">
        <ele>765</ele>
        <time>2011-08-04T10:39:04Z</time>
      </trkpt>
      <trkpt lat="45.41111" lon="5.58196">
        <ele>765</ele>
        <time>2011-08-04T10:39:08Z</time>
      </trkpt>
      <trkpt lat="45.4111" lon="5.58188">
        <ele>764</ele>
        <time>2011-08-04T10:39:12Z</time>
      </trkpt>
      <trkpt lat="45.41109" lon="5.58181">
        <ele>764</ele>
        <time>2011-08-04T10:39:15Z</time>
      </trkpt>
      <trkpt lat="45.41109" lon="5.58175">
        <ele>763</ele>
        <time>2011-08-04T10:39:18Z</time>
      </trkpt>
      <trkpt lat="45.41108" lon="5.58168">
        <ele>762</ele>
        <time>2011-08-04T10:39:22Z</time>
      </trkpt>
      <trkpt lat="45.41107" lon="5.58161">
        <ele>762</ele>
        <time>2011-08-04T10:39:26Z</time>
      </trkpt>
      <trkpt lat="45.41106" lon="5.58153">
        <ele>760</ele>
        <time>2011-08-04T10:39:30Z</time>
      </trkpt>
      <trkpt lat="45.41105" lon="5.58146">
        <ele>759</ele>
        <time>2011-08-04T10:39:34Z</time>
      </trkpt>
      <trkpt lat="45.41102" lon="5.58139">
        <ele>759</ele>
        <time>2011-08-04T10:39:40Z</time>
      </trkpt>
      <trkpt lat="45.41099" lon="5.58133">
        <ele>761</ele>
        <time>2011-08-04T10:39:45Z</time>
      </trkpt>
      <trkpt lat="45.41099" lon="5.58126">
        <ele>761</ele>
        <time>2011-08-04T10:41:13Z</time>
      </trkpt>
      <trkpt lat="45.41101" lon="5.58119">
        <ele>759</ele>
        <time>2011-08-04T10:41:17Z</time>
      </trkpt>
      <trkpt lat="45.41101" lon="5.58113">
        <ele>757</ele>
        <time>2011-08-04T10:41:21Z</time>
      </trkpt>
      <trkpt lat="45.41099" lon="5.58105">
        <ele>755</ele>
        <time>2011-08-04T10:41:25Z</time>
      </trkpt>
      <trkpt lat="45.41098" lon="5.58097">
        <ele>754</ele>
        <time>2011-08-04T10:41:30Z</time>
      </trkpt>
      <trkpt lat="45.41096" lon="5.5809">
        <ele>754</ele>
        <time>2011-08-04T10:41:34Z</time>
      </trkpt>
      <trkpt lat="45.41094" lon="5.58084">
        <ele>754</ele>
        <time>2011-08-04T10:41:38Z</time>
      </trkpt>
      <trkpt lat="45.41091" lon="5.58079">
        <ele>754</ele>
        <time>2011-08-04T10:41:43Z</time>
      </trkpt>
      <trkpt lat="45.41087" lon="5.58076">
        <ele>753</ele>
        <time>2011-08-04T10:42:30Z</time>
      </trkpt>
      <trkpt lat="45.41083" lon="5.58071">
        <ele>754</ele>
        <time>2011-08-04T10:42:34Z</time>
      </trkpt>
      <trkpt lat="45.41079" lon="5.58065">
        <ele>753</ele>
        <time>2011-08-04T10:42:38Z</time>
      </trkpt>
      <trkpt lat="45.41076" lon="5.5806">
        <ele>753</ele>
        <time>2011-08-04T10:42:41Z</time>
      </trkpt>
      <trkpt lat="45.41072" lon="5.58055">
        <ele>751</ele>
        <time>2011-08-04T10:42:45Z</time>
      </trkpt>
      <trkpt lat="45.41068" lon="5.58051">
        <ele>751</ele>
        <time>2011-08-04T10:42:49Z</time>
      </trkpt>
      <trkpt lat="45.41064" lon="5.58047">
        <ele>751</ele>
        <time>2011-08-04T10:42:53Z</time>
      </trkpt>
      <trkpt lat="45.4106" lon="5.58042">
        <ele>751</ele>
        <time>2011-08-04T10:42:56Z</time>
      </trkpt>
      <trkpt lat="45.41057" lon="5.58036">
        <ele>751</ele>
        <time>2011-08-04T10:42:59Z</time>
      </trkpt>
      <trkpt lat="45.41053" lon="5.5803">
        <ele>750</ele>
        <time>2011-08-04T10:43:03Z</time>
      </trkpt>
      <trkpt lat="45.41049" lon="5.58025">
        <ele>751</ele>
        <time>2011-08-04T10:43:07Z</time>
      </trkpt>
      <trkpt lat="45.41045" lon="5.58018">
        <ele>750</ele>
        <time>2011-08-04T10:43:12Z</time>
      </trkpt>
      <trkpt lat="45.4104" lon="5.58016">
        <ele>751</ele>
        <time>2011-08-04T10:43:16Z</time>
      </trkpt>
      <trkpt lat="45.41036" lon="5.58012">
        <ele>750</ele>
        <time>2011-08-04T10:43:19Z</time>
      </trkpt>
      <trkpt lat="45.41032" lon="5.58006">
        <ele>750</ele>
        <time>2011-08-04T10:43:23Z</time>
      </trkpt>
      <trkpt lat="45.41029" lon="5.57999">
        <ele>749</ele>
        <time>2011-08-04T10:43:27Z</time>
      </trkpt>
      <trkpt lat="45.41024" lon="5.57996">
        <ele>749</ele>
        <time>2011-08-04T10:43:30Z</time>
      </trkpt>
      <trkpt lat="45.4102" lon="5.57993">
        <ele>749</ele>
        <time>2011-08-04T10:43:33Z</time>
      </trkpt>
      <trkpt lat="45.41016" lon="5.57988">
        <ele>749</ele>
        <time>2011-08-04T10:43:37Z</time>
      </trkpt>
      <trkpt lat="45.41012" lon="5.57983">
        <ele>747</ele>
        <time>2011-08-04T10:43:40Z</time>
      </trkpt>
      <trkpt lat="45.41011" lon="5.57976">
        <ele>745</ele>
        <time>2011-08-04T10:43:43Z</time>
      </trkpt>
      <trkpt lat="45.41008" lon="5.57969">
        <ele>744</ele>
        <time>2011-08-04T10:43:47Z</time>
      </trkpt>
      <trkpt lat="45.41007" lon="5.57961">
        <ele>742</ele>
        <time>2011-08-04T10:43:50Z</time>
      </trkpt>
      <trkpt lat="45.41004" lon="5.57954">
        <ele>741</ele>
        <time>2011-08-04T10:43:56Z</time>
      </trkpt>
      <trkpt lat="45.41002" lon="5.57948">
        <ele>741</ele>
        <time>2011-08-04T10:43:59Z</time>
      </trkpt>
      <trkpt lat="45.41" lon="5.5794">
        <ele>740</ele>
        <time>2011-08-04T10:44:03Z</time>
      </trkpt>
      <trkpt lat="45.40997" lon="5.57933">
        <ele>739</ele>
        <time>2011-08-04T10:44:07Z</time>
      </trkpt>
      <trkpt lat="45.40997" lon="5.57933">
        <ele>739</ele>
        <time>2011-08-04T10:44:07Z</time>
      </trkpt>
      <trkpt lat="45.40997" lon="5.57933">
        <ele>735</ele>
        <time>2011-08-04T10:46:35Z</time>
      </trkpt>
      <trkpt lat="45.40998" lon="5.57926">
        <ele>734</ele>
        <time>2011-08-04T10:46:38Z</time>
      </trkpt>
      <trkpt lat="45.40996" lon="5.57918">
        <ele>734</ele>
        <time>2011-08-04T10:46:42Z</time>
      </trkpt>
      <trkpt lat="45.40995" lon="5.57912">
        <ele>733</ele>
        <time>2011-08-04T10:46:46Z</time>
      </trkpt>
      <trkpt lat="45.40994" lon="5.57905">
        <ele>733</ele>
        <time>2011-08-04T10:46:50Z</time>
      </trkpt>
      <trkpt lat="45.40994" lon="5.57898">
        <ele>732</ele>
        <time>2011-08-04T10:46:53Z</time>
      </trkpt>
      <trkpt lat="45.40994" lon="5.5789">
        <ele>731</ele>
        <time>2011-08-04T10:46:57Z</time>
      </trkpt>
      <trkpt lat="45.40994" lon="5.57882">
        <ele>730</ele>
        <time>2011-08-04T10:47:01Z</time>
      </trkpt>
      <trkpt lat="45.40994" lon="5.57874">
        <ele>729</ele>
        <time>2011-08-04T10:47:05Z</time>
      </trkpt>
      <trkpt lat="45.40994" lon="5.57867">
        <ele>728</ele>
        <time>2011-08-04T10:47:08Z</time>
      </trkpt>
      <trkpt lat="45.40994" lon="5.57859">
        <ele>728</ele>
        <time>2011-08-04T10:47:12Z</time>
      </trkpt>
      <trkpt lat="45.40994" lon="5.57853">
        <ele>728</ele>
        <time>2011-08-04T10:47:15Z</time>
      </trkpt>
      <trkpt lat="45.40995" lon="5.57846">
        <ele>728</ele>
        <time>2011-08-04T10:47:19Z</time>
      </trkpt>
      <trkpt lat="45.40997" lon="5.57839">
        <ele>728</ele>
        <time>2011-08-04T10:47:23Z</time>
      </trkpt>
      <trkpt lat="45.40999" lon="5.57832">
        <ele>728</ele>
        <time>2011-08-04T10:47:26Z</time>
      </trkpt>
      <trkpt lat="45.41" lon="5.57825">
        <ele>727</ele>
        <time>2011-08-04T10:47:30Z</time>
      </trkpt>
      <trkpt lat="45.41002" lon="5.57818">
        <ele>727</ele>
        <time>2011-08-04T10:47:34Z</time>
      </trkpt>
      <trkpt lat="45.41003" lon="5.57811">
        <ele>728</ele>
        <time>2011-08-04T10:47:38Z</time>
      </trkpt>
      <trkpt lat="45.41006" lon="5.57804">
        <ele>729</ele>
        <time>2011-08-04T10:47:43Z</time>
      </trkpt>
      <trkpt lat="45.41009" lon="5.57798">
        <ele>730</ele>
        <time>2011-08-04T10:47:46Z</time>
      </trkpt>
      <trkpt lat="45.41012" lon="5.5779">
        <ele>730</ele>
        <time>2011-08-04T10:47:50Z</time>
      </trkpt>
      <trkpt lat="45.41013" lon="5.57779">
        <ele>728</ele>
        <time>2011-08-04T10:47:56Z</time>
      </trkpt>
      <trkpt lat="45.41015" lon="5.57772">
        <ele>727</ele>
        <time>2011-08-04T10:48:00Z</time>
      </trkpt>
      <trkpt lat="45.41017" lon="5.57764">
        <ele>726</ele>
        <time>2011-08-04T10:48:04Z</time>
      </trkpt>
      <trkpt lat="45.41019" lon="5.57757">
        <ele>723</ele>
        <time>2011-08-04T10:48:07Z</time>
      </trkpt>
      <trkpt lat="45.41021" lon="5.57751">
        <ele>723</ele>
        <time>2011-08-04T10:48:10Z</time>
      </trkpt>
      <trkpt lat="45.41022" lon="5.57744">
        <ele>723</ele>
        <time>2011-08-04T10:48:14Z</time>
      </trkpt>
      <trkpt lat="45.41022" lon="5.57737">
        <ele>724</ele>
        <time>2011-08-04T10:48:19Z</time>
      </trkpt>
      <trkpt lat="45.41023" lon="5.5773">
        <ele>722</ele>
        <time>2011-08-04T10:48:23Z</time>
      </trkpt>
      <trkpt lat="45.41025" lon="5.57724">
        <ele>723</ele>
        <time>2011-08-04T10:48:27Z</time>
      </trkpt>
      <trkpt lat="45.41024" lon="5.57717">
        <ele>720</ele>
        <time>2011-08-04T10:48:31Z</time>
      </trkpt>
      <trkpt lat="45.41025" lon="5.5771">
        <ele>719</ele>
        <time>2011-08-04T10:48:34Z</time>
      </trkpt>
      <trkpt lat="45.41028" lon="5.57702">
        <ele>719</ele>
        <time>2011-08-04T10:48:37Z</time>
      </trkpt>
      <trkpt lat="45.41027" lon="5.57695">
        <ele>720</ele>
        <time>2011-08-04T10:48:40Z</time>
      </trkpt>
      <trkpt lat="45.41024" lon="5.5769">
        <ele>722</ele>
        <time>2011-08-04T10:48:43Z</time>
      </trkpt>
      <trkpt lat="45.41022" lon="5.57683">
        <ele>724</ele>
        <time>2011-08-04T10:48:46Z</time>
      </trkpt>
      <trkpt lat="45.41018" lon="5.57676">
        <ele>729</ele>
        <time>2011-08-04T10:48:49Z</time>
      </trkpt>
      <trkpt lat="45.41016" lon="5.57669">
        <ele>730</ele>
        <time>2011-08-04T10:48:54Z</time>
      </trkpt>
      <trkpt lat="45.41012" lon="5.57663">
        <ele>732</ele>
        <time>2011-08-04T10:48:58Z</time>
      </trkpt>
      <trkpt lat="45.41009" lon="5.57656">
        <ele>732</ele>
        <time>2011-08-04T10:49:01Z</time>
      </trkpt>
      <trkpt lat="45.41006" lon="5.57652">
        <ele>733</ele>
        <time>2011-08-04T10:49:03Z</time>
      </trkpt>
      <trkpt lat="45.41001" lon="5.57648">
        <ele>735</ele>
        <time>2011-08-04T10:49:06Z</time>
      </trkpt>
      <trkpt lat="45.40994" lon="5.57646">
        <ele>737</ele>
        <time>2011-08-04T10:49:09Z</time>
      </trkpt>
      <trkpt lat="45.40988" lon="5.57644">
        <ele>738</ele>
        <time>2011-08-04T10:49:12Z</time>
      </trkpt>
      <trkpt lat="45.40984" lon="5.57638">
        <ele>739</ele>
        <time>2011-08-04T10:49:15Z</time>
      </trkpt>
      <trkpt lat="45.4098" lon="5.57633">
        <ele>739</ele>
        <time>2011-08-04T10:49:17Z</time>
      </trkpt>
      <trkpt lat="45.40976" lon="5.57629">
        <ele>739</ele>
        <time>2011-08-04T10:49:20Z</time>
      </trkpt>
      <trkpt lat="45.40973" lon="5.57624">
        <ele>739</ele>
        <time>2011-08-04T10:49:23Z</time>
      </trkpt>
      <trkpt lat="45.4097" lon="5.57617">
        <ele>739</ele>
        <time>2011-08-04T10:49:27Z</time>
      </trkpt>
      <trkpt lat="45.40966" lon="5.57612">
        <ele>739</ele>
        <time>2011-08-04T10:49:29Z</time>
      </trkpt>
      <trkpt lat="45.40963" lon="5.57607">
        <ele>739</ele>
        <time>2011-08-04T10:49:32Z</time>
      </trkpt>
      <trkpt lat="45.40959" lon="5.57602">
        <ele>740</ele>
        <time>2011-08-04T10:49:35Z</time>
      </trkpt>
      <trkpt lat="45.40958" lon="5.57593">
        <ele>737</ele>
        <time>2011-08-04T10:49:38Z</time>
      </trkpt>
      <trkpt lat="45.40958" lon="5.57586">
        <ele>733</ele>
        <time>2011-08-04T10:49:40Z</time>
      </trkpt>
      <trkpt lat="45.40956" lon="5.57579">
        <ele>727</ele>
        <time>2011-08-04T10:49:44Z</time>
      </trkpt>
      <trkpt lat="45.40955" lon="5.57572">
        <ele>721</ele>
        <time>2011-08-04T10:49:48Z</time>
      </trkpt>
      <trkpt lat="45.40952" lon="5.57565">
        <ele>718</ele>
        <time>2011-08-04T10:49:53Z</time>
      </trkpt>
      <trkpt lat="45.40948" lon="5.57558">
        <ele>718</ele>
        <time>2011-08-04T10:49:57Z</time>
      </trkpt>
      <trkpt lat="45.40944" lon="5.57552">
        <ele>716</ele>
        <time>2011-08-04T10:50:02Z</time>
      </trkpt>
      <trkpt lat="45.4094" lon="5.57548">
        <ele>716</ele>
        <time>2011-08-04T10:50:06Z</time>
      </trkpt>
      <trkpt lat="45.40935" lon="5.57543">
        <ele>717</ele>
        <time>2011-08-04T10:50:10Z</time>
      </trkpt>
      <trkpt lat="45.40931" lon="5.57539">
        <ele>715</ele>
        <time>2011-08-04T10:50:13Z</time>
      </trkpt>
      <trkpt lat="45.40927" lon="5.57535">
        <ele>713</ele>
        <time>2011-08-04T10:50:17Z</time>
      </trkpt>
      <trkpt lat="45.40921" lon="5.57532">
        <ele>712</ele>
        <time>2011-08-04T10:50:21Z</time>
      </trkpt>
      <trkpt lat="45.40915" lon="5.5753">
        <ele>710</ele>
        <time>2011-08-04T10:50:25Z</time>
      </trkpt>
      <trkpt lat="45.4091" lon="5.57528">
        <ele>710</ele>
        <time>2011-08-04T10:50:29Z</time>
      </trkpt>
      <trkpt lat="45.40904" lon="5.57527">
        <ele>710</ele>
        <time>2011-08-04T10:50:33Z</time>
      </trkpt>
      <trkpt lat="45.40899" lon="5.57526">
        <ele>710</ele>
        <time>2011-08-04T10:50:36Z</time>
      </trkpt>
      <trkpt lat="45.40893" lon="5.57527">
        <ele>709</ele>
        <time>2011-08-04T10:50:40Z</time>
      </trkpt>
      <trkpt lat="45.40888" lon="5.57527">
        <ele>709</ele>
        <time>2011-08-04T10:50:43Z</time>
      </trkpt>
      <trkpt lat="45.40883" lon="5.57527">
        <ele>709</ele>
        <time>2011-08-04T10:50:46Z</time>
      </trkpt>
      <trkpt lat="45.40877" lon="5.57527">
        <ele>709</ele>
        <time>2011-08-04T10:50:50Z</time>
      </trkpt>
      <trkpt lat="45.40872" lon="5.57528">
        <ele>709</ele>
        <time>2011-08-04T10:50:53Z</time>
      </trkpt>
      <trkpt lat="45.40868" lon="5.57528">
        <ele>708</ele>
        <time>2011-08-04T10:50:56Z</time>
      </trkpt>
      <trkpt lat="45.40863" lon="5.57529">
        <ele>708</ele>
        <time>2011-08-04T10:50:59Z</time>
      </trkpt>
      <trkpt lat="45.40858" lon="5.5753">
        <ele>708</ele>
        <time>2011-08-04T10:51:03Z</time>
      </trkpt>
      <trkpt lat="45.40851" lon="5.57531">
        <ele>707</ele>
        <time>2011-08-04T10:51:07Z</time>
      </trkpt>
      <trkpt lat="45.40845" lon="5.57532">
        <ele>707</ele>
        <time>2011-08-04T10:51:11Z</time>
      </trkpt>
      <trkpt lat="45.40838" lon="5.57532">
        <ele>706</ele>
        <time>2011-08-04T10:51:15Z</time>
      </trkpt>
      <trkpt lat="45.40832" lon="5.57532">
        <ele>705</ele>
        <time>2011-08-04T10:51:18Z</time>
      </trkpt>
      <trkpt lat="45.40828" lon="5.57532">
        <ele>705</ele>
        <time>2011-08-04T10:51:21Z</time>
      </trkpt>
      <trkpt lat="45.40824" lon="5.57536">
        <ele>705</ele>
        <time>2011-08-04T10:51:24Z</time>
      </trkpt>
      <trkpt lat="45.40818" lon="5.57541">
        <ele>705</ele>
        <time>2011-08-04T10:51:27Z</time>
      </trkpt>
      <trkpt lat="45.40815" lon="5.57546">
        <ele>705</ele>
        <time>2011-08-04T10:51:32Z</time>
      </trkpt>
      <trkpt lat="45.40811" lon="5.57549">
        <ele>706</ele>
        <time>2011-08-04T10:51:37Z</time>
      </trkpt>
      <trkpt lat="45.40807" lon="5.57557">
        <ele>706</ele>
        <time>2011-08-04T10:51:40Z</time>
      </trkpt>
      <trkpt lat="45.40803" lon="5.5756">
        <ele>705</ele>
        <time>2011-08-04T10:51:41Z</time>
      </trkpt>
      <trkpt lat="45.40798" lon="5.57568">
        <ele>705</ele>
        <time>2011-08-04T10:51:44Z</time>
      </trkpt>
      <trkpt lat="45.40794" lon="5.57567">
        <ele>703</ele>
        <time>2011-08-04T10:51:47Z</time>
      </trkpt>
      <trkpt lat="45.40789" lon="5.5757">
        <ele>703</ele>
        <time>2011-08-04T10:51:51Z</time>
      </trkpt>
      <trkpt lat="45.40785" lon="5.57576">
        <ele>701</ele>
        <time>2011-08-04T10:51:56Z</time>
      </trkpt>
      <trkpt lat="45.40781" lon="5.57583">
        <ele>701</ele>
        <time>2011-08-04T10:51:59Z</time>
      </trkpt>
      <trkpt lat="45.40778" lon="5.57588">
        <ele>701</ele>
        <time>2011-08-04T10:52:02Z</time>
      </trkpt>
      <trkpt lat="45.40773" lon="5.57595">
        <ele>701</ele>
        <time>2011-08-04T10:52:06Z</time>
      </trkpt>
      <trkpt lat="45.40768" lon="5.57601">
        <ele>701</ele>
        <time>2011-08-04T10:52:10Z</time>
      </trkpt>
      <trkpt lat="45.40765" lon="5.57607">
        <ele>700</ele>
        <time>2011-08-04T10:52:14Z</time>
      </trkpt>
      <trkpt lat="45.40764" lon="5.57616">
        <ele>699</ele>
        <time>2011-08-04T10:52:18Z</time>
      </trkpt>
      <trkpt lat="45.40763" lon="5.57622">
        <ele>699</ele>
        <time>2011-08-04T10:52:20Z</time>
      </trkpt>
      <trkpt lat="45.40767" lon="5.57626">
        <ele>700</ele>
        <time>2011-08-04T10:52:25Z</time>
      </trkpt>
      <trkpt lat="45.40765" lon="5.57634">
        <ele>699</ele>
        <time>2011-08-04T10:52:28Z</time>
      </trkpt>
      <trkpt lat="45.40767" lon="5.57641">
        <ele>699</ele>
        <time>2011-08-04T10:52:31Z</time>
      </trkpt>
      <trkpt lat="45.40765" lon="5.57648">
        <ele>699</ele>
        <time>2011-08-04T10:52:33Z</time>
      </trkpt>
      <trkpt lat="45.40766" lon="5.57658">
        <ele>698</ele>
        <time>2011-08-04T10:52:39Z</time>
      </trkpt>
      <trkpt lat="45.40767" lon="5.57666">
        <ele>697</ele>
        <time>2011-08-04T10:52:44Z</time>
      </trkpt>
      <trkpt lat="45.40768" lon="5.57672">
        <ele>695</ele>
        <time>2011-08-04T10:52:48Z</time>
      </trkpt>
      <trkpt lat="45.40763" lon="5.57682">
        <ele>694</ele>
        <time>2011-08-04T10:52:52Z</time>
      </trkpt>
      <trkpt lat="45.4076" lon="5.57691">
        <ele>692</ele>
        <time>2011-08-04T10:52:54Z</time>
      </trkpt>
      <trkpt lat="45.40758" lon="5.57697">
        <ele>692</ele>
        <time>2011-08-04T10:52:57Z</time>
      </trkpt>
      <trkpt lat="45.40757" lon="5.57704">
        <ele>692</ele>
        <time>2011-08-04T10:52:59Z</time>
      </trkpt>
      <trkpt lat="45.40756" lon="5.57711">
        <ele>692</ele>
        <time>2011-08-04T10:53:01Z</time>
      </trkpt>
      <trkpt lat="45.40754" lon="5.5772">
        <ele>692</ele>
        <time>2011-08-04T10:53:08Z</time>
      </trkpt>
      <trkpt lat="45.40751" lon="5.57727">
        <ele>690</ele>
        <time>2011-08-04T10:53:12Z</time>
      </trkpt>
      <trkpt lat="45.40749" lon="5.57733">
        <ele>690</ele>
        <time>2011-08-04T10:53:15Z</time>
      </trkpt>
      <trkpt lat="45.40746" lon="5.5774">
        <ele>689</ele>
        <time>2011-08-04T10:53:18Z</time>
      </trkpt>
      <trkpt lat="45.40743" lon="5.57746">
        <ele>687</ele>
        <time>2011-08-04T10:53:23Z</time>
      </trkpt>
      <trkpt lat="45.40739" lon="5.5775">
        <ele>685</ele>
        <time>2011-08-04T10:53:26Z</time>
      </trkpt>
      <trkpt lat="45.40734" lon="5.57751">
        <ele>685</ele>
        <time>2011-08-04T10:53:30Z</time>
      </trkpt>
      <trkpt lat="45.40728" lon="5.57751">
        <ele>683</ele>
        <time>2011-08-04T10:53:34Z</time>
      </trkpt>
      <trkpt lat="45.40723" lon="5.57751">
        <ele>682</ele>
        <time>2011-08-04T10:53:37Z</time>
      </trkpt>
      <trkpt lat="45.40718" lon="5.57751">
        <ele>682</ele>
        <time>2011-08-04T10:53:41Z</time>
      </trkpt>
      <trkpt lat="45.40713" lon="5.57751">
        <ele>681</ele>
        <time>2011-08-04T10:53:44Z</time>
      </trkpt>
      <trkpt lat="45.40708" lon="5.5775">
        <ele>680</ele>
        <time>2011-08-04T10:53:47Z</time>
      </trkpt>
      <trkpt lat="45.40703" lon="5.5775">
        <ele>679</ele>
        <time>2011-08-04T10:53:50Z</time>
      </trkpt>
      <trkpt lat="45.40698" lon="5.57748">
        <ele>678</ele>
        <time>2011-08-04T10:53:54Z</time>
      </trkpt>
      <trkpt lat="45.40693" lon="5.57748">
        <ele>677</ele>
        <time>2011-08-04T10:53:58Z</time>
      </trkpt>
      <trkpt lat="45.40687" lon="5.57747">
        <ele>677</ele>
        <time>2011-08-04T10:54:02Z</time>
      </trkpt>
      <trkpt lat="45.40682" lon="5.57748">
        <ele>677</ele>
        <time>2011-08-04T10:54:06Z</time>
      </trkpt>
      <trkpt lat="45.40677" lon="5.57748">
        <ele>676</ele>
        <time>2011-08-04T10:54:09Z</time>
      </trkpt>
      <trkpt lat="45.40671" lon="5.57744">
        <ele>675</ele>
        <time>2011-08-04T10:54:13Z</time>
      </trkpt>
      <trkpt lat="45.40666" lon="5.57742">
        <ele>674</ele>
        <time>2011-08-04T10:54:17Z</time>
      </trkpt>
      <trkpt lat="45.40661" lon="5.57741">
        <ele>675</ele>
        <time>2011-08-04T10:54:21Z</time>
      </trkpt>
      <trkpt lat="45.40657" lon="5.57736">
        <ele>673</ele>
        <time>2011-08-04T10:54:25Z</time>
      </trkpt>
      <trkpt lat="45.40652" lon="5.57736">
        <ele>674</ele>
        <time>2011-08-04T10:54:29Z</time>
      </trkpt>
      <trkpt lat="45.40647" lon="5.57734">
        <ele>673</ele>
        <time>2011-08-04T10:54:33Z</time>
      </trkpt>
      <trkpt lat="45.40642" lon="5.57733">
        <ele>674</ele>
        <time>2011-08-04T10:54:36Z</time>
      </trkpt>
      <trkpt lat="45.40636" lon="5.57733">
        <ele>674</ele>
        <time>2011-08-04T10:54:40Z</time>
      </trkpt>
      <trkpt lat="45.40632" lon="5.57733">
        <ele>674</ele>
        <time>2011-08-04T10:54:43Z</time>
      </trkpt>
      <trkpt lat="45.40627" lon="5.57731">
        <ele>672</ele>
        <time>2011-08-04T10:54:46Z</time>
      </trkpt>
      <trkpt lat="45.40622" lon="5.5773">
        <ele>672</ele>
        <time>2011-08-04T10:54:48Z</time>
      </trkpt>
      <trkpt lat="45.40617" lon="5.57728">
        <ele>672</ele>
        <time>2011-08-04T10:54:51Z</time>
      </trkpt>
      <trkpt lat="45.40612" lon="5.57724">
        <ele>672</ele>
        <time>2011-08-04T10:54:56Z</time>
      </trkpt>
      <trkpt lat="45.40608" lon="5.57721">
        <ele>669</ele>
        <time>2011-08-04T10:55:00Z</time>
      </trkpt>
      <trkpt lat="45.40603" lon="5.5772">
        <ele>670</ele>
        <time>2011-08-04T10:55:03Z</time>
      </trkpt>
      <trkpt lat="45.40599" lon="5.57713">
        <ele>668</ele>
        <time>2011-08-04T10:55:09Z</time>
      </trkpt>
      <trkpt lat="45.40594" lon="5.57711">
        <ele>667</ele>
        <time>2011-08-04T10:55:13Z</time>
      </trkpt>
      <trkpt lat="45.40589" lon="5.57708">
        <ele>663</ele>
        <time>2011-08-04T10:55:18Z</time>
      </trkpt>
      <trkpt lat="45.40583" lon="5.57708">
        <ele>660</ele>
        <time>2011-08-04T10:55:22Z</time>
      </trkpt>
      <trkpt lat="45.40578" lon="5.57711">
        <ele>659</ele>
        <time>2011-08-04T10:55:28Z</time>
      </trkpt>
      <trkpt lat="45.40572" lon="5.57713">
        <ele>657</ele>
        <time>2011-08-04T10:55:32Z</time>
      </trkpt>
      <trkpt lat="45.40567" lon="5.57713">
        <ele>655</ele>
        <time>2011-08-04T10:55:36Z</time>
      </trkpt>
      <trkpt lat="45.40562" lon="5.57716">
        <ele>655</ele>
        <time>2011-08-04T10:55:40Z</time>
      </trkpt>
      <trkpt lat="45.40557" lon="5.57716">
        <ele>653</ele>
        <time>2011-08-04T10:55:44Z</time>
      </trkpt>
      <trkpt lat="45.40553" lon="5.57719">
        <ele>652</ele>
        <time>2011-08-04T10:55:48Z</time>
      </trkpt>
      <trkpt lat="45.40547" lon="5.57721">
        <ele>651</ele>
        <time>2011-08-04T10:55:52Z</time>
      </trkpt>
      <trkpt lat="45.40543" lon="5.57724">
        <ele>649</ele>
        <time>2011-08-04T10:55:56Z</time>
      </trkpt>
      <trkpt lat="45.40538" lon="5.57726">
        <ele>647</ele>
        <time>2011-08-04T10:56:00Z</time>
      </trkpt>
      <trkpt lat="45.40532" lon="5.57727">
        <ele>645</ele>
        <time>2011-08-04T10:56:04Z</time>
      </trkpt>
      <trkpt lat="45.40527" lon="5.57729">
        <ele>644</ele>
        <time>2011-08-04T10:56:08Z</time>
      </trkpt>
      <trkpt lat="45.40522" lon="5.57732">
        <ele>643</ele>
        <time>2011-08-04T10:56:12Z</time>
      </trkpt>
      <trkpt lat="45.40517" lon="5.57734">
        <ele>642</ele>
        <time>2011-08-04T10:56:15Z</time>
      </trkpt>
      <trkpt lat="45.40512" lon="5.57736">
        <ele>641</ele>
        <time>2011-08-04T10:56:19Z</time>
      </trkpt>
      <trkpt lat="45.40507" lon="5.57737">
        <ele>640</ele>
        <time>2011-08-04T10:56:23Z</time>
      </trkpt>
      <trkpt lat="45.40501" lon="5.57739">
        <ele>638</ele>
        <time>2011-08-04T10:56:27Z</time>
      </trkpt>
      <trkpt lat="45.40496" lon="5.5774">
        <ele>637</ele>
        <time>2011-08-04T10:56:31Z</time>
      </trkpt>
      <trkpt lat="45.40491" lon="5.57741">
        <ele>635</ele>
        <time>2011-08-04T10:56:35Z</time>
      </trkpt>
      <trkpt lat="45.40486" lon="5.57743">
        <ele>635</ele>
        <time>2011-08-04T10:56:39Z</time>
      </trkpt>
      <trkpt lat="45.4048" lon="5.57744">
        <ele>635</ele>
        <time>2011-08-04T10:56:44Z</time>
      </trkpt>
      <trkpt lat="45.40474" lon="5.57742">
        <ele>634</ele>
        <time>2011-08-04T10:56:48Z</time>
      </trkpt>
      <trkpt lat="45.4047" lon="5.5774">
        <ele>632</ele>
        <time>2011-08-04T10:56:52Z</time>
      </trkpt>
      <trkpt lat="45.40465" lon="5.57739">
        <ele>632</ele>
        <time>2011-08-04T10:56:56Z</time>
      </trkpt>
      <trkpt lat="45.4046" lon="5.57736">
        <ele>633</ele>
        <time>2011-08-04T10:57:01Z</time>
      </trkpt>
      <trkpt lat="45.40454" lon="5.57734">
        <ele>632</ele>
        <time>2011-08-04T10:57:05Z</time>
      </trkpt>
      <trkpt lat="45.40449" lon="5.57732">
        <ele>632</ele>
        <time>2011-08-04T10:57:08Z</time>
      </trkpt>
      <trkpt lat="45.40444" lon="5.57729">
        <ele>631</ele>
        <time>2011-08-04T10:57:11Z</time>
      </trkpt>
      <trkpt lat="45.40439" lon="5.57726">
        <ele>630</ele>
        <time>2011-08-04T10:57:15Z</time>
      </trkpt>
      <trkpt lat="45.40434" lon="5.57722">
        <ele>629</ele>
        <time>2011-08-04T10:57:19Z</time>
      </trkpt>
      <trkpt lat="45.40431" lon="5.57717">
        <ele>630</ele>
        <time>2011-08-04T10:57:23Z</time>
      </trkpt>
      <trkpt lat="45.40428" lon="5.57712">
        <ele>630</ele>
        <time>2011-08-04T10:57:26Z</time>
      </trkpt>
      <trkpt lat="45.40426" lon="5.57706">
        <ele>631</ele>
        <time>2011-08-04T10:57:29Z</time>
      </trkpt>
      <trkpt lat="45.40422" lon="5.57702">
        <ele>631</ele>
        <time>2011-08-04T10:57:34Z</time>
      </trkpt>
      <trkpt lat="45.40416" lon="5.57699">
        <ele>631</ele>
        <time>2011-08-04T10:57:38Z</time>
      </trkpt>
      <trkpt lat="45.40412" lon="5.57693">
        <ele>630</ele>
        <time>2011-08-04T10:57:41Z</time>
      </trkpt>
      <trkpt lat="45.40406" lon="5.57691">
        <ele>629</ele>
        <time>2011-08-04T10:57:44Z</time>
      </trkpt>
      <trkpt lat="45.40402" lon="5.57688">
        <ele>629</ele>
        <time>2011-08-04T10:57:47Z</time>
      </trkpt>
      <trkpt lat="45.404" lon="5.57681">
        <ele>625</ele>
        <time>2011-08-04T10:57:49Z</time>
      </trkpt>
      <trkpt lat="45.40403" lon="5.57674">
        <ele>622</ele>
        <time>2011-08-04T10:57:52Z</time>
      </trkpt>
      <trkpt lat="45.40406" lon="5.57666">
        <ele>621</ele>
        <time>2011-08-04T10:57:56Z</time>
      </trkpt>
      <trkpt lat="45.4041" lon="5.5766">
        <ele>619</ele>
        <time>2011-08-04T10:58:00Z</time>
      </trkpt>
      <trkpt lat="45.40413" lon="5.57655">
        <ele>618</ele>
        <time>2011-08-04T10:58:03Z</time>
      </trkpt>
      <trkpt lat="45.40418" lon="5.5765">
        <ele>617</ele>
        <time>2011-08-04T10:58:07Z</time>
      </trkpt>
      <trkpt lat="45.40422" lon="5.57645">
        <ele>616</ele>
        <time>2011-08-04T10:58:11Z</time>
      </trkpt>
      <trkpt lat="45.40426" lon="5.57639">
        <ele>616</ele>
        <time>2011-08-04T10:58:15Z</time>
      </trkpt>
      <trkpt lat="45.4043" lon="5.57633">
        <ele>615</ele>
        <time>2011-08-04T10:58:19Z</time>
      </trkpt>
      <trkpt lat="45.40435" lon="5.57628">
        <ele>614</ele>
        <time>2011-08-04T10:58:23Z</time>
      </trkpt>
      <trkpt lat="45.40439" lon="5.57624">
        <ele>613</ele>
        <time>2011-08-04T10:58:27Z</time>
      </trkpt>
      <trkpt lat="45.40443" lon="5.57618">
        <ele>612</ele>
        <time>2011-08-04T10:58:31Z</time>
      </trkpt>
      <trkpt lat="45.40447" lon="5.57614">
        <ele>612</ele>
        <time>2011-08-04T10:58:34Z</time>
      </trkpt>
      <trkpt lat="45.40451" lon="5.57609">
        <ele>612</ele>
        <time>2011-08-04T10:58:37Z</time>
      </trkpt>
      <trkpt lat="45.40455" lon="5.57604">
        <ele>612</ele>
        <time>2011-08-04T10:58:41Z</time>
      </trkpt>
      <trkpt lat="45.40459" lon="5.57599">
        <ele>611</ele>
        <time>2011-08-04T10:58:45Z</time>
      </trkpt>
      <trkpt lat="45.40463" lon="5.57595">
        <ele>608</ele>
        <time>2011-08-04T10:59:10Z</time>
      </trkpt>
      <trkpt lat="45.40469" lon="5.57588">
        <ele>608</ele>
        <time>2011-08-04T10:59:13Z</time>
      </trkpt>
      <trkpt lat="45.40472" lon="5.57582">
        <ele>608</ele>
        <time>2011-08-04T10:59:15Z</time>
      </trkpt>
      <trkpt lat="45.40477" lon="5.57576">
        <ele>608</ele>
        <time>2011-08-04T10:59:17Z</time>
      </trkpt>
      <trkpt lat="45.40482" lon="5.57569">
        <ele>608</ele>
        <time>2011-08-04T10:59:19Z</time>
      </trkpt>
      <trkpt lat="45.40486" lon="5.57562">
        <ele>607</ele>
        <time>2011-08-04T10:59:21Z</time>
      </trkpt>
      <trkpt lat="45.40491" lon="5.57554">
        <ele>607</ele>
        <time>2011-08-04T10:59:23Z</time>
      </trkpt>
      <trkpt lat="45.40495" lon="5.57548">
        <ele>607</ele>
        <time>2011-08-04T10:59:25Z</time>
      </trkpt>
      <trkpt lat="45.40499" lon="5.5754">
        <ele>607</ele>
        <time>2011-08-04T10:59:27Z</time>
      </trkpt>
      <trkpt lat="45.40502" lon="5.57535">
        <ele>607</ele>
        <time>2011-08-04T10:59:29Z</time>
      </trkpt>
      <trkpt lat="45.40506" lon="5.5753">
        <ele>606</ele>
        <time>2011-08-04T10:59:31Z</time>
      </trkpt>
      <trkpt lat="45.40508" lon="5.57524">
        <ele>606</ele>
        <time>2011-08-04T10:59:34Z</time>
      </trkpt>
      <trkpt lat="45.40513" lon="5.57519">
        <ele>606</ele>
        <time>2011-08-04T10:59:38Z</time>
      </trkpt>
      <trkpt lat="45.40516" lon="5.57513">
        <ele>606</ele>
        <time>2011-08-04T10:59:42Z</time>
      </trkpt>
      <trkpt lat="45.40518" lon="5.57506">
        <ele>607</ele>
        <time>2011-08-04T10:59:46Z</time>
      </trkpt>
      <trkpt lat="45.40519" lon="5.57498">
        <ele>607</ele>
        <time>2011-08-04T10:59:50Z</time>
      </trkpt>
      <trkpt lat="45.40518" lon="5.57491">
        <ele>607</ele>
        <time>2011-08-04T10:59:54Z</time>
      </trkpt>
      <trkpt lat="45.40517" lon="5.57484">
        <ele>606</ele>
        <time>2011-08-04T10:59:58Z</time>
      </trkpt>
      <trkpt lat="45.40516" lon="5.57477">
        <ele>605</ele>
        <time>2011-08-04T11:00:02Z</time>
      </trkpt>
      <trkpt lat="45.40515" lon="5.5747">
        <ele>604</ele>
        <time>2011-08-04T11:00:06Z</time>
      </trkpt>
      <trkpt lat="45.40514" lon="5.57462">
        <ele>603</ele>
        <time>2011-08-04T11:00:10Z</time>
      </trkpt>
      <trkpt lat="45.40514" lon="5.57455">
        <ele>603</ele>
        <time>2011-08-04T11:00:13Z</time>
      </trkpt>
      <trkpt lat="45.40513" lon="5.57449">
        <ele>603</ele>
        <time>2011-08-04T11:00:16Z</time>
      </trkpt>
      <trkpt lat="45.40513" lon="5.5744">
        <ele>602</ele>
        <time>2011-08-04T11:00:20Z</time>
      </trkpt>
      <trkpt lat="45.40513" lon="5.57432">
        <ele>602</ele>
        <time>2011-08-04T11:00:24Z</time>
      </trkpt>
      <trkpt lat="45.40513" lon="5.57425">
        <ele>602</ele>
        <time>2011-08-04T11:00:27Z</time>
      </trkpt>
      <trkpt lat="45.40513" lon="5.57416">
        <ele>602</ele>
        <time>2011-08-04T11:00:31Z</time>
      </trkpt>
      <trkpt lat="45.40512" lon="5.57408">
        <ele>603</ele>
        <time>2011-08-04T11:00:34Z</time>
      </trkpt>
      <trkpt lat="45.40512" lon="5.574">
        <ele>603</ele>
        <time>2011-08-04T11:00:36Z</time>
      </trkpt>
      <trkpt lat="45.4051" lon="5.5739">
        <ele>602</ele>
        <time>2011-08-04T11:00:38Z</time>
      </trkpt>
      <trkpt lat="45.40509" lon="5.57378">
        <ele>602</ele>
        <time>2011-08-04T11:00:40Z</time>
      </trkpt>
      <trkpt lat="45.40508" lon="5.57365">
        <ele>601</ele>
        <time>2011-08-04T11:00:42Z</time>
      </trkpt>
      <trkpt lat="45.40508" lon="5.57352">
        <ele>601</ele>
        <time>2011-08-04T11:00:44Z</time>
      </trkpt>
      <trkpt lat="45.4051" lon="5.57346">
        <ele>601</ele>
        <time>2011-08-04T11:00:45Z</time>
      </trkpt>
      <trkpt lat="45.4051" lon="5.57339">
        <ele>601</ele>
        <time>2011-08-04T11:00:46Z</time>
      </trkpt>
      <trkpt lat="45.40512" lon="5.57328">
        <ele>601</ele>
        <time>2011-08-04T11:00:48Z</time>
      </trkpt>
      <trkpt lat="45.40513" lon="5.57321">
        <ele>601</ele>
        <time>2011-08-04T11:00:49Z</time>
      </trkpt>
      <trkpt lat="45.40513" lon="5.57314">
        <ele>601</ele>
        <time>2011-08-04T11:00:50Z</time>
      </trkpt>
      <trkpt lat="45.40515" lon="5.57303">
        <ele>600</ele>
        <time>2011-08-04T11:00:52Z</time>
      </trkpt>
      <trkpt lat="45.40517" lon="5.57293">
        <ele>599</ele>
        <time>2011-08-04T11:00:54Z</time>
      </trkpt>
      <trkpt lat="45.40518" lon="5.57282">
        <ele>598</ele>
        <time>2011-08-04T11:00:56Z</time>
      </trkpt>
      <trkpt lat="45.4052" lon="5.57271">
        <ele>598</ele>
        <time>2011-08-04T11:00:58Z</time>
      </trkpt>
      <trkpt lat="45.40521" lon="5.5726">
        <ele>598</ele>
        <time>2011-08-04T11:01:00Z</time>
      </trkpt>
      <trkpt lat="45.40522" lon="5.57249">
        <ele>597</ele>
        <time>2011-08-04T11:01:02Z</time>
      </trkpt>
      <trkpt lat="45.40523" lon="5.57238">
        <ele>596</ele>
        <time>2011-08-04T11:01:04Z</time>
      </trkpt>
      <trkpt lat="45.40525" lon="5.57228">
        <ele>595</ele>
        <time>2011-08-04T11:01:06Z</time>
      </trkpt>
      <trkpt lat="45.40528" lon="5.57218">
        <ele>593</ele>
        <time>2011-08-04T11:01:08Z</time>
      </trkpt>
      <trkpt lat="45.40531" lon="5.57207">
        <ele>593</ele>
        <time>2011-08-04T11:01:10Z</time>
      </trkpt>
      <trkpt lat="45.40536" lon="5.57198">
        <ele>593</ele>
        <time>2011-08-04T11:01:12Z</time>
      </trkpt>
      <trkpt lat="45.4054" lon="5.5719">
        <ele>593</ele>
        <time>2011-08-04T11:01:14Z</time>
      </trkpt>
      <trkpt lat="45.40546" lon="5.57183">
        <ele>593</ele>
        <time>2011-08-04T11:01:16Z</time>
      </trkpt>
      <trkpt lat="45.40551" lon="5.57178">
        <ele>593</ele>
        <time>2011-08-04T11:01:18Z</time>
      </trkpt>
      <trkpt lat="45.40556" lon="5.57174">
        <ele>593</ele>
        <time>2011-08-04T11:01:20Z</time>
      </trkpt>
      <trkpt lat="45.4056" lon="5.57172">
        <ele>593</ele>
        <time>2011-08-04T11:01:22Z</time>
      </trkpt>
      <trkpt lat="45.40566" lon="5.5717">
        <ele>594</ele>
        <time>2011-08-04T11:01:26Z</time>
      </trkpt>
      <trkpt lat="45.4057" lon="5.57168">
        <ele>593</ele>
        <time>2011-08-04T11:01:31Z</time>
      </trkpt>
      <trkpt lat="45.40576" lon="5.57167">
        <ele>592</ele>
        <time>2011-08-04T11:01:41Z</time>
      </trkpt>
      <trkpt lat="45.40584" lon="5.57167">
        <ele>590</ele>
        <time>2011-08-04T11:01:49Z</time>
      </trkpt>
      <trkpt lat="45.40591" lon="5.57163">
        <ele>588</ele>
        <time>2011-08-04T11:01:54Z</time>
      </trkpt>
      <trkpt lat="45.40596" lon="5.57161">
        <ele>588</ele>
        <time>2011-08-04T11:01:57Z</time>
      </trkpt>
      <trkpt lat="45.406" lon="5.57155">
        <ele>589</ele>
        <time>2011-08-04T11:02:05Z</time>
      </trkpt>
      <trkpt lat="45.40603" lon="5.57151">
        <ele>591</ele>
        <time>2011-08-04T11:02:08Z</time>
      </trkpt>
      <trkpt lat="45.40609" lon="5.57147">
        <ele>592</ele>
        <time>2011-08-04T11:02:13Z</time>
      </trkpt>
      <trkpt lat="45.40614" lon="5.57146">
        <ele>591</ele>
        <time>2011-08-04T11:02:16Z</time>
      </trkpt>
      <trkpt lat="45.4062" lon="5.57144">
        <ele>590</ele>
        <time>2011-08-04T11:02:18Z</time>
      </trkpt>
      <trkpt lat="45.40625" lon="5.57141">
        <ele>589</ele>
        <time>2011-08-04T11:02:20Z</time>
      </trkpt>
      <trkpt lat="45.40628" lon="5.57136">
        <ele>589</ele>
        <time>2011-08-04T11:02:22Z</time>
      </trkpt>
      <trkpt lat="45.40631" lon="5.5713">
        <ele>588</ele>
        <time>2011-08-04T11:02:27Z</time>
      </trkpt>
      <trkpt lat="45.40633" lon="5.57123">
        <ele>588</ele>
        <time>2011-08-04T11:02:31Z</time>
      </trkpt>
      <trkpt lat="45.40634" lon="5.57116">
        <ele>588</ele>
        <time>2011-08-04T11:02:35Z</time>
      </trkpt>
      <trkpt lat="45.40635" lon="5.5711">
        <ele>588</ele>
        <time>2011-08-04T11:02:39Z</time>
      </trkpt>
      <trkpt lat="45.40634" lon="5.57102">
        <ele>588</ele>
        <time>2011-08-04T11:02:44Z</time>
      </trkpt>
      <trkpt lat="45.40632" lon="5.57095">
        <ele>588</ele>
        <time>2011-08-04T11:02:49Z</time>
      </trkpt>
      <trkpt lat="45.40627" lon="5.57093">
        <ele>589</ele>
        <time>2011-08-04T11:02:56Z</time>
      </trkpt>
      <trkpt lat="45.40623" lon="5.57089">
        <ele>587</ele>
        <time>2011-08-04T11:03:03Z</time>
      </trkpt>
      <trkpt lat="45.4062" lon="5.57085">
        <ele>587</ele>
        <time>2011-08-04T11:03:10Z</time>
      </trkpt>
      <trkpt lat="45.40617" lon="5.57079">
        <ele>589</ele>
        <time>2011-08-04T11:03:16Z</time>
      </trkpt>
      <trkpt lat="45.40613" lon="5.57076">
        <ele>589</ele>
        <time>2011-08-04T11:03:20Z</time>
      </trkpt>
      <trkpt lat="45.4061" lon="5.57068">
        <ele>588</ele>
        <time>2011-08-04T11:03:24Z</time>
      </trkpt>
      <trkpt lat="45.4061" lon="5.57061">
        <ele>588</ele>
        <time>2011-08-04T11:03:27Z</time>
      </trkpt>
      <trkpt lat="45.4061" lon="5.57054">
        <ele>587</ele>
        <time>2011-08-04T11:03:30Z</time>
      </trkpt>
      <trkpt lat="45.4061" lon="5.57047">
        <ele>587</ele>
        <time>2011-08-04T11:03:33Z</time>
      </trkpt>
      <trkpt lat="45.40609" lon="5.57041">
        <ele>586</ele>
        <time>2011-08-04T11:03:36Z</time>
      </trkpt>
      <trkpt lat="45.4061" lon="5.57034">
        <ele>585</ele>
        <time>2011-08-04T11:03:39Z</time>
      </trkpt>
      <trkpt lat="45.40612" lon="5.57026">
        <ele>584</ele>
        <time>2011-08-04T11:03:42Z</time>
      </trkpt>
      <trkpt lat="45.40613" lon="5.5702">
        <ele>583</ele>
        <time>2011-08-04T11:03:44Z</time>
      </trkpt>
      <trkpt lat="45.40614" lon="5.57013">
        <ele>582</ele>
        <time>2011-08-04T11:03:47Z</time>
      </trkpt>
      <trkpt lat="45.40614" lon="5.57005">
        <ele>581</ele>
        <time>2011-08-04T11:03:52Z</time>
      </trkpt>
      <trkpt lat="45.40613" lon="5.56997">
        <ele>580</ele>
        <time>2011-08-04T11:03:56Z</time>
      </trkpt>
      <trkpt lat="45.40614" lon="5.5699">
        <ele>579</ele>
        <time>2011-08-04T11:03:59Z</time>
      </trkpt>
      <trkpt lat="45.40613" lon="5.56983">
        <ele>579</ele>
        <time>2011-08-04T11:04:02Z</time>
      </trkpt>
      <trkpt lat="45.40613" lon="5.56974">
        <ele>579</ele>
        <time>2011-08-04T11:04:05Z</time>
      </trkpt>
      <trkpt lat="45.40614" lon="5.56968">
        <ele>579</ele>
        <time>2011-08-04T11:04:08Z</time>
      </trkpt>
      <trkpt lat="45.40614" lon="5.5696">
        <ele>579</ele>
        <time>2011-08-04T11:04:11Z</time>
      </trkpt>
      <trkpt lat="45.40615" lon="5.56953">
        <ele>577</ele>
        <time>2011-08-04T11:04:15Z</time>
      </trkpt>
      <trkpt lat="45.40617" lon="5.56946">
        <ele>576</ele>
        <time>2011-08-04T11:04:20Z</time>
      </trkpt>
      <trkpt lat="45.40618" lon="5.56939">
        <ele>575</ele>
        <time>2011-08-04T11:04:24Z</time>
      </trkpt>
      <trkpt lat="45.40616" lon="5.56931">
        <ele>573</ele>
        <time>2011-08-04T11:04:28Z</time>
      </trkpt>
      <trkpt lat="45.40617" lon="5.56922">
        <ele>571</ele>
        <time>2011-08-04T11:04:34Z</time>
      </trkpt>
      <trkpt lat="45.40615" lon="5.56915">
        <ele>569</ele>
        <time>2011-08-04T11:04:38Z</time>
      </trkpt>
      <trkpt lat="45.40612" lon="5.56909">
        <ele>568</ele>
        <time>2011-08-04T11:04:43Z</time>
      </trkpt>
      <trkpt lat="45.40608" lon="5.56906">
        <ele>567</ele>
        <time>2011-08-04T11:04:52Z</time>
      </trkpt>
      <trkpt lat="45.4061" lon="5.569">
        <ele>565</ele>
        <time>2011-08-04T11:05:01Z</time>
      </trkpt>
      <trkpt lat="45.40613" lon="5.56894">
        <ele>563</ele>
        <time>2011-08-04T11:05:04Z</time>
      </trkpt>
      <trkpt lat="45.40616" lon="5.56887">
        <ele>562</ele>
        <time>2011-08-04T11:05:08Z</time>
      </trkpt>
      <trkpt lat="45.40619" lon="5.56882">
        <ele>561</ele>
        <time>2011-08-04T11:05:11Z</time>
      </trkpt>
      <trkpt lat="45.40622" lon="5.56876">
        <ele>560</ele>
        <time>2011-08-04T11:05:15Z</time>
      </trkpt>
      <trkpt lat="45.40625" lon="5.56869">
        <ele>559</ele>
        <time>2011-08-04T11:05:19Z</time>
      </trkpt>
      <trkpt lat="45.40629" lon="5.56863">
        <ele>560</ele>
        <time>2011-08-04T11:05:23Z</time>
      </trkpt>
      <trkpt lat="45.40632" lon="5.56857">
        <ele>560</ele>
        <time>2011-08-04T11:05:27Z</time>
      </trkpt>
      <trkpt lat="45.40635" lon="5.5685">
        <ele>559</ele>
        <time>2011-08-04T11:05:31Z</time>
      </trkpt>
      <trkpt lat="45.40638" lon="5.56843">
        <ele>559</ele>
        <time>2011-08-04T11:05:35Z</time>
      </trkpt>
      <trkpt lat="45.4064" lon="5.56836">
        <ele>558</ele>
        <time>2011-08-04T11:05:39Z</time>
      </trkpt>
      <trkpt lat="45.40643" lon="5.56828">
        <ele>558</ele>
        <time>2011-08-04T11:05:43Z</time>
      </trkpt>
      <trkpt lat="45.40646" lon="5.56821">
        <ele>557</ele>
        <time>2011-08-04T11:05:47Z</time>
      </trkpt>
      <trkpt lat="45.40649" lon="5.56816">
        <ele>557</ele>
        <time>2011-08-04T11:05:50Z</time>
      </trkpt>
      <trkpt lat="45.40654" lon="5.5681">
        <ele>557</ele>
        <time>2011-08-04T11:05:54Z</time>
      </trkpt>
      <trkpt lat="45.40655" lon="5.56804">
        <ele>557</ele>
        <time>2011-08-04T11:05:57Z</time>
      </trkpt>
      <trkpt lat="45.40657" lon="5.56798">
        <ele>557</ele>
        <time>2011-08-04T11:06:00Z</time>
      </trkpt>
      <trkpt lat="45.40659" lon="5.56792">
        <ele>557</ele>
        <time>2011-08-04T11:06:03Z</time>
      </trkpt>
      <trkpt lat="45.40662" lon="5.56787">
        <ele>556</ele>
        <time>2011-08-04T11:06:07Z</time>
      </trkpt>
      <trkpt lat="45.40666" lon="5.56782">
        <ele>556</ele>
        <time>2011-08-04T11:06:11Z</time>
      </trkpt>
      <trkpt lat="45.40669" lon="5.56774">
        <ele>556</ele>
        <time>2011-08-04T11:06:15Z</time>
      </trkpt>
      <trkpt lat="45.40672" lon="5.56767">
        <ele>555</ele>
        <time>2011-08-04T11:06:19Z</time>
      </trkpt>
      <trkpt lat="45.40675" lon="5.56761">
        <ele>554</ele>
        <time>2011-08-04T11:06:22Z</time>
      </trkpt>
      <trkpt lat="45.40677" lon="5.56755">
        <ele>554</ele>
        <time>2011-08-04T11:06:25Z</time>
      </trkpt>
      <trkpt lat="45.4068" lon="5.56749">
        <ele>554</ele>
        <time>2011-08-04T11:06:28Z</time>
      </trkpt>
      <trkpt lat="45.40683" lon="5.56743">
        <ele>554</ele>
        <time>2011-08-04T11:06:31Z</time>
      </trkpt>
      <trkpt lat="45.40687" lon="5.56736">
        <ele>552</ele>
        <time>2011-08-04T11:06:35Z</time>
      </trkpt>
      <trkpt lat="45.4069" lon="5.56731">
        <ele>552</ele>
        <time>2011-08-04T11:06:38Z</time>
      </trkpt>
      <trkpt lat="45.40691" lon="5.56725">
        <ele>553</ele>
        <time>2011-08-04T11:06:41Z</time>
      </trkpt>
      <trkpt lat="45.40692" lon="5.56718">
        <ele>553</ele>
        <time>2011-08-04T11:06:44Z</time>
      </trkpt>
      <trkpt lat="45.40692" lon="5.56711">
        <ele>553</ele>
        <time>2011-08-04T11:06:47Z</time>
      </trkpt>
      <trkpt lat="45.40693" lon="5.56704">
        <ele>552</ele>
        <time>2011-08-04T11:06:50Z</time>
      </trkpt>
      <trkpt lat="45.40694" lon="5.56697">
        <ele>552</ele>
        <time>2011-08-04T11:06:53Z</time>
      </trkpt>
      <trkpt lat="45.40695" lon="5.56691">
        <ele>552</ele>
        <time>2011-08-04T11:06:56Z</time>
      </trkpt>
      <trkpt lat="45.40696" lon="5.56684">
        <ele>551</ele>
        <time>2011-08-04T11:06:59Z</time>
      </trkpt>
      <trkpt lat="45.40696" lon="5.56676">
        <ele>551</ele>
        <time>2011-08-04T11:07:03Z</time>
      </trkpt>
      <trkpt lat="45.40696" lon="5.56669">
        <ele>551</ele>
        <time>2011-08-04T11:07:06Z</time>
      </trkpt>
      <trkpt lat="45.40696" lon="5.56662">
        <ele>551</ele>
        <time>2011-08-04T11:07:09Z</time>
      </trkpt>
      <trkpt lat="45.40696" lon="5.56656">
        <ele>551</ele>
        <time>2011-08-04T11:07:12Z</time>
      </trkpt>
      <trkpt lat="45.40696" lon="5.56648">
        <ele>550</ele>
        <time>2011-08-04T11:07:16Z</time>
      </trkpt>
      <trkpt lat="45.40696" lon="5.56641">
        <ele>550</ele>
        <time>2011-08-04T11:07:19Z</time>
      </trkpt>
      <trkpt lat="45.40695" lon="5.56634">
        <ele>551</ele>
        <time>2011-08-04T11:07:22Z</time>
      </trkpt>
      <trkpt lat="45.40696" lon="5.56628">
        <ele>551</ele>
        <time>2011-08-04T11:07:25Z</time>
      </trkpt>
      <trkpt lat="45.40695" lon="5.5662">
        <ele>550</ele>
        <time>2011-08-04T11:07:29Z</time>
      </trkpt>
      <trkpt lat="45.40695" lon="5.56611">
        <ele>550</ele>
        <time>2011-08-04T11:07:33Z</time>
      </trkpt>
      <trkpt lat="45.40695" lon="5.56603">
        <ele>550</ele>
        <time>2011-08-04T11:07:37Z</time>
      </trkpt>
      <trkpt lat="45.40696" lon="5.56596">
        <ele>549</ele>
        <time>2011-08-04T11:07:40Z</time>
      </trkpt>
      <trkpt lat="45.40697" lon="5.56589">
        <ele>549</ele>
        <time>2011-08-04T11:07:43Z</time>
      </trkpt>
      <trkpt lat="45.40697" lon="5.56583">
        <ele>548</ele>
        <time>2011-08-04T11:07:46Z</time>
      </trkpt>
      <trkpt lat="45.40698" lon="5.56576">
        <ele>548</ele>
        <time>2011-08-04T11:07:49Z</time>
      </trkpt>
      <trkpt lat="45.40699" lon="5.56567">
        <ele>548</ele>
        <time>2011-08-04T11:07:53Z</time>
      </trkpt>
      <trkpt lat="45.40701" lon="5.56559">
        <ele>547</ele>
        <time>2011-08-04T11:07:57Z</time>
      </trkpt>
      <trkpt lat="45.40702" lon="5.56553">
        <ele>547</ele>
        <time>2011-08-04T11:08:00Z</time>
      </trkpt>
      <trkpt lat="45.40704" lon="5.56546">
        <ele>547</ele>
        <time>2011-08-04T11:08:03Z</time>
      </trkpt>
      <trkpt lat="45.40706" lon="5.56538">
        <ele>547</ele>
        <time>2011-08-04T11:08:07Z</time>
      </trkpt>
      <trkpt lat="45.40707" lon="5.56532">
        <ele>546</ele>
        <time>2011-08-04T11:08:10Z</time>
      </trkpt>
      <trkpt lat="45.40709" lon="5.56525">
        <ele>546</ele>
        <time>2011-08-04T11:08:13Z</time>
      </trkpt>
      <trkpt lat="45.4071" lon="5.56519">
        <ele>546</ele>
        <time>2011-08-04T11:08:16Z</time>
      </trkpt>
      <trkpt lat="45.40714" lon="5.56511">
        <ele>545</ele>
        <time>2011-08-04T11:08:20Z</time>
      </trkpt>
      <trkpt lat="45.40716" lon="5.56506">
        <ele>546</ele>
        <time>2011-08-04T11:08:23Z</time>
      </trkpt>
      <trkpt lat="45.40719" lon="5.565">
        <ele>545</ele>
        <time>2011-08-04T11:08:26Z</time>
      </trkpt>
      <trkpt lat="45.40721" lon="5.56494">
        <ele>546</ele>
        <time>2011-08-04T11:08:29Z</time>
      </trkpt>
      <trkpt lat="45.40723" lon="5.56489">
        <ele>546</ele>
        <time>2011-08-04T11:08:32Z</time>
      </trkpt>
      <trkpt lat="45.40726" lon="5.56483">
        <ele>546</ele>
        <time>2011-08-04T11:08:35Z</time>
      </trkpt>
      <trkpt lat="45.40729" lon="5.56478">
        <ele>546</ele>
        <time>2011-08-04T11:08:38Z</time>
      </trkpt>
      <trkpt lat="45.40732" lon="5.56471">
        <ele>546</ele>
        <time>2011-08-04T11:08:42Z</time>
      </trkpt>
      <trkpt lat="45.40735" lon="5.56466">
        <ele>546</ele>
        <time>2011-08-04T11:08:45Z</time>
      </trkpt>
      <trkpt lat="45.40738" lon="5.5646">
        <ele>547</ele>
        <time>2011-08-04T11:08:49Z</time>
      </trkpt>
      <trkpt lat="45.40742" lon="5.56454">
        <ele>547</ele>
        <time>2011-08-04T11:08:53Z</time>
      </trkpt>
      <trkpt lat="45.40747" lon="5.56449">
        <ele>548</ele>
        <time>2011-08-04T11:08:57Z</time>
      </trkpt>
      <trkpt lat="45.40751" lon="5.56444">
        <ele>548</ele>
        <time>2011-08-04T11:09:01Z</time>
      </trkpt>
      <trkpt lat="45.40756" lon="5.56438">
        <ele>548</ele>
        <time>2011-08-04T11:09:05Z</time>
      </trkpt>
      <trkpt lat="45.40759" lon="5.56433">
        <ele>547</ele>
        <time>2011-08-04T11:09:08Z</time>
      </trkpt>
      <trkpt lat="45.40763" lon="5.56426">
        <ele>547</ele>
        <time>2011-08-04T11:09:12Z</time>
      </trkpt>
      <trkpt lat="45.40766" lon="5.56422">
        <ele>547</ele>
        <time>2011-08-04T11:09:15Z</time>
      </trkpt>
      <trkpt lat="45.40769" lon="5.56416">
        <ele>547</ele>
        <time>2011-08-04T11:09:18Z</time>
      </trkpt>
      <trkpt lat="45.40772" lon="5.56411">
        <ele>547</ele>
        <time>2011-08-04T11:09:20Z</time>
      </trkpt>
      <trkpt lat="45.40775" lon="5.56404">
        <ele>547</ele>
        <time>2011-08-04T11:09:22Z</time>
      </trkpt>
      <trkpt lat="45.4078" lon="5.56396">
        <ele>547</ele>
        <time>2011-08-04T11:09:24Z</time>
      </trkpt>
      <trkpt lat="45.40784" lon="5.56389">
        <ele>548</ele>
        <time>2011-08-04T11:09:26Z</time>
      </trkpt>
      <trkpt lat="45.40789" lon="5.56381">
        <ele>547</ele>
        <time>2011-08-04T11:09:28Z</time>
      </trkpt>
      <trkpt lat="45.40793" lon="5.56373">
        <ele>547</ele>
        <time>2011-08-04T11:09:30Z</time>
      </trkpt>
      <trkpt lat="45.40798" lon="5.56366">
        <ele>547</ele>
        <time>2011-08-04T11:09:32Z</time>
      </trkpt>
      <trkpt lat="45.40803" lon="5.56358">
        <ele>547</ele>
        <time>2011-08-04T11:09:34Z</time>
      </trkpt>
      <trkpt lat="45.40808" lon="5.5635">
        <ele>546</ele>
        <time>2011-08-04T11:09:36Z</time>
      </trkpt>
      <trkpt lat="45.40813" lon="5.56343">
        <ele>546</ele>
        <time>2011-08-04T11:09:38Z</time>
      </trkpt>
      <trkpt lat="45.40817" lon="5.56336">
        <ele>546</ele>
        <time>2011-08-04T11:09:40Z</time>
      </trkpt>
      <trkpt lat="45.40822" lon="5.56328">
        <ele>546</ele>
        <time>2011-08-04T11:09:42Z</time>
      </trkpt>
      <trkpt lat="45.40826" lon="5.56322">
        <ele>546</ele>
        <time>2011-08-04T11:09:44Z</time>
      </trkpt>
      <trkpt lat="45.4083" lon="5.56315">
        <ele>546</ele>
        <time>2011-08-04T11:09:46Z</time>
      </trkpt>
      <trkpt lat="45.40833" lon="5.56309">
        <ele>546</ele>
        <time>2011-08-04T11:09:48Z</time>
      </trkpt>
      <trkpt lat="45.40837" lon="5.56303">
        <ele>546</ele>
        <time>2011-08-04T11:09:50Z</time>
      </trkpt>
      <trkpt lat="45.40841" lon="5.56296">
        <ele>546</ele>
        <time>2011-08-04T11:09:52Z</time>
      </trkpt>
      <trkpt lat="45.40844" lon="5.5629">
        <ele>546</ele>
        <time>2011-08-04T11:09:54Z</time>
      </trkpt>
      <trkpt lat="45.40846" lon="5.56284">
        <ele>546</ele>
        <time>2011-08-04T11:09:57Z</time>
      </trkpt>
      <trkpt lat="45.40849" lon="5.56278">
        <ele>546</ele>
        <time>2011-08-04T11:10:00Z</time>
      </trkpt>
      <trkpt lat="45.40853" lon="5.56273">
        <ele>546</ele>
        <time>2011-08-04T11:10:04Z</time>
      </trkpt>
      <trkpt lat="45.40856" lon="5.56267">
        <ele>547</ele>
        <time>2011-08-04T11:10:08Z</time>
      </trkpt>
      <trkpt lat="45.4086" lon="5.56261">
        <ele>547</ele>
        <time>2011-08-04T11:10:12Z</time>
      </trkpt>
      <trkpt lat="45.40864" lon="5.56255">
        <ele>547</ele>
        <time>2011-08-04T11:10:16Z</time>
      </trkpt>
      <trkpt lat="45.40868" lon="5.56249">
        <ele>547</ele>
        <time>2011-08-04T11:10:20Z</time>
      </trkpt>
      <trkpt lat="45.40871" lon="5.56244">
        <ele>547</ele>
        <time>2011-08-04T11:10:23Z</time>
      </trkpt>
      <trkpt lat="45.40875" lon="5.56239">
        <ele>547</ele>
        <time>2011-08-04T11:10:27Z</time>
      </trkpt>
      <trkpt lat="45.40878" lon="5.56234">
        <ele>547</ele>
        <time>2011-08-04T11:10:30Z</time>
      </trkpt>
      <trkpt lat="45.40882" lon="5.56228">
        <ele>547</ele>
        <time>2011-08-04T11:10:34Z</time>
      </trkpt>
      <trkpt lat="45.40886" lon="5.56222">
        <ele>547</ele>
        <time>2011-08-04T11:10:38Z</time>
      </trkpt>
      <trkpt lat="45.4089" lon="5.56217">
        <ele>547</ele>
        <time>2011-08-04T11:10:42Z</time>
      </trkpt>
      <trkpt lat="45.40894" lon="5.56217">
        <ele>547</ele>
        <time>2011-08-04T11:10:46Z</time>
      </trkpt>
      <trkpt lat="45.40899" lon="5.56217">
        <ele>547</ele>
        <time>2011-08-04T11:10:49Z</time>
      </trkpt>
      <trkpt lat="45.40904" lon="5.56215">
        <ele>549</ele>
        <time>2011-08-04T11:10:53Z</time>
      </trkpt>
      <trkpt lat="45.40907" lon="5.56211">
        <ele>548</ele>
        <time>2011-08-04T11:10:57Z</time>
      </trkpt>
      <trkpt lat="45.4091" lon="5.56204">
        <ele>549</ele>
        <time>2011-08-04T11:11:02Z</time>
      </trkpt>
      <trkpt lat="45.40915" lon="5.56202">
        <ele>548</ele>
        <time>2011-08-04T11:11:04Z</time>
      </trkpt>
      <trkpt lat="45.40919" lon="5.56197">
        <ele>547</ele>
        <time>2011-08-04T11:11:06Z</time>
      </trkpt>
      <trkpt lat="45.40924" lon="5.56196">
        <ele>545</ele>
        <time>2011-08-04T11:11:08Z</time>
      </trkpt>
      <trkpt lat="45.40928" lon="5.56192">
        <ele>545</ele>
        <time>2011-08-04T11:11:11Z</time>
      </trkpt>
      <trkpt lat="45.40932" lon="5.56188">
        <ele>544</ele>
        <time>2011-08-04T11:11:14Z</time>
      </trkpt>
      <trkpt lat="45.40936" lon="5.56183">
        <ele>544</ele>
        <time>2011-08-04T11:11:18Z</time>
      </trkpt>
      <trkpt lat="45.4094" lon="5.56179">
        <ele>544</ele>
        <time>2011-08-04T11:11:21Z</time>
      </trkpt>
      <trkpt lat="45.40944" lon="5.56175">
        <ele>544</ele>
        <time>2011-08-04T11:11:24Z</time>
      </trkpt>
      <trkpt lat="45.40948" lon="5.56171">
        <ele>544</ele>
        <time>2011-08-04T11:11:27Z</time>
      </trkpt>
      <trkpt lat="45.40951" lon="5.56167">
        <ele>544</ele>
        <time>2011-08-04T11:11:30Z</time>
      </trkpt>
      <trkpt lat="45.40957" lon="5.56163">
        <ele>543</ele>
        <time>2011-08-04T11:11:34Z</time>
      </trkpt>
      <trkpt lat="45.40962" lon="5.56162">
        <ele>543</ele>
        <time>2011-08-04T11:11:38Z</time>
      </trkpt>
      <trkpt lat="45.40965" lon="5.56167">
        <ele>545</ele>
        <time>2011-08-04T11:11:42Z</time>
      </trkpt>
      <trkpt lat="45.40969" lon="5.56171">
        <ele>545</ele>
        <time>2011-08-04T11:11:46Z</time>
      </trkpt>
      <trkpt lat="45.40972" lon="5.56177">
        <ele>544</ele>
        <time>2011-08-04T11:11:51Z</time>
      </trkpt>
      <trkpt lat="45.40974" lon="5.56183">
        <ele>542</ele>
        <time>2011-08-04T11:11:54Z</time>
      </trkpt>
      <trkpt lat="45.40978" lon="5.56189">
        <ele>541</ele>
        <time>2011-08-04T11:11:57Z</time>
      </trkpt>
      <trkpt lat="45.4098" lon="5.56194">
        <ele>541</ele>
        <time>2011-08-04T11:12:01Z</time>
      </trkpt>
      <trkpt lat="45.40985" lon="5.5619">
        <ele>541</ele>
        <time>2011-08-04T11:12:05Z</time>
      </trkpt>
      <trkpt lat="45.40984" lon="5.56184">
        <ele>541</ele>
        <time>2011-08-04T11:12:11Z</time>
      </trkpt>
      <trkpt lat="45.40979" lon="5.5618">
        <ele>541</ele>
        <time>2011-08-04T11:12:15Z</time>
      </trkpt>
      <trkpt lat="45.40977" lon="5.56174">
        <ele>540</ele>
        <time>2011-08-04T11:12:19Z</time>
      </trkpt>
      <trkpt lat="45.40974" lon="5.56169">
        <ele>539</ele>
        <time>2011-08-04T11:12:23Z</time>
      </trkpt>
      <trkpt lat="45.4097" lon="5.56163">
        <ele>539</ele>
        <time>2011-08-04T11:12:27Z</time>
      </trkpt>
      <trkpt lat="45.40968" lon="5.56156">
        <ele>539</ele>
        <time>2011-08-04T11:12:30Z</time>
      </trkpt>
      <trkpt lat="45.40964" lon="5.56151">
        <ele>538</ele>
        <time>2011-08-04T11:12:33Z</time>
      </trkpt>
      <trkpt lat="45.4096" lon="5.56145">
        <ele>540</ele>
        <time>2011-08-04T11:12:36Z</time>
      </trkpt>
      <trkpt lat="45.40959" lon="5.56138">
        <ele>538</ele>
        <time>2011-08-04T11:12:40Z</time>
      </trkpt>
      <trkpt lat="45.40957" lon="5.5613">
        <ele>539</ele>
        <time>2011-08-04T11:12:44Z</time>
      </trkpt>
      <trkpt lat="45.40955" lon="5.56124">
        <ele>541</ele>
        <time>2011-08-04T11:12:47Z</time>
      </trkpt>
      <trkpt lat="45.40953" lon="5.56118">
        <ele>542</ele>
        <time>2011-08-04T11:12:50Z</time>
      </trkpt>
      <trkpt lat="45.40954" lon="5.56112">
        <ele>540</ele>
        <time>2011-08-04T11:12:53Z</time>
      </trkpt>
      <trkpt lat="45.40956" lon="5.56105">
        <ele>537</ele>
        <time>2011-08-04T11:12:56Z</time>
      </trkpt>
      <trkpt lat="45.40957" lon="5.56097">
        <ele>537</ele>
        <time>2011-08-04T11:12:59Z</time>
      </trkpt>
      <trkpt lat="45.40958" lon="5.5609">
        <ele>538</ele>
        <time>2011-08-04T11:13:02Z</time>
      </trkpt>
      <trkpt lat="45.40958" lon="5.56083">
        <ele>538</ele>
        <time>2011-08-04T11:13:05Z</time>
      </trkpt>
      <trkpt lat="45.40958" lon="5.56076">
        <ele>539</ele>
        <time>2011-08-04T11:13:09Z</time>
      </trkpt>
      <trkpt lat="45.40956" lon="5.56069">
        <ele>538</ele>
        <time>2011-08-04T11:13:13Z</time>
      </trkpt>
      <trkpt lat="45.40952" lon="5.56065">
        <ele>539</ele>
        <time>2011-08-04T11:13:17Z</time>
      </trkpt>
      <trkpt lat="45.40949" lon="5.56061">
        <ele>538</ele>
        <time>2011-08-04T11:13:24Z</time>
      </trkpt>
      <trkpt lat="45.40951" lon="5.56054">
        <ele>539</ele>
        <time>2011-08-04T11:13:28Z</time>
      </trkpt>
      <trkpt lat="45.40954" lon="5.56048">
        <ele>538</ele>
        <time>2011-08-04T11:13:31Z</time>
      </trkpt>
      <trkpt lat="45.40956" lon="5.56041">
        <ele>540</ele>
        <time>2011-08-04T11:13:35Z</time>
      </trkpt>
      <trkpt lat="45.40957" lon="5.56034">
        <ele>540</ele>
        <time>2011-08-04T11:13:39Z</time>
      </trkpt>
      <trkpt lat="45.40957" lon="5.56027">
        <ele>540</ele>
        <time>2011-08-04T11:13:43Z</time>
      </trkpt>
      <trkpt lat="45.40958" lon="5.5602">
        <ele>539</ele>
        <time>2011-08-04T11:13:46Z</time>
      </trkpt>
      <trkpt lat="45.40959" lon="5.56011">
        <ele>539</ele>
        <time>2011-08-04T11:13:49Z</time>
      </trkpt>
      <trkpt lat="45.4096" lon="5.56003">
        <ele>539</ele>
        <time>2011-08-04T11:13:51Z</time>
      </trkpt>
      <trkpt lat="45.40961" lon="5.55995">
        <ele>540</ele>
        <time>2011-08-04T11:13:53Z</time>
      </trkpt>
      <trkpt lat="45.40964" lon="5.55985">
        <ele>540</ele>
        <time>2011-08-04T11:13:56Z</time>
      </trkpt>
      <trkpt lat="45.40967" lon="5.55979">
        <ele>539</ele>
        <time>2011-08-04T11:13:58Z</time>
      </trkpt>
      <trkpt lat="45.40971" lon="5.55972">
        <ele>539</ele>
        <time>2011-08-04T11:14:00Z</time>
      </trkpt>
      <trkpt lat="45.40974" lon="5.55966">
        <ele>540</ele>
        <time>2011-08-04T11:14:02Z</time>
      </trkpt>
      <trkpt lat="45.40977" lon="5.55959">
        <ele>539</ele>
        <time>2011-08-04T11:14:04Z</time>
      </trkpt>
      <trkpt lat="45.40979" lon="5.55953">
        <ele>541</ele>
        <time>2011-08-04T11:14:07Z</time>
      </trkpt>
      <trkpt lat="45.40982" lon="5.55944">
        <ele>540</ele>
        <time>2011-08-04T11:14:10Z</time>
      </trkpt>
      <trkpt lat="45.40984" lon="5.55938">
        <ele>539</ele>
        <time>2011-08-04T11:14:13Z</time>
      </trkpt>
      <trkpt lat="45.40987" lon="5.55931">
        <ele>538</ele>
        <time>2011-08-04T11:14:16Z</time>
      </trkpt>
      <trkpt lat="45.4099" lon="5.55924">
        <ele>538</ele>
        <time>2011-08-04T11:14:18Z</time>
      </trkpt>
      <trkpt lat="45.40994" lon="5.55917">
        <ele>538</ele>
        <time>2011-08-04T11:14:20Z</time>
      </trkpt>
      <trkpt lat="45.40998" lon="5.55909">
        <ele>538</ele>
        <time>2011-08-04T11:14:22Z</time>
      </trkpt>
      <trkpt lat="45.41" lon="5.55901">
        <ele>539</ele>
        <time>2011-08-04T11:14:24Z</time>
      </trkpt>
      <trkpt lat="45.41002" lon="5.55894">
        <ele>541</ele>
        <time>2011-08-04T11:14:26Z</time>
      </trkpt>
      <trkpt lat="45.41005" lon="5.55887">
        <ele>542</ele>
        <time>2011-08-04T11:14:28Z</time>
      </trkpt>
      <trkpt lat="45.41007" lon="5.55879">
        <ele>542</ele>
        <time>2011-08-04T11:14:30Z</time>
      </trkpt>
      <trkpt lat="45.41009" lon="5.55872">
        <ele>542</ele>
        <time>2011-08-04T11:14:32Z</time>
      </trkpt>
      <trkpt lat="45.41007" lon="5.55865">
        <ele>543</ele>
        <time>2011-08-04T11:14:34Z</time>
      </trkpt>
      <trkpt lat="45.41004" lon="5.55859">
        <ele>543</ele>
        <time>2011-08-04T11:14:36Z</time>
      </trkpt>
      <trkpt lat="45.40999" lon="5.55856">
        <ele>543</ele>
        <time>2011-08-04T11:14:38Z</time>
      </trkpt>
      <trkpt lat="45.40994" lon="5.55858">
        <ele>542</ele>
        <time>2011-08-04T11:14:40Z</time>
      </trkpt>
      <trkpt lat="45.40987" lon="5.55858">
        <ele>541</ele>
        <time>2011-08-04T11:14:43Z</time>
      </trkpt>
      <trkpt lat="45.40983" lon="5.55856">
        <ele>541</ele>
        <time>2011-08-04T11:14:46Z</time>
      </trkpt>
      <trkpt lat="45.40979" lon="5.55851">
        <ele>541</ele>
        <time>2011-08-04T11:14:50Z</time>
      </trkpt>
      <trkpt lat="45.40978" lon="5.55843">
        <ele>541</ele>
        <time>2011-08-04T11:14:53Z</time>
      </trkpt>
      <trkpt lat="45.40977" lon="5.55836">
        <ele>541</ele>
        <time>2011-08-04T11:14:56Z</time>
      </trkpt>
      <trkpt lat="45.40977" lon="5.55829">
        <ele>542</ele>
        <time>2011-08-04T11:14:59Z</time>
      </trkpt>
      <trkpt lat="45.40977" lon="5.55822">
        <ele>541</ele>
        <time>2011-08-04T11:15:02Z</time>
      </trkpt>
      <trkpt lat="45.40976" lon="5.55816">
        <ele>541</ele>
        <time>2011-08-04T11:15:05Z</time>
      </trkpt>
      <trkpt lat="45.40976" lon="5.55809">
        <ele>540</ele>
        <time>2011-08-04T11:15:08Z</time>
      </trkpt>
      <trkpt lat="45.40977" lon="5.55801">
        <ele>539</ele>
        <time>2011-08-04T11:15:12Z</time>
      </trkpt>
      <trkpt lat="45.40976" lon="5.55794">
        <ele>540</ele>
        <time>2011-08-04T11:15:16Z</time>
      </trkpt>
      <trkpt lat="45.40978" lon="5.55787">
        <ele>539</ele>
        <time>2011-08-04T11:15:20Z</time>
      </trkpt>
      <trkpt lat="45.40979" lon="5.5578">
        <ele>538</ele>
        <time>2011-08-04T11:15:24Z</time>
      </trkpt>
      <trkpt lat="45.40982" lon="5.55774">
        <ele>538</ele>
        <time>2011-08-04T11:15:28Z</time>
      </trkpt>
      <trkpt lat="45.40984" lon="5.55768">
        <ele>537</ele>
        <time>2011-08-04T11:15:32Z</time>
      </trkpt>
      <trkpt lat="45.40985" lon="5.55761">
        <ele>537</ele>
        <time>2011-08-04T11:15:36Z</time>
      </trkpt>
      <trkpt lat="45.40985" lon="5.55755">
        <ele>536</ele>
        <time>2011-08-04T11:15:40Z</time>
      </trkpt>
      <trkpt lat="45.40986" lon="5.55747">
        <ele>536</ele>
        <time>2011-08-04T11:15:44Z</time>
      </trkpt>
      <trkpt lat="45.40988" lon="5.5574">
        <ele>534</ele>
        <time>2011-08-04T11:15:48Z</time>
      </trkpt>
      <trkpt lat="45.40991" lon="5.55734">
        <ele>534</ele>
        <time>2011-08-04T11:15:53Z</time>
      </trkpt>
      <trkpt lat="45.40995" lon="5.5573">
        <ele>533</ele>
        <time>2011-08-04T11:15:57Z</time>
      </trkpt>
      <trkpt lat="45.40999" lon="5.55727">
        <ele>533</ele>
        <time>2011-08-04T11:16:01Z</time>
      </trkpt>
      <trkpt lat="45.41005" lon="5.55726">
        <ele>533</ele>
        <time>2011-08-04T11:16:05Z</time>
      </trkpt>
      <trkpt lat="45.4101" lon="5.55727">
        <ele>532</ele>
        <time>2011-08-04T11:16:08Z</time>
      </trkpt>
      <trkpt lat="45.41015" lon="5.55728">
        <ele>531</ele>
        <time>2011-08-04T11:16:12Z</time>
      </trkpt>
      <trkpt lat="45.41021" lon="5.5573">
        <ele>531</ele>
        <time>2011-08-04T11:16:16Z</time>
      </trkpt>
      <trkpt lat="45.41026" lon="5.55731">
        <ele>530</ele>
        <time>2011-08-04T11:16:19Z</time>
      </trkpt>
      <trkpt lat="45.41032" lon="5.5573">
        <ele>530</ele>
        <time>2011-08-04T11:16:23Z</time>
      </trkpt>
      <trkpt lat="45.41035" lon="5.55725">
        <ele>531</ele>
        <time>2011-08-04T11:16:33Z</time>
      </trkpt>
      <trkpt lat="45.41038" lon="5.55719">
        <ele>531</ele>
        <time>2011-08-04T11:16:37Z</time>
      </trkpt>
      <trkpt lat="45.4104" lon="5.55713">
        <ele>531</ele>
        <time>2011-08-04T11:16:41Z</time>
      </trkpt>
      <trkpt lat="45.41046" lon="5.5571">
        <ele>531</ele>
        <time>2011-08-04T11:16:45Z</time>
      </trkpt>
      <trkpt lat="45.4105" lon="5.55706">
        <ele>532</ele>
        <time>2011-08-04T11:16:49Z</time>
      </trkpt>
      <trkpt lat="45.41054" lon="5.55702">
        <ele>531</ele>
        <time>2011-08-04T11:16:53Z</time>
      </trkpt>
      <trkpt lat="45.41058" lon="5.55698">
        <ele>532</ele>
        <time>2011-08-04T11:16:56Z</time>
      </trkpt>
      <trkpt lat="45.41062" lon="5.55692">
        <ele>530</ele>
        <time>2011-08-04T11:17:01Z</time>
      </trkpt>
      <trkpt lat="45.41068" lon="5.55686">
        <ele>529</ele>
        <time>2011-08-04T11:17:04Z</time>
      </trkpt>
      <trkpt lat="45.41073" lon="5.5568">
        <ele>529</ele>
        <time>2011-08-04T11:17:06Z</time>
      </trkpt>
      <trkpt lat="45.41077" lon="5.55675">
        <ele>530</ele>
        <time>2011-08-04T11:17:08Z</time>
      </trkpt>
      <trkpt lat="45.41081" lon="5.55669">
        <ele>529</ele>
        <time>2011-08-04T11:17:10Z</time>
      </trkpt>
      <trkpt lat="45.41087" lon="5.55663">
        <ele>529</ele>
        <time>2011-08-04T11:17:12Z</time>
      </trkpt>
      <trkpt lat="45.41092" lon="5.55658">
        <ele>529</ele>
        <time>2011-08-04T11:17:14Z</time>
      </trkpt>
      <trkpt lat="45.41097" lon="5.55652">
        <ele>529</ele>
        <time>2011-08-04T11:17:16Z</time>
      </trkpt>
      <trkpt lat="45.41102" lon="5.55646">
        <ele>529</ele>
        <time>2011-08-04T11:17:18Z</time>
      </trkpt>
      <trkpt lat="45.41107" lon="5.5564">
        <ele>529</ele>
        <time>2011-08-04T11:17:20Z</time>
      </trkpt>
      <trkpt lat="45.41112" lon="5.55634">
        <ele>529</ele>
        <time>2011-08-04T11:17:22Z</time>
      </trkpt>
      <trkpt lat="45.41117" lon="5.55629">
        <ele>529</ele>
        <time>2011-08-04T11:17:24Z</time>
      </trkpt>
      <trkpt lat="45.41122" lon="5.55624">
        <ele>528</ele>
        <time>2011-08-04T11:17:26Z</time>
      </trkpt>
      <trkpt lat="45.41127" lon="5.55618">
        <ele>528</ele>
        <time>2011-08-04T11:17:28Z</time>
      </trkpt>
      <trkpt lat="45.41132" lon="5.55613">
        <ele>528</ele>
        <time>2011-08-04T11:17:30Z</time>
      </trkpt>
      <trkpt lat="45.41137" lon="5.55606">
        <ele>528</ele>
        <time>2011-08-04T11:17:32Z</time>
      </trkpt>
      <trkpt lat="45.41141" lon="5.55601">
        <ele>528</ele>
        <time>2011-08-04T11:17:34Z</time>
      </trkpt>
      <trkpt lat="45.41145" lon="5.55595">
        <ele>527</ele>
        <time>2011-08-04T11:17:37Z</time>
      </trkpt>
      <trkpt lat="45.41149" lon="5.55592">
        <ele>527</ele>
        <time>2011-08-04T11:17:40Z</time>
      </trkpt>
      <trkpt lat="45.41153" lon="5.55588">
        <ele>527</ele>
        <time>2011-08-04T11:17:43Z</time>
      </trkpt>
      <trkpt lat="45.41157" lon="5.55582">
        <ele>527</ele>
        <time>2011-08-04T11:17:47Z</time>
      </trkpt>
      <trkpt lat="45.4116" lon="5.55576">
        <ele>527</ele>
        <time>2011-08-04T11:17:51Z</time>
      </trkpt>
      <trkpt lat="45.41163" lon="5.55571">
        <ele>527</ele>
        <time>2011-08-04T11:17:54Z</time>
      </trkpt>
      <trkpt lat="45.41167" lon="5.55564">
        <ele>527</ele>
        <time>2011-08-04T11:17:58Z</time>
      </trkpt>
      <trkpt lat="45.41171" lon="5.55559">
        <ele>527</ele>
        <time>2011-08-04T11:18:02Z</time>
      </trkpt>
      <trkpt lat="45.41175" lon="5.55552">
        <ele>527</ele>
        <time>2011-08-04T11:18:06Z</time>
      </trkpt>
      <trkpt lat="45.41179" lon="5.55546">
        <ele>527</ele>
        <time>2011-08-04T11:18:10Z</time>
      </trkpt>
      <trkpt lat="45.41184" lon="5.5554">
        <ele>526</ele>
        <time>2011-08-04T11:18:14Z</time>
      </trkpt>
      <trkpt lat="45.41188" lon="5.55537">
        <ele>526</ele>
        <time>2011-08-04T11:18:17Z</time>
      </trkpt>
      <trkpt lat="45.41193" lon="5.55532">
        <ele>525</ele>
        <time>2011-08-04T11:18:21Z</time>
      </trkpt>
      <trkpt lat="45.41196" lon="5.55526">
        <ele>525</ele>
        <time>2011-08-04T11:18:25Z</time>
      </trkpt>
      <trkpt lat="45.41201" lon="5.55519">
        <ele>524</ele>
        <time>2011-08-04T11:18:29Z</time>
      </trkpt>
      <trkpt lat="45.41204" lon="5.55512">
        <ele>525</ele>
        <time>2011-08-04T11:18:33Z</time>
      </trkpt>
      <trkpt lat="45.41206" lon="5.55506">
        <ele>525</ele>
        <time>2011-08-04T11:18:36Z</time>
      </trkpt>
      <trkpt lat="45.41204" lon="5.555">
        <ele>524</ele>
        <time>2011-08-04T11:18:41Z</time>
      </trkpt>
      <trkpt lat="45.412" lon="5.55494">
        <ele>525</ele>
        <time>2011-08-04T11:18:45Z</time>
      </trkpt>
      <trkpt lat="45.41197" lon="5.55487">
        <ele>525</ele>
        <time>2011-08-04T11:18:49Z</time>
      </trkpt>
      <trkpt lat="45.41194" lon="5.55481">
        <ele>524</ele>
        <time>2011-08-04T11:18:53Z</time>
      </trkpt>
      <trkpt lat="45.4119" lon="5.55476">
        <ele>524</ele>
        <time>2011-08-04T11:18:56Z</time>
      </trkpt>
      <trkpt lat="45.41187" lon="5.55471">
        <ele>524</ele>
        <time>2011-08-04T11:18:59Z</time>
      </trkpt>
      <trkpt lat="45.41183" lon="5.55466">
        <ele>524</ele>
        <time>2011-08-04T11:19:03Z</time>
      </trkpt>
      <trkpt lat="45.4118" lon="5.55461">
        <ele>525</ele>
        <time>2011-08-04T11:19:06Z</time>
      </trkpt>
      <trkpt lat="45.41177" lon="5.55456">
        <ele>526</ele>
        <time>2011-08-04T11:19:09Z</time>
      </trkpt>
      <trkpt lat="45.41172" lon="5.5545">
        <ele>527</ele>
        <time>2011-08-04T11:19:12Z</time>
      </trkpt>
      <trkpt lat="45.41167" lon="5.55444">
        <ele>526</ele>
        <time>2011-08-04T11:19:15Z</time>
      </trkpt>
      <trkpt lat="45.41162" lon="5.55436">
        <ele>525</ele>
        <time>2011-08-04T11:19:18Z</time>
      </trkpt>
      <trkpt lat="45.41157" lon="5.5543">
        <ele>526</ele>
        <time>2011-08-04T11:19:20Z</time>
      </trkpt>
      <trkpt lat="45.41152" lon="5.55424">
        <ele>525</ele>
        <time>2011-08-04T11:19:22Z</time>
      </trkpt>
      <trkpt lat="45.41147" lon="5.55419">
        <ele>525</ele>
        <time>2011-08-04T11:19:24Z</time>
      </trkpt>
      <trkpt lat="45.41142" lon="5.55414">
        <ele>524</ele>
        <time>2011-08-04T11:19:26Z</time>
      </trkpt>
      <trkpt lat="45.41137" lon="5.55408">
        <ele>525</ele>
        <time>2011-08-04T11:19:28Z</time>
      </trkpt>
      <trkpt lat="45.41132" lon="5.55402">
        <ele>524</ele>
        <time>2011-08-04T11:19:30Z</time>
      </trkpt>
      <trkpt lat="45.41128" lon="5.55396">
        <ele>524</ele>
        <time>2011-08-04T11:19:32Z</time>
      </trkpt>
      <trkpt lat="45.41123" lon="5.5539">
        <ele>524</ele>
        <time>2011-08-04T11:19:34Z</time>
      </trkpt>
      <trkpt lat="45.41118" lon="5.55384">
        <ele>523</ele>
        <time>2011-08-04T11:19:36Z</time>
      </trkpt>
      <trkpt lat="45.41112" lon="5.55379">
        <ele>523</ele>
        <time>2011-08-04T11:19:38Z</time>
      </trkpt>
      <trkpt lat="45.41106" lon="5.55372">
        <ele>524</ele>
        <time>2011-08-04T11:19:40Z</time>
      </trkpt>
      <trkpt lat="45.41101" lon="5.55366">
        <ele>523</ele>
        <time>2011-08-04T11:19:42Z</time>
      </trkpt>
      <trkpt lat="45.41096" lon="5.55361">
        <ele>523</ele>
        <time>2011-08-04T11:19:44Z</time>
      </trkpt>
      <trkpt lat="45.4109" lon="5.55356">
        <ele>523</ele>
        <time>2011-08-04T11:19:46Z</time>
      </trkpt>
      <trkpt lat="45.41084" lon="5.55351">
        <ele>524</ele>
        <time>2011-08-04T11:19:48Z</time>
      </trkpt>
      <trkpt lat="45.41078" lon="5.55345">
        <ele>524</ele>
        <time>2011-08-04T11:19:50Z</time>
      </trkpt>
      <trkpt lat="45.41073" lon="5.55338">
        <ele>524</ele>
        <time>2011-08-04T11:19:52Z</time>
      </trkpt>
      <trkpt lat="45.41068" lon="5.55333">
        <ele>524</ele>
        <time>2011-08-04T11:19:54Z</time>
      </trkpt>
      <trkpt lat="45.41063" lon="5.55328">
        <ele>524</ele>
        <time>2011-08-04T11:19:56Z</time>
      </trkpt>
      <trkpt lat="45.41058" lon="5.55322">
        <ele>524</ele>
        <time>2011-08-04T11:19:58Z</time>
      </trkpt>
      <trkpt lat="45.41053" lon="5.55317">
        <ele>524</ele>
        <time>2011-08-04T11:20:00Z</time>
      </trkpt>
      <trkpt lat="45.41049" lon="5.55312">
        <ele>524</ele>
        <time>2011-08-04T11:20:02Z</time>
      </trkpt>
      <trkpt lat="45.41045" lon="5.55307">
        <ele>524</ele>
        <time>2011-08-04T11:20:04Z</time>
      </trkpt>
      <trkpt lat="45.41042" lon="5.55302">
        <ele>524</ele>
        <time>2011-08-04T11:20:06Z</time>
      </trkpt>
      <trkpt lat="45.41037" lon="5.55296">
        <ele>524</ele>
        <time>2011-08-04T11:20:09Z</time>
      </trkpt>
      <trkpt lat="45.41032" lon="5.55292">
        <ele>524</ele>
        <time>2011-08-04T11:20:11Z</time>
      </trkpt>
      <trkpt lat="45.41027" lon="5.55287">
        <ele>524</ele>
        <time>2011-08-04T11:20:13Z</time>
      </trkpt>
      <trkpt lat="45.41022" lon="5.55282">
        <ele>524</ele>
        <time>2011-08-04T11:20:15Z</time>
      </trkpt>
      <trkpt lat="45.41018" lon="5.55276">
        <ele>523</ele>
        <time>2011-08-04T11:20:17Z</time>
      </trkpt>
      <trkpt lat="45.41014" lon="5.55271">
        <ele>523</ele>
        <time>2011-08-04T11:20:19Z</time>
      </trkpt>
      <trkpt lat="45.41009" lon="5.55265">
        <ele>522</ele>
        <time>2011-08-04T11:20:21Z</time>
      </trkpt>
      <trkpt lat="45.41005" lon="5.5526">
        <ele>522</ele>
        <time>2011-08-04T11:20:23Z</time>
      </trkpt>
      <trkpt lat="45.41" lon="5.55254">
        <ele>523</ele>
        <time>2011-08-04T11:20:25Z</time>
      </trkpt>
      <trkpt lat="45.40995" lon="5.55249">
        <ele>522</ele>
        <time>2011-08-04T11:20:27Z</time>
      </trkpt>
      <trkpt lat="45.40991" lon="5.55244">
        <ele>522</ele>
        <time>2011-08-04T11:20:29Z</time>
      </trkpt>
      <trkpt lat="45.40986" lon="5.55239">
        <ele>522</ele>
        <time>2011-08-04T11:20:31Z</time>
      </trkpt>
      <trkpt lat="45.40982" lon="5.55233">
        <ele>522</ele>
        <time>2011-08-04T11:20:33Z</time>
      </trkpt>
      <trkpt lat="45.40979" lon="5.55227">
        <ele>522</ele>
        <time>2011-08-04T11:20:35Z</time>
      </trkpt>
      <trkpt lat="45.40977" lon="5.55221">
        <ele>522</ele>
        <time>2011-08-04T11:20:38Z</time>
      </trkpt>
      <trkpt lat="45.40974" lon="5.55214">
        <ele>522</ele>
        <time>2011-08-04T11:20:42Z</time>
      </trkpt>
      <trkpt lat="45.40972" lon="5.55206">
        <ele>522</ele>
        <time>2011-08-04T11:20:46Z</time>
      </trkpt>
      <trkpt lat="45.4097" lon="5.552">
        <ele>522</ele>
        <time>2011-08-04T11:20:50Z</time>
      </trkpt>
      <trkpt lat="45.40968" lon="5.55193">
        <ele>521</ele>
        <time>2011-08-04T11:20:53Z</time>
      </trkpt>
      <trkpt lat="45.40964" lon="5.55187">
        <ele>521</ele>
        <time>2011-08-04T11:20:57Z</time>
      </trkpt>
      <trkpt lat="45.40962" lon="5.55181">
        <ele>522</ele>
        <time>2011-08-04T11:21:00Z</time>
      </trkpt>
      <trkpt lat="45.40959" lon="5.55175">
        <ele>522</ele>
        <time>2011-08-04T11:21:03Z</time>
      </trkpt>
      <trkpt lat="45.40956" lon="5.55168">
        <ele>523</ele>
        <time>2011-08-04T11:21:06Z</time>
      </trkpt>
      <trkpt lat="45.40954" lon="5.55163">
        <ele>523</ele>
        <time>2011-08-04T11:21:09Z</time>
      </trkpt>
      <trkpt lat="45.4095" lon="5.55158">
        <ele>522</ele>
        <time>2011-08-04T11:21:12Z</time>
      </trkpt>
      <trkpt lat="45.40947" lon="5.55151">
        <ele>521</ele>
        <time>2011-08-04T11:21:16Z</time>
      </trkpt>
      <trkpt lat="45.40943" lon="5.55145">
        <ele>521</ele>
        <time>2011-08-04T11:21:20Z</time>
      </trkpt>
      <trkpt lat="45.40941" lon="5.5514">
        <ele>521</ele>
        <time>2011-08-04T11:21:23Z</time>
      </trkpt>
      <trkpt lat="45.40938" lon="5.55135">
        <ele>521</ele>
        <time>2011-08-04T11:21:26Z</time>
      </trkpt>
      <trkpt lat="45.40935" lon="5.55129">
        <ele>520</ele>
        <time>2011-08-04T11:21:29Z</time>
      </trkpt>
      <trkpt lat="45.40932" lon="5.55122">
        <ele>520</ele>
        <time>2011-08-04T11:21:33Z</time>
      </trkpt>
      <trkpt lat="45.40929" lon="5.55117">
        <ele>520</ele>
        <time>2011-08-04T11:21:36Z</time>
      </trkpt>
      <trkpt lat="45.40925" lon="5.55111">
        <ele>519</ele>
        <time>2011-08-04T11:21:40Z</time>
      </trkpt>
      <trkpt lat="45.40922" lon="5.55106">
        <ele>520</ele>
        <time>2011-08-04T11:21:43Z</time>
      </trkpt>
      <trkpt lat="45.40919" lon="5.55099">
        <ele>519</ele>
        <time>2011-08-04T11:21:47Z</time>
      </trkpt>
      <trkpt lat="45.40915" lon="5.55092">
        <ele>519</ele>
        <time>2011-08-04T11:21:50Z</time>
      </trkpt>
      <trkpt lat="45.40911" lon="5.55086">
        <ele>518</ele>
        <time>2011-08-04T11:21:52Z</time>
      </trkpt>
      <trkpt lat="45.40905" lon="5.55075">
        <ele>519</ele>
        <time>2011-08-04T11:21:54Z</time>
      </trkpt>
      <trkpt lat="45.40898" lon="5.55063">
        <ele>519</ele>
        <time>2011-08-04T11:21:56Z</time>
      </trkpt>
      <trkpt lat="45.40894" lon="5.55056">
        <ele>519</ele>
        <time>2011-08-04T11:21:57Z</time>
      </trkpt>
      <trkpt lat="45.40891" lon="5.5505">
        <ele>519</ele>
        <time>2011-08-04T11:21:58Z</time>
      </trkpt>
      <trkpt lat="45.40888" lon="5.55042">
        <ele>520</ele>
        <time>2011-08-04T11:21:59Z</time>
      </trkpt>
      <trkpt lat="45.40884" lon="5.55034">
        <ele>520</ele>
        <time>2011-08-04T11:22:00Z</time>
      </trkpt>
      <trkpt lat="45.40882" lon="5.55027">
        <ele>520</ele>
        <time>2011-08-04T11:22:01Z</time>
      </trkpt>
      <trkpt lat="45.40879" lon="5.55019">
        <ele>520</ele>
        <time>2011-08-04T11:22:02Z</time>
      </trkpt>
      <trkpt lat="45.40876" lon="5.55012">
        <ele>520</ele>
        <time>2011-08-04T11:22:03Z</time>
      </trkpt>
      <trkpt lat="45.40874" lon="5.55005">
        <ele>520</ele>
        <time>2011-08-04T11:22:04Z</time>
      </trkpt>
      <trkpt lat="45.40871" lon="5.54999">
        <ele>520</ele>
        <time>2011-08-04T11:22:05Z</time>
      </trkpt>
      <trkpt lat="45.40868" lon="5.54991">
        <ele>520</ele>
        <time>2011-08-04T11:22:06Z</time>
      </trkpt>
      <trkpt lat="45.40866" lon="5.54982">
        <ele>520</ele>
        <time>2011-08-04T11:22:07Z</time>
      </trkpt>
      <trkpt lat="45.40863" lon="5.54975">
        <ele>520</ele>
        <time>2011-08-04T11:22:08Z</time>
      </trkpt>
      <trkpt lat="45.4086" lon="5.54965">
        <ele>520</ele>
        <time>2011-08-04T11:22:09Z</time>
      </trkpt>
      <trkpt lat="45.40858" lon="5.54956">
        <ele>520</ele>
        <time>2011-08-04T11:22:10Z</time>
      </trkpt>
      <trkpt lat="45.40856" lon="5.54949">
        <ele>520</ele>
        <time>2011-08-04T11:22:11Z</time>
      </trkpt>
      <trkpt lat="45.40853" lon="5.54942">
        <ele>520</ele>
        <time>2011-08-04T11:22:12Z</time>
      </trkpt>
      <trkpt lat="45.4085" lon="5.54931">
        <ele>520</ele>
        <time>2011-08-04T11:22:14Z</time>
      </trkpt>
      <trkpt lat="45.40848" lon="5.54925">
        <ele>520</ele>
        <time>2011-08-04T11:22:15Z</time>
      </trkpt>
      <trkpt lat="45.40846" lon="5.54918">
        <ele>520</ele>
        <time>2011-08-04T11:22:16Z</time>
      </trkpt>
      <trkpt lat="45.40844" lon="5.54909">
        <ele>520</ele>
        <time>2011-08-04T11:22:17Z</time>
      </trkpt>
      <trkpt lat="45.40841" lon="5.549">
        <ele>520</ele>
        <time>2011-08-04T11:22:18Z</time>
      </trkpt>
      <trkpt lat="45.40837" lon="5.54893">
        <ele>519</ele>
        <time>2011-08-04T11:22:19Z</time>
      </trkpt>
      <trkpt lat="45.40836" lon="5.54884">
        <ele>520</ele>
        <time>2011-08-04T11:22:20Z</time>
      </trkpt>
      <trkpt lat="45.40834" lon="5.54876">
        <ele>520</ele>
        <time>2011-08-04T11:22:21Z</time>
      </trkpt>
      <trkpt lat="45.40832" lon="5.54868">
        <ele>520</ele>
        <time>2011-08-04T11:22:22Z</time>
      </trkpt>
      <trkpt lat="45.4083" lon="5.5486">
        <ele>520</ele>
        <time>2011-08-04T11:22:23Z</time>
      </trkpt>
      <trkpt lat="45.40828" lon="5.54854">
        <ele>519</ele>
        <time>2011-08-04T11:22:24Z</time>
      </trkpt>
      <trkpt lat="45.40825" lon="5.54846">
        <ele>521</ele>
        <time>2011-08-04T11:22:25Z</time>
      </trkpt>
      <trkpt lat="45.40823" lon="5.5484">
        <ele>520</ele>
        <time>2011-08-04T11:22:26Z</time>
      </trkpt>
      <trkpt lat="45.40819" lon="5.54832">
        <ele>522</ele>
        <time>2011-08-04T11:22:27Z</time>
      </trkpt>
      <trkpt lat="45.40817" lon="5.54827">
        <ele>521</ele>
        <time>2011-08-04T11:22:28Z</time>
      </trkpt>
      <trkpt lat="45.40809" lon="5.54817">
        <ele>524</ele>
        <time>2011-08-04T11:22:30Z</time>
      </trkpt>
      <trkpt lat="45.40804" lon="5.54811">
        <ele>526</ele>
        <time>2011-08-04T11:22:31Z</time>
      </trkpt>
      <trkpt lat="45.40798" lon="5.54802">
        <ele>527</ele>
        <time>2011-08-04T11:22:33Z</time>
      </trkpt>
      <trkpt lat="45.40795" lon="5.54796">
        <ele>528</ele>
        <time>2011-08-04T11:22:34Z</time>
      </trkpt>
      <trkpt lat="45.4079" lon="5.54786">
        <ele>530</ele>
        <time>2011-08-04T11:22:36Z</time>
      </trkpt>
      <trkpt lat="45.40788" lon="5.54778">
        <ele>531</ele>
        <time>2011-08-04T11:22:38Z</time>
      </trkpt>
      <trkpt lat="45.40784" lon="5.5477">
        <ele>532</ele>
        <time>2011-08-04T11:22:40Z</time>
      </trkpt>
      <trkpt lat="45.40781" lon="5.54762">
        <ele>532</ele>
        <time>2011-08-04T11:22:42Z</time>
      </trkpt>
      <trkpt lat="45.40776" lon="5.54754">
        <ele>532</ele>
        <time>2011-08-04T11:22:44Z</time>
      </trkpt>
      <trkpt lat="45.40772" lon="5.54747">
        <ele>532</ele>
        <time>2011-08-04T11:22:46Z</time>
      </trkpt>
      <trkpt lat="45.40771" lon="5.54738">
        <ele>530</ele>
        <time>2011-08-04T11:22:48Z</time>
      </trkpt>
      <trkpt lat="45.4077" lon="5.54731">
        <ele>530</ele>
        <time>2011-08-04T11:22:50Z</time>
      </trkpt>
      <trkpt lat="45.4077" lon="5.54723">
        <ele>530</ele>
        <time>2011-08-04T11:22:52Z</time>
      </trkpt>
      <trkpt lat="45.4077" lon="5.54714">
        <ele>530</ele>
        <time>2011-08-04T11:22:54Z</time>
      </trkpt>
      <trkpt lat="45.4077" lon="5.54708">
        <ele>530</ele>
        <time>2011-08-04T11:22:56Z</time>
      </trkpt>
      <trkpt lat="45.40771" lon="5.547">
        <ele>530</ele>
        <time>2011-08-04T11:22:59Z</time>
      </trkpt>
      <trkpt lat="45.40774" lon="5.54693">
        <ele>531</ele>
        <time>2011-08-04T11:23:03Z</time>
      </trkpt>
      <trkpt lat="45.40779" lon="5.5469">
        <ele>531</ele>
        <time>2011-08-04T11:23:07Z</time>
      </trkpt>
      <trkpt lat="45.40784" lon="5.54694">
        <ele>530</ele>
        <time>2011-08-04T11:23:13Z</time>
      </trkpt>
      <trkpt lat="45.40788" lon="5.54697">
        <ele>529</ele>
        <time>2011-08-04T11:23:17Z</time>
      </trkpt>
      <trkpt lat="45.40792" lon="5.54701">
        <ele>529</ele>
        <time>2011-08-04T11:23:21Z</time>
      </trkpt>
      <trkpt lat="45.40796" lon="5.54705">
        <ele>528</ele>
        <time>2011-08-04T11:23:25Z</time>
      </trkpt>
      <trkpt lat="45.40801" lon="5.54709">
        <ele>528</ele>
        <time>2011-08-04T11:23:29Z</time>
      </trkpt>
      <trkpt lat="45.40805" lon="5.54713">
        <ele>527</ele>
        <time>2011-08-04T11:23:33Z</time>
      </trkpt>
      <trkpt lat="45.40809" lon="5.54719">
        <ele>526</ele>
        <time>2011-08-04T11:23:38Z</time>
      </trkpt>
      <trkpt lat="45.40812" lon="5.54723">
        <ele>525</ele>
        <time>2011-08-04T11:23:41Z</time>
      </trkpt>
      <trkpt lat="45.40817" lon="5.54726">
        <ele>524</ele>
        <time>2011-08-04T11:23:45Z</time>
      </trkpt>
      <trkpt lat="45.40823" lon="5.5473">
        <ele>524</ele>
        <time>2011-08-04T11:23:49Z</time>
      </trkpt>
      <trkpt lat="45.40828" lon="5.54733">
        <ele>523</ele>
        <time>2011-08-04T11:23:53Z</time>
      </trkpt>
      <trkpt lat="45.40833" lon="5.54734">
        <ele>523</ele>
        <time>2011-08-04T11:23:57Z</time>
      </trkpt>
      <trkpt lat="45.40838" lon="5.54737">
        <ele>523</ele>
        <time>2011-08-04T11:24:01Z</time>
      </trkpt>
      <trkpt lat="45.40842" lon="5.54739">
        <ele>523</ele>
        <time>2011-08-04T11:24:05Z</time>
      </trkpt>
      <trkpt lat="45.40848" lon="5.5474">
        <ele>523</ele>
        <time>2011-08-04T11:24:09Z</time>
      </trkpt>
      <trkpt lat="45.40854" lon="5.5474">
        <ele>524</ele>
        <time>2011-08-04T11:24:13Z</time>
      </trkpt>
      <trkpt lat="45.4086" lon="5.54741">
        <ele>524</ele>
        <time>2011-08-04T11:24:17Z</time>
      </trkpt>
      <trkpt lat="45.40866" lon="5.54742">
        <ele>524</ele>
        <time>2011-08-04T11:24:21Z</time>
      </trkpt>
      <trkpt lat="45.40871" lon="5.54743">
        <ele>524</ele>
        <time>2011-08-04T11:24:25Z</time>
      </trkpt>
      <trkpt lat="45.40871" lon="5.54743">
        <ele>524</ele>
        <time>2011-08-04T11:24:25Z</time>
      </trkpt>
      <trkpt lat="45.40871" lon="5.54743">
        <ele>523</ele>
        <time>2011-08-04T11:24:27Z</time>
      </trkpt>
      <trkpt lat="45.40876" lon="5.54742">
        <ele>524</ele>
        <time>2011-08-04T11:24:36Z</time>
      </trkpt>
      <trkpt lat="45.40876" lon="5.54742">
        <ele>524</ele>
        <time>2011-08-04T11:24:36Z</time>
      </trkpt>
      <trkpt lat="45.40876" lon="5.54742">
        <ele>524</ele>
        <time>2011-08-04T11:24:46Z</time>
      </trkpt>
      <trkpt lat="45.40881" lon="5.54742">
        <ele>524</ele>
        <time>2011-08-04T11:24:54Z</time>
      </trkpt>
      <trkpt lat="45.40886" lon="5.54744">
        <ele>523</ele>
        <time>2011-08-04T11:24:58Z</time>
      </trkpt>
      <trkpt lat="45.40892" lon="5.54745">
        <ele>523</ele>
        <time>2011-08-04T11:25:02Z</time>
      </trkpt>
      <trkpt lat="45.40898" lon="5.54746">
        <ele>523</ele>
        <time>2011-08-04T11:25:06Z</time>
      </trkpt>
      <trkpt lat="45.40903" lon="5.54747">
        <ele>522</ele>
        <time>2011-08-04T11:25:10Z</time>
      </trkpt>
      <trkpt lat="45.40908" lon="5.54749">
        <ele>522</ele>
        <time>2011-08-04T11:25:14Z</time>
      </trkpt>
      <trkpt lat="45.40914" lon="5.5475">
        <ele>522</ele>
        <time>2011-08-04T11:25:18Z</time>
      </trkpt>
      <trkpt lat="45.40919" lon="5.5475">
        <ele>522</ele>
        <time>2011-08-04T11:25:22Z</time>
      </trkpt>
      <trkpt lat="45.40925" lon="5.54749">
        <ele>522</ele>
        <time>2011-08-04T11:25:26Z</time>
      </trkpt>
      <trkpt lat="45.4093" lon="5.5475">
        <ele>521</ele>
        <time>2011-08-04T11:25:30Z</time>
      </trkpt>
      <trkpt lat="45.40935" lon="5.54749">
        <ele>521</ele>
        <time>2011-08-04T11:25:34Z</time>
      </trkpt>
      <trkpt lat="45.4094" lon="5.54747">
        <ele>521</ele>
        <time>2011-08-04T11:25:38Z</time>
      </trkpt>
      <trkpt lat="45.40946" lon="5.54746">
        <ele>522</ele>
        <time>2011-08-04T11:25:41Z</time>
      </trkpt>
      <trkpt lat="45.4095" lon="5.54744">
        <ele>522</ele>
        <time>2011-08-04T11:25:45Z</time>
      </trkpt>
      <trkpt lat="45.40955" lon="5.54743">
        <ele>522</ele>
        <time>2011-08-04T11:25:49Z</time>
      </trkpt>
      <trkpt lat="45.40961" lon="5.54742">
        <ele>523</ele>
        <time>2011-08-04T11:25:52Z</time>
      </trkpt>
      <trkpt lat="45.40968" lon="5.54741">
        <ele>522</ele>
        <time>2011-08-04T11:25:54Z</time>
      </trkpt>
      <trkpt lat="45.40978" lon="5.5474">
        <ele>522</ele>
        <time>2011-08-04T11:25:56Z</time>
      </trkpt>
      <trkpt lat="45.40984" lon="5.5474">
        <ele>522</ele>
        <time>2011-08-04T11:25:57Z</time>
      </trkpt>
      <trkpt lat="45.4099" lon="5.5474">
        <ele>522</ele>
        <time>2011-08-04T11:25:58Z</time>
      </trkpt>
      <trkpt lat="45.40996" lon="5.54742">
        <ele>521</ele>
        <time>2011-08-04T11:25:59Z</time>
      </trkpt>
      <trkpt lat="45.41002" lon="5.54744">
        <ele>521</ele>
        <time>2011-08-04T11:26:00Z</time>
      </trkpt>
      <trkpt lat="45.41008" lon="5.54744">
        <ele>521</ele>
        <time>2011-08-04T11:26:01Z</time>
      </trkpt>
      <trkpt lat="45.41014" lon="5.54746">
        <ele>521</ele>
        <time>2011-08-04T11:26:02Z</time>
      </trkpt>
      <trkpt lat="45.4102" lon="5.54748">
        <ele>520</ele>
        <time>2011-08-04T11:26:03Z</time>
      </trkpt>
      <trkpt lat="45.41025" lon="5.5475">
        <ele>520</ele>
        <time>2011-08-04T11:26:04Z</time>
      </trkpt>
      <trkpt lat="45.4103" lon="5.54753">
        <ele>520</ele>
        <time>2011-08-04T11:26:05Z</time>
      </trkpt>
      <trkpt lat="45.41036" lon="5.54755">
        <ele>520</ele>
        <time>2011-08-04T11:26:06Z</time>
      </trkpt>
      <trkpt lat="45.41041" lon="5.54758">
        <ele>520</ele>
        <time>2011-08-04T11:26:07Z</time>
      </trkpt>
      <trkpt lat="45.41046" lon="5.5476">
        <ele>520</ele>
        <time>2011-08-04T11:26:08Z</time>
      </trkpt>
      <trkpt lat="45.41053" lon="5.54764">
        <ele>519</ele>
        <time>2011-08-04T11:26:10Z</time>
      </trkpt>
      <trkpt lat="45.4106" lon="5.54769">
        <ele>518</ele>
        <time>2011-08-04T11:26:12Z</time>
      </trkpt>
      <trkpt lat="45.41067" lon="5.54772">
        <ele>518</ele>
        <time>2011-08-04T11:26:14Z</time>
      </trkpt>
      <trkpt lat="45.41075" lon="5.54775">
        <ele>517</ele>
        <time>2011-08-04T11:26:16Z</time>
      </trkpt>
      <trkpt lat="45.41085" lon="5.54777">
        <ele>517</ele>
        <time>2011-08-04T11:26:18Z</time>
      </trkpt>
      <trkpt lat="45.4109" lon="5.54778">
        <ele>516</ele>
        <time>2011-08-04T11:26:19Z</time>
      </trkpt>
      <trkpt lat="45.41095" lon="5.54778">
        <ele>516</ele>
        <time>2011-08-04T11:26:20Z</time>
      </trkpt>
      <trkpt lat="45.41103" lon="5.54777">
        <ele>516</ele>
        <time>2011-08-04T11:26:22Z</time>
      </trkpt>
      <trkpt lat="45.41109" lon="5.54778">
        <ele>516</ele>
        <time>2011-08-04T11:26:23Z</time>
      </trkpt>
      <trkpt lat="45.41113" lon="5.54777">
        <ele>515</ele>
        <time>2011-08-04T11:26:24Z</time>
      </trkpt>
      <trkpt lat="45.41118" lon="5.54778">
        <ele>515</ele>
        <time>2011-08-04T11:26:26Z</time>
      </trkpt>
      <trkpt lat="45.41125" lon="5.5478">
        <ele>516</ele>
        <time>2011-08-04T11:26:28Z</time>
      </trkpt>
      <trkpt lat="45.41131" lon="5.54782">
        <ele>515</ele>
        <time>2011-08-04T11:26:29Z</time>
      </trkpt>
      <trkpt lat="45.41136" lon="5.54784">
        <ele>516</ele>
        <time>2011-08-04T11:26:30Z</time>
      </trkpt>
      <trkpt lat="45.41142" lon="5.54786">
        <ele>516</ele>
        <time>2011-08-04T11:26:31Z</time>
      </trkpt>
      <trkpt lat="45.4115" lon="5.54789">
        <ele>517</ele>
        <time>2011-08-04T11:26:32Z</time>
      </trkpt>
      <trkpt lat="45.41156" lon="5.54792">
        <ele>517</ele>
        <time>2011-08-04T11:26:33Z</time>
      </trkpt>
      <trkpt lat="45.41162" lon="5.54795">
        <ele>517</ele>
        <time>2011-08-04T11:26:34Z</time>
      </trkpt>
      <trkpt lat="45.41168" lon="5.54798">
        <ele>517</ele>
        <time>2011-08-04T11:26:35Z</time>
      </trkpt>
      <trkpt lat="45.41174" lon="5.548">
        <ele>517</ele>
        <time>2011-08-04T11:26:36Z</time>
      </trkpt>
      <trkpt lat="45.4118" lon="5.54802">
        <ele>517</ele>
        <time>2011-08-04T11:26:37Z</time>
      </trkpt>
      <trkpt lat="45.41189" lon="5.54804">
        <ele>517</ele>
        <time>2011-08-04T11:26:39Z</time>
      </trkpt>
      <trkpt lat="45.41194" lon="5.54805">
        <ele>517</ele>
        <time>2011-08-04T11:26:40Z</time>
      </trkpt>
      <trkpt lat="45.41199" lon="5.54808">
        <ele>517</ele>
        <time>2011-08-04T11:26:41Z</time>
      </trkpt>
      <trkpt lat="45.41205" lon="5.54811">
        <ele>516</ele>
        <time>2011-08-04T11:26:42Z</time>
      </trkpt>
      <trkpt lat="45.41211" lon="5.54812">
        <ele>516</ele>
        <time>2011-08-04T11:26:43Z</time>
      </trkpt>
      <trkpt lat="45.41216" lon="5.54813">
        <ele>517</ele>
        <time>2011-08-04T11:26:44Z</time>
      </trkpt>
      <trkpt lat="45.41221" lon="5.54814">
        <ele>517</ele>
        <time>2011-08-04T11:26:45Z</time>
      </trkpt>
      <trkpt lat="45.4123" lon="5.54818">
        <ele>517</ele>
        <time>2011-08-04T11:26:47Z</time>
      </trkpt>
      <trkpt lat="45.41234" lon="5.5482">
        <ele>517</ele>
        <time>2011-08-04T11:26:48Z</time>
      </trkpt>
      <trkpt lat="45.41241" lon="5.54824">
        <ele>516</ele>
        <time>2011-08-04T11:26:50Z</time>
      </trkpt>
      <trkpt lat="45.41247" lon="5.54827">
        <ele>516</ele>
        <time>2011-08-04T11:26:52Z</time>
      </trkpt>
      <trkpt lat="45.41254" lon="5.5483">
        <ele>517</ele>
        <time>2011-08-04T11:26:54Z</time>
      </trkpt>
      <trkpt lat="45.4126" lon="5.54833">
        <ele>517</ele>
        <time>2011-08-04T11:26:56Z</time>
      </trkpt>
      <trkpt lat="45.41267" lon="5.54836">
        <ele>517</ele>
        <time>2011-08-04T11:26:58Z</time>
      </trkpt>
      <trkpt lat="45.41273" lon="5.54838">
        <ele>516</ele>
        <time>2011-08-04T11:27:00Z</time>
      </trkpt>
      <trkpt lat="45.41278" lon="5.54841">
        <ele>517</ele>
        <time>2011-08-04T11:27:02Z</time>
      </trkpt>
      <trkpt lat="45.41283" lon="5.54843">
        <ele>516</ele>
        <time>2011-08-04T11:27:05Z</time>
      </trkpt>
      <trkpt lat="45.41288" lon="5.54846">
        <ele>516</ele>
        <time>2011-08-04T11:27:08Z</time>
      </trkpt>
      <trkpt lat="45.41293" lon="5.54844">
        <ele>516</ele>
        <time>2011-08-04T11:27:11Z</time>
      </trkpt>
      <trkpt lat="45.41297" lon="5.54846">
        <ele>516</ele>
        <time>2011-08-04T11:27:13Z</time>
      </trkpt>
      <trkpt lat="45.41303" lon="5.54849">
        <ele>516</ele>
        <time>2011-08-04T11:27:17Z</time>
      </trkpt>
      <trkpt lat="45.41308" lon="5.5485">
        <ele>517</ele>
        <time>2011-08-04T11:27:19Z</time>
      </trkpt>
      <trkpt lat="45.41311" lon="5.54854">
        <ele>516</ele>
        <time>2011-08-04T11:27:22Z</time>
      </trkpt>
      <trkpt lat="45.41316" lon="5.54858">
        <ele>516</ele>
        <time>2011-08-04T11:27:26Z</time>
      </trkpt>
      <trkpt lat="45.4132" lon="5.54862">
        <ele>516</ele>
        <time>2011-08-04T11:27:30Z</time>
      </trkpt>
      <trkpt lat="45.41326" lon="5.54865">
        <ele>517</ele>
        <time>2011-08-04T11:27:34Z</time>
      </trkpt>
      <trkpt lat="45.41331" lon="5.54866">
        <ele>517</ele>
        <time>2011-08-04T11:27:38Z</time>
      </trkpt>
      <trkpt lat="45.41336" lon="5.54863">
        <ele>519</ele>
        <time>2011-08-04T11:27:42Z</time>
      </trkpt>
      <trkpt lat="45.41337" lon="5.5487">
        <ele>517</ele>
        <time>2011-08-04T11:27:50Z</time>
      </trkpt>
      <trkpt lat="45.41343" lon="5.54872">
        <ele>516</ele>
        <time>2011-08-04T11:27:54Z</time>
      </trkpt>
      <trkpt lat="45.41348" lon="5.54873">
        <ele>517</ele>
        <time>2011-08-04T11:27:55Z</time>
      </trkpt>
      <trkpt lat="45.41353" lon="5.54874">
        <ele>518</ele>
        <time>2011-08-04T11:27:57Z</time>
      </trkpt>
      <trkpt lat="45.4136" lon="5.54875">
        <ele>519</ele>
        <time>2011-08-04T11:28:00Z</time>
      </trkpt>
      <trkpt lat="45.41366" lon="5.54876">
        <ele>519</ele>
        <time>2011-08-04T11:28:02Z</time>
      </trkpt>
      <trkpt lat="45.4137" lon="5.54877">
        <ele>519</ele>
        <time>2011-08-04T11:28:04Z</time>
      </trkpt>
      <trkpt lat="45.41375" lon="5.54878">
        <ele>519</ele>
        <time>2011-08-04T11:28:06Z</time>
      </trkpt>
      <trkpt lat="45.4138" lon="5.54878">
        <ele>519</ele>
        <time>2011-08-04T11:28:08Z</time>
      </trkpt>
      <trkpt lat="45.41385" lon="5.5488">
        <ele>519</ele>
        <time>2011-08-04T11:28:10Z</time>
      </trkpt>
      <trkpt lat="45.41391" lon="5.54881">
        <ele>519</ele>
        <time>2011-08-04T11:28:12Z</time>
      </trkpt>
      <trkpt lat="45.41397" lon="5.54882">
        <ele>518</ele>
        <time>2011-08-04T11:28:14Z</time>
      </trkpt>
      <trkpt lat="45.41402" lon="5.54882">
        <ele>518</ele>
        <time>2011-08-04T11:28:16Z</time>
      </trkpt>
      <trkpt lat="45.4141" lon="5.54883">
        <ele>518</ele>
        <time>2011-08-04T11:28:18Z</time>
      </trkpt>
      <trkpt lat="45.41416" lon="5.54885">
        <ele>518</ele>
        <time>2011-08-04T11:28:20Z</time>
      </trkpt>
      <trkpt lat="45.41423" lon="5.54886">
        <ele>518</ele>
        <time>2011-08-04T11:28:22Z</time>
      </trkpt>
      <trkpt lat="45.41429" lon="5.54888">
        <ele>518</ele>
        <time>2011-08-04T11:28:24Z</time>
      </trkpt>
      <trkpt lat="45.41436" lon="5.54891">
        <ele>518</ele>
        <time>2011-08-04T11:28:26Z</time>
      </trkpt>
      <trkpt lat="45.41442" lon="5.54895">
        <ele>518</ele>
        <time>2011-08-04T11:28:28Z</time>
      </trkpt>
      <trkpt lat="45.41448" lon="5.54899">
        <ele>518</ele>
        <time>2011-08-04T11:28:30Z</time>
      </trkpt>
      <trkpt lat="45.41454" lon="5.54901">
        <ele>519</ele>
        <time>2011-08-04T11:28:32Z</time>
      </trkpt>
      <trkpt lat="45.4146" lon="5.54903">
        <ele>519</ele>
        <time>2011-08-04T11:28:34Z</time>
      </trkpt>
      <trkpt lat="45.41466" lon="5.54906">
        <ele>520</ele>
        <time>2011-08-04T11:28:36Z</time>
      </trkpt>
      <trkpt lat="45.41471" lon="5.54909">
        <ele>520</ele>
        <time>2011-08-04T11:28:39Z</time>
      </trkpt>
      <trkpt lat="45.41476" lon="5.54912">
        <ele>520</ele>
        <time>2011-08-04T11:28:43Z</time>
      </trkpt>
      <trkpt lat="45.4148" lon="5.54915">
        <ele>520</ele>
        <time>2011-08-04T11:28:47Z</time>
      </trkpt>
      <trkpt lat="45.41485" lon="5.54918">
        <ele>521</ele>
        <time>2011-08-04T11:28:51Z</time>
      </trkpt>
      <trkpt lat="45.4149" lon="5.54922">
        <ele>520</ele>
        <time>2011-08-04T11:28:55Z</time>
      </trkpt>
      <trkpt lat="45.41494" lon="5.54925">
        <ele>520</ele>
        <time>2011-08-04T11:28:58Z</time>
      </trkpt>
      <trkpt lat="45.415" lon="5.54929">
        <ele>520</ele>
        <time>2011-08-04T11:29:02Z</time>
      </trkpt>
      <trkpt lat="45.41504" lon="5.54934">
        <ele>520</ele>
        <time>2011-08-04T11:29:06Z</time>
      </trkpt>
      <trkpt lat="45.41509" lon="5.54939">
        <ele>521</ele>
        <time>2011-08-04T11:29:10Z</time>
      </trkpt>
      <trkpt lat="45.41513" lon="5.54944">
        <ele>521</ele>
        <time>2011-08-04T11:29:13Z</time>
      </trkpt>
      <trkpt lat="45.41518" lon="5.54948">
        <ele>520</ele>
        <time>2011-08-04T11:29:17Z</time>
      </trkpt>
      <trkpt lat="45.41523" lon="5.54952">
        <ele>520</ele>
        <time>2011-08-04T11:29:21Z</time>
      </trkpt>
      <trkpt lat="45.41528" lon="5.54956">
        <ele>519</ele>
        <time>2011-08-04T11:29:25Z</time>
      </trkpt>
      <trkpt lat="45.41533" lon="5.54959">
        <ele>519</ele>
        <time>2011-08-04T11:29:29Z</time>
      </trkpt>
      <trkpt lat="45.41538" lon="5.54962">
        <ele>518</ele>
        <time>2011-08-04T11:29:33Z</time>
      </trkpt>
      <trkpt lat="45.41542" lon="5.54966">
        <ele>517</ele>
        <time>2011-08-04T11:29:37Z</time>
      </trkpt>
      <trkpt lat="45.41547" lon="5.54967">
        <ele>517</ele>
        <time>2011-08-04T11:29:40Z</time>
      </trkpt>
      <trkpt lat="45.41552" lon="5.54969">
        <ele>516</ele>
        <time>2011-08-04T11:29:44Z</time>
      </trkpt>
      <trkpt lat="45.41557" lon="5.54972">
        <ele>516</ele>
        <time>2011-08-04T11:29:49Z</time>
      </trkpt>
      <trkpt lat="45.41562" lon="5.54975">
        <ele>515</ele>
        <time>2011-08-04T11:29:53Z</time>
      </trkpt>
      <trkpt lat="45.41568" lon="5.54977">
        <ele>515</ele>
        <time>2011-08-04T11:29:58Z</time>
      </trkpt>
      <trkpt lat="45.41573" lon="5.5498">
        <ele>515</ele>
        <time>2011-08-04T11:30:02Z</time>
      </trkpt>
      <trkpt lat="45.41578" lon="5.54982">
        <ele>515</ele>
        <time>2011-08-04T11:30:06Z</time>
      </trkpt>
      <trkpt lat="45.41583" lon="5.54986">
        <ele>514</ele>
        <time>2011-08-04T11:30:10Z</time>
      </trkpt>
      <trkpt lat="45.41588" lon="5.54989">
        <ele>514</ele>
        <time>2011-08-04T11:30:14Z</time>
      </trkpt>
      <trkpt lat="45.41592" lon="5.54994">
        <ele>514</ele>
        <time>2011-08-04T11:30:18Z</time>
      </trkpt>
      <trkpt lat="45.41597" lon="5.54997">
        <ele>514</ele>
        <time>2011-08-04T11:30:21Z</time>
      </trkpt>
      <trkpt lat="45.41602" lon="5.55">
        <ele>513</ele>
        <time>2011-08-04T11:30:25Z</time>
      </trkpt>
      <trkpt lat="45.41606" lon="5.55003">
        <ele>513</ele>
        <time>2011-08-04T11:30:28Z</time>
      </trkpt>
      <trkpt lat="45.41611" lon="5.55006">
        <ele>513</ele>
        <time>2011-08-04T11:30:32Z</time>
      </trkpt>
      <trkpt lat="45.41616" lon="5.5501">
        <ele>512</ele>
        <time>2011-08-04T11:30:36Z</time>
      </trkpt>
      <trkpt lat="45.4162" lon="5.55013">
        <ele>512</ele>
        <time>2011-08-04T11:30:40Z</time>
      </trkpt>
      <trkpt lat="45.41625" lon="5.55015">
        <ele>514</ele>
        <time>2011-08-04T11:30:43Z</time>
      </trkpt>
      <trkpt lat="45.41629" lon="5.55019">
        <ele>514</ele>
        <time>2011-08-04T11:30:46Z</time>
      </trkpt>
      <trkpt lat="45.41632" lon="5.55027">
        <ele>512</ele>
        <time>2011-08-04T11:30:50Z</time>
      </trkpt>
      <trkpt lat="45.41636" lon="5.55034">
        <ele>512</ele>
        <time>2011-08-04T11:30:54Z</time>
      </trkpt>
      <trkpt lat="45.41639" lon="5.5504">
        <ele>513</ele>
        <time>2011-08-04T11:30:57Z</time>
      </trkpt>
      <trkpt lat="45.41643" lon="5.55046">
        <ele>513</ele>
        <time>2011-08-04T11:31:01Z</time>
      </trkpt>
      <trkpt lat="45.41646" lon="5.55052">
        <ele>512</ele>
        <time>2011-08-04T11:31:04Z</time>
      </trkpt>
      <trkpt lat="45.41649" lon="5.55058">
        <ele>512</ele>
        <time>2011-08-04T11:31:08Z</time>
      </trkpt>
      <trkpt lat="45.41652" lon="5.55063">
        <ele>512</ele>
        <time>2011-08-04T11:31:11Z</time>
      </trkpt>
      <trkpt lat="45.41655" lon="5.55068">
        <ele>512</ele>
        <time>2011-08-04T11:31:14Z</time>
      </trkpt>
      <trkpt lat="45.41658" lon="5.55074">
        <ele>513</ele>
        <time>2011-08-04T11:31:18Z</time>
      </trkpt>
      <trkpt lat="45.41662" lon="5.5508">
        <ele>513</ele>
        <time>2011-08-04T11:31:22Z</time>
      </trkpt>
      <trkpt lat="45.41666" lon="5.55086">
        <ele>513</ele>
        <time>2011-08-04T11:31:26Z</time>
      </trkpt>
      <trkpt lat="45.4167" lon="5.55092">
        <ele>514</ele>
        <time>2011-08-04T11:31:30Z</time>
      </trkpt>
      <trkpt lat="45.41674" lon="5.55098">
        <ele>514</ele>
        <time>2011-08-04T11:31:35Z</time>
      </trkpt>
      <trkpt lat="45.41679" lon="5.55102">
        <ele>514</ele>
        <time>2011-08-04T11:31:38Z</time>
      </trkpt>
      <trkpt lat="45.41683" lon="5.55108">
        <ele>514</ele>
        <time>2011-08-04T11:31:42Z</time>
      </trkpt>
      <trkpt lat="45.41688" lon="5.55108">
        <ele>515</ele>
        <time>2011-08-04T11:31:46Z</time>
      </trkpt>
      <trkpt lat="45.41692" lon="5.55105">
        <ele>516</ele>
        <time>2011-08-04T11:31:51Z</time>
      </trkpt>
      <trkpt lat="45.41692" lon="5.55111">
        <ele>516</ele>
        <time>2011-08-04T11:32:00Z</time>
      </trkpt>
      <trkpt lat="45.41695" lon="5.55116">
        <ele>516</ele>
        <time>2011-08-04T11:32:04Z</time>
      </trkpt>
      <trkpt lat="45.41698" lon="5.55123">
        <ele>515</ele>
        <time>2011-08-04T11:32:08Z</time>
      </trkpt>
      <trkpt lat="45.417" lon="5.55129">
        <ele>514</ele>
        <time>2011-08-04T11:32:12Z</time>
      </trkpt>
      <trkpt lat="45.417" lon="5.55129">
        <ele>514</ele>
        <time>2011-08-04T11:32:12Z</time>
      </trkpt>
    </trkseg>
  </trk>
</gpx>